[[{"header":{"parameterUnit":"m.s-1","parameterCategory":1,"la1":30.6,"la2":28.766,"lo1":-90.7593,"lo2":-88.6598,"dy":0.0162,"dx":0.0183,"nx":116,"ny":114,"refTime":"2023-05-04T00:00:00:Z","depth":0,"parameterNumber":2,"parameterNumberName":"U-component_of_WINDS"},"data":[0.0,0.0,0.0,0.0,0.0,0.0,0.0,0.0,0.0,0.0,0.0,0.0,0.0,0.0,0.0,0.0,0.0,0.0,0.0,0.0,0.0,0.0,0.0,0.0,0.0,0.0,0.0,0.0,0.0,0.0,0.0,0.0,0.0,0.0,0.0,0.0,0.0,0.0,0.0,0.0,0.0,0.0,0.0,0.0,0.0,0.0,0.0,0.0,0.0,0.0,0.0,0.0,0.0,0.0,0.0,0.0,0.0,0.0,0.0,0.0,0.0,0.0,0.0,0.0,0.0,0.0,0.0,0.0,0.0,0.0,0.0,0.0,0.0,0.0,0.0,0.0,0.0,0.0,0.0,0.0,0.0,0.0,0.0,0.0,0.0,0.0,0.0,0.0,0.0,0.0,0.0,0.0,0.0,0.0,0.0,0.0,0.0,0.0,0.0,0.0,0.0,0.0,0.0,0.0,0.0,0.0,0.0,0.0,0.0,0.0,0.0,0.0,0.0,0.0,0.0,0.0,0.0,0.0,0.0,0.0,0.0,0.0,0.0,0.0,0.0,0.0,0.0,0.0,0.0,0.0,0.0,0.0,0.0,0.0,0.0,0.0,0.0,0.0,0.0,0.0,0.0,0.0,0.0,0.0,0.0,0.0,0.0,0.0,0.0,0.0,0.0,0.0,0.0,0.0,0.0,0.0,0.0,0.0,0.0,0.0,0.0,0.0,0.0,0.0,0.0,0.0,0.0,0.0,0.0,0.0,0.0,0.0,0.0,0.0,0.0,0.0,0.0,0.0,0.0,0.0,0.0,0.0,0.0,0.0,0.0,0.0,0.0,0.0,0.0,0.0,0.0,0.0,0.0,0.0,0.0,0.0,0.0,0.0,0.0,0.0,0.0,0.0,0.0,0.0,0.0,0.0,0.0,0.0,0.0,0.0,0.0,0.0,0.0,0.0,0.0,0.0,0.0,0.0,0.0,0.0,0.0,0.0,0.0,0.0,0.0,0.0,0.0,0.0,0.0,0.0,0.0,0.0,0.0,0.0,0.0,0.0,0.0,0.0,0.0,0.0,0.0,0.0,0.0,0.0,0.0,0.0,0.0,0.0,0.0,0.0,0.0,0.0,0.0,0.0,0.0,0.0,0.0,0.0,0.0,0.0,0.0,0.0,0.0,0.0,0.0,0.0,0.0,0.0,0.0,0.0,0.0,0.0,0.0,0.0,0.0,0.0,0.0,0.0,0.0,0.0,0.0,0.0,0.0,0.0,0.0,0.0,0.0,0.0,0.0,0.0,0.0,0.0,0.0,0.0,0.0,0.0,0.0,0.0,0.0,0.0,0.0,0.0,0.0,0.0,0.0,0.0,0.0,0.0,0.0,0.0,0.0,0.0,0.0,0.0,0.0,0.0,0.0,0.0,0.0,0.0,0.0,0.0,0.0,0.0,0.0,0.0,0.0,0.0,0.0,0.0,0.0,0.0,0.0,0.0,0.0,0.0,0.0,0.0,0.0,0.0,0.0,0.0,0.0,0.0,0.0,0.0,0.0,0.0,0.0,0.0,0.0,0.0,0.0,0.0,0.0,0.0,0.0,0.0,0.0,0.0,0.0,0.0,0.0,0.0,0.0,0.0,0.0,0.0,0.0,0.0,0.0,0.0,0.0,0.0,0.0,0.0,0.0,0.0,0.0,0.0,0.0,0.0,0.0,0.0,0.0,0.0,0.0,0.0,0.0,0.0,0.0,0.0,0.0,0.0,0.0,0.0,0.0,0.0,0.0,0.0,0.0,0.0,0.0,0.0,0.0,0.0,0.0,0.0,0.0,0.0,0.0,0.0,0.0,0.0,0.0,0.0,0.0,0.0,0.0,0.0,0.0,0.0,0.0,0.0,0.0,0.0,0.0,0.0,0.0,0.0,0.0,0.0,0.0,0.0,0.0,0.0,0.0,0.0,0.0,0.0,0.0,0.0,0.0,0.0,0.0,0.0,0.0,0.0,0.0,0.0,0.0,0.0,0.0,0.0,0.0,0.0,0.0,0.0,0.0,0.0,0.0,0.0,0.0,0.0,0.0,0.0,0.0,0.0,0.0,0.0,0.0,0.0,0.0,0.0,0.0,0.0,0.0,0.0,0.0,0.0,0.0,0.0,0.0,0.0,0.0,0.0,0.0,0.0,0.0,0.0,0.0,0.0,0.0,0.0,0.0,0.0,0.0,0.0,0.0,0.0,0.0,0.0,0.0,0.0,0.0,0.0,0.0,0.0,0.0,0.0,0.0,0.0,0.0,0.0,0.0,0.0,0.0,0.0,0.0,0.0,0.0,0.0,0.0,0.0,0.0,0.0,0.0,0.0,0.0,0.0,0.0,0.0,0.0,0.0,0.0,0.0,0.0,0.0,0.0,0.0,0.0,0.0,0.0,0.0,0.0,0.0,0.0,0.0,0.0,0.0,0.0,0.0,0.0,0.0,0.0,0.0,0.0,0.0,0.0,0.0,0.0,0.0,0.0,0.0,0.0,0.0,0.0,0.0,0.0,0.0,0.0,0.0,0.0,0.0,0.0,0.0,0.0,0.0,0.0,0.0,0.0,0.0,0.0,0.0,0.0,0.0,0.0,0.0,0.0,0.0,0.0,0.0,0.0,0.0,0.0,0.0,0.0,0.0,0.0,0.0,0.0,0.0,0.0,0.0,0.0,0.0,0.0,0.0,0.0,0.0,0.0,0.0,0.0,0.0,0.0,0.0,0.0,0.0,0.0,0.0,0.0,0.0,0.0,0.0,0.0,0.0,0.0,0.0,0.0,0.0,0.0,0.0,0.0,0.0,0.0,0.0,0.0,0.0,0.0,0.0,0.0,0.0,0.0,0.0,0.0,0.0,0.0,0.0,0.0,0.0,0.0,0.0,0.0,0.0,0.0,0.0,0.0,0.0,0.0,0.0,0.0,0.0,0.0,0.0,0.0,0.0,0.0,0.0,0.0,0.0,0.0,0.0,0.0,0.0,0.0,0.0,0.0,0.0,0.0,0.0,0.0,0.0,0.0,0.0,0.0,0.0,0.0,0.0,0.0,0.0,0.0,0.0,0.0,0.0,0.0,0.0,0.0,0.0,0.0,0.0,0.0,0.0,0.0,0.0,0.0,0.0,0.0,0.0,0.0,0.0,0.0,0.0,0.0,0.0,0.0,0.0,0.0,0.0,0.0,0.0,0.0,0.0,0.0,0.0,0.0,0.0,0.0,0.0,0.0,0.0,0.0,0.0,0.0,0.0,0.0,0.0,0.0,0.0,0.0,0.0,0.0,0.0,0.0,0.0,0.0,0.0,0.0,0.0,0.0,0.0,0.0,0.0,0.0,0.0,0.0,0.0,0.0,0.0,0.0,0.0,0.0,0.0,0.0,0.0,0.0,0.0,0.0,0.0,0.0,0.0,0.0,0.0,0.0,0.0,0.0,0.0,0.0,0.0,0.0,0.0,0.0,0.0,0.0,0.0,0.0,0.0,0.0,0.0,0.0,0.0,0.0,0.0,0.0,0.0,0.0,0.0,0.0,0.0,0.0,0.0,0.0,0.0,0.0,0.0,0.0,0.0,0.0,0.0,0.0,0.0,0.0,0.0,0.0,0.0,0.0,0.0,0.0,0.0,0.0,0.0,0.0,0.0,0.0,0.0,0.0,0.0,0.0,0.0,0.0,0.0,0.0,0.0,0.0,0.0,0.0,0.0,0.0,0.0,0.0,0.0,0.0,0.0,0.0,0.0,0.0,0.0,0.0,0.0,0.0,0.0,0.0,0.0,0.0,0.0,0.0,0.0,0.0,0.0,0.0,0.0,0.0,0.0,0.0,0.0,0.0,0.0,0.0,0.0,0.0,0.0,0.0,0.0,0.0,0.0,0.0,0.0,0.0,0.0,0.0,0.0,0.0,0.0,0.0,0.0,0.0,0.0,0.0,0.0,0.0,0.0,0.0,0.0,0.0,0.0,0.0,0.0,0.0,0.0,0.0,0.0,0.0,0.0,0.0,0.0,0.0,0.0,0.0,0.0,0.0,0.0,0.0,0.0,0.0,0.0,0.0,0.0,0.0,0.0,0.0,0.0,0.0,0.0,0.0,0.0,0.0,0.0,0.0,0.0,0.0,0.0,0.0,0.0,0.0,0.0,0.0,0.0,0.0,0.0,0.0,0.0,0.0,0.0,0.0,0.0,0.0,0.0,0.0,0.0,0.0,0.0,0.0,0.0,0.0,0.0,0.0,0.0,0.0,0.0,0.0,0.0,0.0,0.0,0.0,0.0,0.0,0.0,0.0,0.0,0.0,0.0,0.0,0.0,0.0,0.0,0.0,0.0,0.0,0.0,0.0,0.0,0.0,0.0,0.0,0.0,0.0,0.0,0.0,0.0,0.0,0.0,0.0,0.0,0.0,0.0,0.0,0.0,0.0,0.0,0.0,0.0,0.0,0.0,0.0,0.0,0.0,0.0,0.0,0.0,0.0,0.0,0.0,0.0,0.0,0.0,0.0,0.0,0.0,0.0,0.0,0.0,0.0,0.0,0.0,0.0,0.0,0.0,0.0,0.0,0.0,0.0,0.0,0.0,0.0,0.0,0.0,0.0,0.0,0.0,0.0,0.0,0.0,0.0,0.0,0.0,0.0,0.0,0.0,0.0,0.0,0.0,0.0,0.0,0.0,0.0,0.0,0.0,0.0,0.0,0.0,0.0,0.0,0.0,0.0,0.0,0.0,0.0,0.0,0.0,0.0,0.0,0.0,0.0,0.0,0.0,0.0,0.0,0.0,0.0,0.0,0.0,0.0,0.0,0.0,0.0,0.0,0.0,0.0,0.0,0.0,0.0,0.0,0.0,0.0,0.0,0.0,0.0,0.0,0.0,0.0,0.0,0.0,0.0,0.0,0.0,0.0,0.0,0.0,0.0,0.0,0.0,0.0,0.0,0.0,0.0,0.0,0.0,0.0,0.0,0.0,0.0,0.0,0.0,0.0,0.0,0.0,0.0,0.0,0.0,0.0,0.0,0.0,0.0,0.0,0.0,0.0,0.0,0.0,0.0,0.0,0.0,0.0,0.0,0.0,0.0,0.0,0.0,0.0,0.0,0.0,0.0,0.0,0.0,0.0,0.0,0.0,0.0,0.0,0.0,0.0,0.0,0.0,0.0,0.0,0.0,0.0,0.0,0.0,0.0,0.0,0.0,0.0,0.0,0.0,0.0,0.0,0.0,0.0,0.0,0.0,0.0,0.0,0.0,0.0,0.0,0.0,0.0,0.0,0.0,0.0,0.0,0.0,0.0,0.0,0.0,0.0,0.0,0.0,0.0,0.0,0.0,0.0,0.0,0.0,0.0,0.0,0.0,0.0,0.0,0.0,0.0,0.0,0.0,0.0,0.0,0.0,0.0,0.0,0.0,0.0,0.0,0.0,0.0,0.0,0.0,0.0,0.0,0.0,0.0,0.0,0.0,0.0,0.0,0.0,0.0,0.0,0.0,0.0,0.0,0.0,0.0,0.0,0.0,0.0,0.0,0.0,0.0,0.0,0.0,0.0,0.0,0.0,0.0,0.0,0.0,0.0,0.0,0.0,0.0,0.0,0.0,0.0,0.0,0.0,0.0,0.0,0.0,0.0,0.0,0.0,0.0,0.0,0.0,0.0,0.0,0.0,0.0,0.0,0.0,0.0,0.0,0.0,0.0,0.0,0.0,0.0,0.0,0.0,0.0,0.0,0.0,0.0,0.0,0.0,0.0,0.0,0.0,0.0,0.0,0.0,0.0,0.0,0.0,0.0,0.0,0.0,0.0,0.0,0.0,0.0,0.0,0.0,0.0,0.0,0.0,0.0,0.0,0.0,0.0,0.0,0.0,0.0,0.0,0.0,0.0,0.0,0.0,0.0,0.0,0.0,0.0,0.0,0.0,0.0,0.0,0.0,0.0,0.0,0.0,0.0,0.0,0.0,0.0,0.0,0.0,0.0,0.0,0.0,0.0,0.0,0.0,0.0,0.0,0.0,0.0,0.0,0.0,0.0,0.0,0.0,0.0,0.0,0.0,0.0,0.0,0.0,0.0,0.0,0.0,0.0,0.0,0.0,0.0,0.0,0.0,0.0,0.0,0.0,0.0,0.0,0.0,-2.0232,0.0,0.0,0.0,0.0,0.0,0.0,0.0,0.0,0.0,0.0,0.0,0.0,0.0,0.0,0.0,0.0,0.0,0.0,0.0,0.0,0.0,0.0,0.0,0.0,0.0,0.0,0.0,0.0,0.0,0.0,0.0,0.0,0.0,0.0,0.0,0.0,0.0,0.0,0.0,0.0,0.0,0.0,0.0,0.0,0.0,0.0,0.0,0.0,0.0,0.0,0.0,0.0,0.0,0.0,0.0,0.0,0.0,0.0,0.0,0.0,0.0,0.0,0.0,0.0,0.0,0.0,0.0,0.0,0.0,0.0,0.0,0.0,0.0,0.0,0.0,0.0,0.0,0.0,0.0,0.0,0.0,0.0,0.0,0.0,0.0,0.0,0.0,0.0,0.0,0.0,0.0,0.0,0.0,0.0,0.0,0.0,0.0,0.0,0.0,0.0,0.0,0.0,0.0,0.0,0.0,0.0,0.0,0.0,0.0,0.0,0.0,0.0,0.0,0.0,0.0,0.0,-2.1644,0.0,0.0,0.0,0.0,0.0,0.0,0.0,0.0,0.0,0.0,0.0,0.0,0.0,0.0,0.0,0.0,0.0,0.0,0.0,0.0,0.0,0.0,0.0,0.0,0.0,0.0,0.0,0.0,0.0,0.0,0.0,0.0,0.0,0.0,0.0,0.0,0.0,0.0,0.0,0.0,0.0,0.0,0.0,0.0,0.0,0.0,0.0,0.0,0.0,0.0,0.0,0.0,0.0,0.0,0.0,0.0,0.0,0.0,0.0,0.0,0.0,0.0,0.0,0.0,0.0,0.0,0.0,0.0,0.0,0.0,0.0,0.0,0.0,0.0,0.0,0.0,0.0,0.0,0.0,0.0,0.0,0.0,0.0,0.0,0.0,0.0,0.0,0.0,0.0,0.0,0.0,0.0,0.0,0.0,0.0,0.0,0.0,0.0,0.0,0.0,0.0,0.0,0.0,0.0,0.0,0.0,0.0,0.0,-1.6544,-1.7567,-2.0908,-2.1487,-2.3847,-2.7292,-2.455,-2.4037,-2.5001,0.0,0.0,0.0,0.0,0.0,0.0,0.0,0.0,0.0,0.0,0.0,0.0,0.0,0.0,0.0,0.0,0.0,0.0,0.0,0.0,0.0,0.0,0.0,0.0,0.0,0.0,0.0,0.0,0.0,0.0,0.0,0.0,0.0,0.0,0.0,0.0,0.0,0.0,0.0,1.1351,1.1095,1.0924,1.0916,0.0,0.0,0.0,0.0,0.0,0.0,0.0,0.0,0.0,0.0,0.0,0.0,0.0,0.0,0.0,0.0,0.0,0.0,0.0,0.0,0.0,0.0,0.0,0.0,0.0,0.0,0.0,0.0,0.0,0.0,0.0,0.0,0.0,0.0,0.0,0.0,0.0,0.0,0.0,0.0,0.0,0.0,0.0,0.0,-0.3019,-0.4175,0.0,0.0,0.0,0.0,0.0,0.0,0.0,0.0,0.0,0.0,0.0,0.0,0.0,-1.8524,-1.504,-1.4359,-1.6686,-2.1896,-2.167,-2.2218,-2.3386,-2.5384,-2.7118,-2.8459,-2.8644,0.0,-2.6726,-2.6579,0.0,0.0,0.0,0.0,0.0,0.0,0.0,0.0,0.0,0.0,0.0,0.0,0.0,0.0,0.0,0.0,0.0,0.0,0.0,0.0,0.0,0.0,0.0,0.0,0.0,0.0,0.0,0.0,0.0,0.0,0.0,0.0,0.0,0.0,0.0,0.0,0.0,0.0,0.7505,0.7167,0.6792,0.648,0.7612,0.9287,1.1303,1.2065,0.0,0.0,0.0,0.0,0.0,0.0,0.0,0.0,0.0,0.0,0.0,0.0,0.0,0.0,0.0,0.0,0.0,0.0,0.0,0.0,0.0,0.0,0.0,0.0,0.0,0.0,0.0,0.0,0.0,0.0,0.0,0.0,0.0,0.0,0.0,0.0,0.0,0.0,0.0,-0.0876,-0.1529,-0.3269,-0.607,-0.9489,0.0,0.0,0.0,0.0,0.0,0.0,0.0,0.0,0.0,-3.2266,-2.7969,-2.4613,-2.2294,-2.0636,-2.1388,-2.4465,-2.5758,-2.6039,-2.5429,-2.779,-2.934,-3.0351,-3.1893,-3.1724,-3.0292,-2.8811,-2.7414,-2.6144,0.0,0.0,0.0,0.0,-2.0244,-1.9687,0.0,0.0,0.0,0.0,0.0,0.0,0.0,0.0,0.0,0.0,0.0,0.0,0.0,0.0,0.0,0.0,0.0,0.0,0.0,0.0,0.0,0.0,0.0,0.0,0.0,0.0,0.0,0.0,0.0,0.0,0.0,0.0,0.2928,0.2553,0.2614,0.461,0.7974,0.8572,0.9172,0.0,0.0,0.0,0.0,0.0,0.0,0.0,0.0,0.0,0.0,0.0,0.0,0.0,0.0,0.0,0.0,0.0,0.0,0.0,0.0,0.0,0.0,0.0,0.0,0.0,0.0,0.0,0.0,0.0,0.0,0.0,0.0,0.0,0.0,0.0,0.0,0.0,0.0,-0.02,-0.044,-0.2921,-0.5717,-0.9275,0.0,0.0,0.0,0.0,0.0,0.0,-3.8854,-3.8823,-3.8169,-3.7119,-3.3045,-3.0054,-2.8401,-2.6176,-2.5805,-2.7307,-2.9074,-2.9311,-2.8274,-3.0749,-3.205,-3.2515,-3.4038,-3.4353,-3.3536,-3.1039,-2.9575,-2.8951,-2.8172,-2.6973,-2.5563,-2.4613,-2.3729,-2.3017,0.0,0.0,0.0,0.0,0.0,0.0,0.0,0.0,0.0,0.0,0.0,0.0,0.0,0.0,0.0,0.0,0.0,0.0,0.0,0.0,0.0,0.0,0.0,0.0,0.0,0.0,0.0,0.0,0.0,0.0,0.0,0.0,0.0,0.0,0.0,0.0,0.3591,0.6012,0.6795,0.6667,0.0,0.0,0.0,0.0,0.0,0.0,0.0,0.0,0.0,0.0,0.0,0.0,0.0,0.0,0.0,0.0,0.0,0.0,0.0,0.0,0.0,0.0,0.0,0.0,0.0,0.0,0.0,0.0,0.0,0.0,0.0,0.0,0.0,0.0,0.0,0.0,0.0,0.0,0.0,-0.3738,-0.6256,0.0,0.0,0.0,0.0,-3.059,-3.2706,-3.5613,-3.9991,-4.1928,-4.2289,-4.0945,-3.7694,-3.4984,-3.2992,-2.9951,-2.9312,-3.1046,-3.1486,-3.1948,-3.2594,-3.5414,-3.5885,-3.4525,-3.4663,-3.5055,-3.5439,-3.3704,-3.2299,-3.1224,-3.1027,-3.0335,-2.9313,-2.833,-2.7418,-2.6508,0.0,0.0,0.0,0.0,0.0,0.0,0.0,0.0,0.0,0.0,0.0,0.0,0.0,0.0,0.0,0.0,0.0,0.0,0.0,0.0,0.0,0.0,0.0,0.0,0.0,0.0,0.0,0.0,0.0,0.0,0.0,0.0,0.0,0.0,0.0,0.0,0.0,0.0,0.3482,0.4376,0.6405,0.797,0.0,0.0,0.0,0.0,0.0,0.0,0.0,0.0,0.0,0.0,0.0,0.0,0.0,0.0,0.0,0.0,0.0,0.0,0.0,0.0,0.0,0.0,0.0,0.0,0.0,0.0,0.0,0.0,0.0,0.0,0.0,0.0,0.0,0.0,0.0,0.0,0.0,-0.5375,-0.8338,0.0,0.0,-2.1323,-2.6145,-3.2021,-3.5116,-3.824,-4.1718,-4.3089,-4.3617,-4.3342,-4.0491,-3.8604,-3.7812,-3.5175,-3.4144,-3.4694,-3.4942,-3.5394,-3.6217,-3.7536,-3.7439,-3.6258,-3.6961,-3.7388,-3.7437,-3.6484,-3.5033,-3.3365,-3.3128,-3.2528,-3.1718,-3.0678,-3.0107,-2.9779,0.0,0.0,0.0,0.0,0.0,0.0,0.0,0.0,0.0,0.0,0.0,0.0,0.0,0.0,0.0,0.0,0.0,0.0,0.0,0.0,0.0,0.0,0.0,0.0,0.0,0.0,0.0,0.0,0.0,0.0,0.0,0.0,0.0,0.0,0.0,0.0,0.0,0.0,0.0,0.0,0.386,0.5591,0.7205,0.0,0.0,0.0,0.0,0.0,0.0,0.0,0.0,0.0,0.0,0.0,0.0,0.0,0.0,0.0,0.0,0.0,0.0,0.0,0.0,0.0,0.0,0.0,0.0,0.0,0.0,0.0,0.0,0.0,0.0,0.0,0.0,0.0,0.0,0.0,-0.6147,-0.8571,-1.1761,-1.5593,-2.0299,-2.4632,-2.9209,-3.4228,-3.7659,-4.0848,-4.3973,-4.5335,-4.6088,-4.6134,-4.3835,-4.244,-4.2058,-4.0424,-3.9065,-3.7974,-3.8898,-3.9183,-3.8889,-3.9656,-3.9457,-3.8711,-3.9372,-3.95,-3.9233,-3.8837,-3.7717,-3.6352,-3.5767,-3.5224,-3.4666,-3.3583,-3.3088,-3.2735,0.0,0.0,0.0,0.0,0.0,0.0,0.0,0.0,0.0,0.0,0.0,0.0,0.0,0.0,0.0,0.0,0.0,0.0,0.0,0.0,0.0,0.0,0.0,0.0,0.0,0.0,0.0,0.0,0.0,0.0,0.0,0.0,0.0,0.0,0.0,0.0,0.0,0.0,0.0,0.0,0.0,0.0,0.455,0.0,0.0,0.0,0.0,0.0,0.0,0.0,0.0,0.0,0.0,0.0,0.0,0.0,0.0,0.0,0.0,0.0,0.0,0.0,0.0,0.0,0.0,0.0,0.0,0.0,0.0,0.0,0.0,0.0,0.0,0.0,0.0,0.0,-0.7093,-0.8014,-1.0161,-1.3336,-1.6524,-2.0023,-2.4056,-2.9108,-3.3581,-3.7137,-4.013,-4.3243,-4.6542,-4.8724,-4.971,-4.9368,-4.7689,-4.6391,-4.5566,-4.539,-4.3805,-4.0884,-4.3235,-4.3115,-4.0762,-4.1869,-4.2162,-4.1749,-4.1633,-4.1328,-4.0841,-4.0615,-4.0393,-4.0062,-3.8932,-3.8477,-3.8203,-3.7152,-3.629,-3.5254,0.0,0.0,0.0,0.0,0.0,0.0,0.0,0.0,0.0,0.0,0.0,0.0,0.0,0.0,0.0,0.0,0.0,0.0,0.0,0.0,0.0,0.0,0.0,0.0,0.0,0.0,0.0,0.0,0.0,0.0,0.0,0.0,0.0,0.0,0.0,0.0,0.0,0.0,0.0,0.0,0.0,0.0,0.3327,0.0,0.0,0.0,0.0,0.0,0.0,0.0,0.0,0.0,0.0,0.0,0.0,0.0,0.0,0.0,0.0,0.0,0.0,0.0,0.0,0.0,0.0,0.0,0.0,0.0,0.0,0.0,0.0,0.0,0.0,0.0,0.0,-1.2645,-0.9749,-1.2612,-1.5964,-1.8559,-2.1725,-2.5429,-2.9799,-3.1533,-3.4491,-3.9611,-4.2711,-4.529,-4.7386,-4.875,-4.9893,-5.0784,-4.8918,-4.759,-4.688,-4.6241,-4.521,-4.3829,-4.4244,-4.3986,-4.3144,-4.3756,-4.3494,-4.2568,-4.2918,-4.2791,-4.2335,-4.1972,-4.1972,-4.2028,-3.9929,-3.9044,-3.8965,-3.8262,-3.7816,-3.7344,0.0,0.0,0.0,0.0,0.0,0.0,0.0,0.0,0.0,0.0,0.0,0.0,0.0,0.0,0.0,0.0,0.0,0.0,0.0,0.0,0.0,0.0,0.0,0.0,0.0,0.0,0.0,0.0,0.0,0.0,0.0,0.0,0.0,0.0,0.0,0.0,0.0,0.0,0.0,0.0,0.0,0.0,0.1447,0.3594,0.5336,0.6867,0.8543,0.8798,0.8279,0.7726,0.0,0.0,0.0,0.0,0.0,0.0,0.0,0.0,0.0,0.0,0.0,0.0,0.0,0.0,0.0,0.0,0.0,0.0,0.0,0.0,0.0,0.0,0.0,0.0,-1.5874,-1.7515,-1.6427,-1.872,-2.1435,-2.3998,-2.7255,-3.0603,-3.389,-3.574,-3.8344,-4.2282,-4.5347,-4.7536,-4.8777,-4.9791,-5.0784,-5.1892,-5.0271,-4.9385,-4.9424,-4.8351,-4.7464,-4.6711,-4.6755,-4.6454,-4.5924,-4.6346,-4.599,0.0,-4.5335,-4.5179,-4.475,-4.4013,-4.3796,0.0,0.0,0.0,0.0,0.0,-3.9001,-3.8462,0.0,0.0,0.0,0.0,0.0,0.0,0.0,0.0,0.0,0.0,0.0,0.0,0.0,0.0,0.0,0.0,0.0,0.0,0.0,0.0,0.0,0.0,0.0,0.0,0.0,0.0,0.0,0.0,0.0,0.0,0.0,0.0,0.0,0.0,0.0,0.0,0.0,0.0,0.0,0.0,0.0,0.0,-0.077,0.1451,0.3296,0.4925,0.6809,0.753,0.7619,0.7684,0.0,0.0,0.0,0.0,0.0,0.0,0.0,0.0,0.0,0.0,0.0,0.0,0.0,0.0,0.0,0.0,0.0,0.0,0.0,0.0,0.0,0.0,0.0,0.0,-1.9673,-2.324,-2.4906,-2.5639,-2.6958,-2.9473,-3.2662,-3.5364,-3.7178,-4.0669,-4.3432,-4.5,-4.7893,-4.9822,-5.0435,0.0,0.0,0.0,0.0,-5.1515,-5.2318,-5.1131,-5.0177,-4.9507,-4.9908,-4.9595,-4.8721,-4.8954,-4.8809,-4.8364,-4.8083,-4.7738,-4.7256,-4.6289,-4.5555,-4.4936,-4.313,-4.2381,-4.2237,-4.1167,-4.002,-3.9131,0.0,0.0,0.0,0.0,0.0,0.0,0.0,0.0,0.0,0.0,0.0,0.0,0.0,0.0,0.0,0.0,0.0,0.0,0.0,0.0,0.0,0.0,0.0,0.0,0.0,0.0,0.0,0.0,0.0,0.0,0.0,0.0,0.0,0.0,0.0,0.0,0.0,0.0,0.0,0.0,0.0,0.0,-0.2658,0.009,0.206,0.3558,0.5026,0.5631,0.5748,0.5866,0.5338,0.4592,0.4396,0.0,0.0,0.0,0.0,0.0,0.0,0.0,0.0,0.0,0.0,0.0,0.0,0.0,0.0,0.0,0.0,0.0,0.0,0.0,0.0,-1.8064,-2.2309,-2.6404,-2.9155,-3.1876,-3.3813,-3.4411,-3.6226,-3.8606,-4.1614,-4.3262,-4.4931,-4.6812,-4.9765,-5.1472,-5.144,-5.2225,0.0,-5.3725,-5.3698,-5.3504,-5.3104,-5.315,-5.2772,-5.2017,0.0,0.0,-5.0733,-4.9816,-4.9203,-4.8791,-4.859,-4.8171,-4.761,-4.7102,-4.6397,-4.545,-4.3388,-4.2381,-4.2093,-4.1788,-4.1401,-4.1141,0.0,0.0,0.0,0.0,0.0,0.0,0.0,0.0,0.0,0.0,0.0,0.0,0.0,0.0,0.0,0.0,0.0,0.0,0.0,0.0,0.0,0.0,0.0,0.0,0.0,0.0,0.0,0.0,0.0,0.0,0.0,0.0,0.0,0.0,0.0,0.0,0.0,0.0,0.0,0.0,0.0,0.0,-0.5366,-0.2388,-0.0161,0.1594,0.318,0.3934,0.4237,0.4588,0.4382,0.3915,0.375,0.2783,0.1596,0.0,0.0,0.0,0.0,0.0,0.0,0.0,0.0,0.0,0.0,0.0,0.0,0.0,0.0,-1.3386,0.0,0.0,-1.931,-2.1833,-2.5937,-2.9644,-3.2022,-3.5051,-3.7067,-3.7103,-3.8605,-4.0604,-4.3049,-4.4649,-4.6246,-4.7962,-5.0106,-5.1651,-5.2243,-5.2671,-5.3455,-5.4668,-5.4553,-5.4489,-5.4657,-5.4597,-5.4337,-5.3936,-5.3518,-5.318,-5.2929,-5.2276,-5.1705,-5.1228,-5.0647,-5.0115,-4.9509,-4.8145,-4.6834,-4.5653,-4.4426,-4.3603,-4.3025,-4.3069,-4.2693,-4.2224,0.0,0.0,0.0,0.0,0.0,0.0,0.0,0.0,0.0,0.0,0.0,0.0,0.0,0.0,0.0,0.0,0.0,0.0,0.0,0.0,0.0,0.0,0.0,0.0,0.0,0.0,0.0,0.0,0.0,0.0,0.0,0.0,0.0,0.0,0.0,0.0,0.0,0.0,0.0,0.0,0.0,0.0,-0.7845,-0.4998,-0.2561,-0.0429,0.1302,0.2323,0.2905,0.3456,0.3526,0.3368,0.3152,0.2168,0.095,0.0183,-0.033,0.0,0.0,0.0,0.0,0.0,0.0,0.0,0.0,0.0,-0.3972,-0.3593,-1.0964,-1.8459,-2.1713,-2.2305,-2.3322,-2.6418,-2.9911,-3.2721,-3.4217,-3.688,-3.872,-3.8903,-4.0368,-4.2029,-4.3704,-4.5713,-4.7456,-4.8898,-5.0214,-5.162,-5.3062,-5.3151,-5.3866,-5.5579,-5.5197,-5.5382,-5.6247,-5.5855,-5.5668,-5.5668,-5.5522,-5.5243,-5.4855,-5.4525,-5.4114,-5.3546,-5.2478,-5.1742,-5.1095,-4.8959,-4.7368,-4.6212,-4.583,-4.5146,-4.4318,-4.4212,-4.3735,-4.3055,0.0,0.0,0.0,0.0,0.0,0.0,0.0,0.0,0.0,0.0,0.0,0.0,0.0,0.0,0.0,0.0,0.0,0.0,0.0,0.0,0.0,0.0,0.0,0.0,0.0,0.0,0.0,0.0,0.0,0.0,0.0,0.0,0.0,0.0,0.0,0.0,0.0,0.0,0.0,0.0,0.0,0.0,-0.8751,-0.6933,-0.4583,-0.2064,-0.06,0.0573,0.1542,0.2192,0.2234,0.2092,0.2443,0.1561,0.0095,-0.143,0.0,-0.1081,-0.0964,-0.0237,0.0676,0.1563,0.2569,0.3014,0.0,0.0,-0.6753,-1.1259,-1.6822,-2.124,-2.2558,-2.5388,-2.8526,-3.1567,-3.374,-3.5346,-3.6245,-3.8218,-3.9863,-4.0712,-4.1673,-4.3159,-4.5406,-4.6958,-4.8475,-4.9905,-5.1246,-5.2543,-5.4003,-5.3937,-5.4669,-5.6403,-5.6544,-5.6735,-5.7062,-5.7219,-5.7328,-5.7328,-5.6616,-5.6127,-5.5781,-5.4727,-5.4062,-5.3691,-5.207,-5.0858,-4.9887,-4.9178,-4.8505,-4.7849,-4.7375,-4.6533,-4.55,-4.4565,-4.4038,-4.3849,0.0,0.0,0.0,0.0,0.0,0.0,0.0,0.0,0.0,0.0,0.0,0.0,0.0,0.0,0.0,0.0,0.0,0.0,0.0,0.0,0.0,0.0,0.0,0.0,0.0,0.0,0.0,0.0,0.0,0.0,0.0,0.0,0.0,0.0,0.0,0.0,0.0,0.0,0.0,0.0,0.0,0.0,-0.8626,-0.7456,-0.578,-0.3764,-0.2008,-0.0536,0.0,0.0,0.1789,0.1799,0.1652,0.1108,0.0244,-0.0947,-0.1162,0.0,-0.1836,-0.1277,0.0,0.0,0.1395,0.2057,0.0183,-0.348,-0.7961,-1.3359,-2.0348,-2.5774,-2.6807,-2.8313,-3.0238,0.0,-3.4691,-3.6191,-3.737,-3.8733,-4.016,-4.1525,-4.2472,-4.3754,-4.57,-4.7083,-4.852,-5.0076,-5.1806,-5.3221,-5.4164,-5.4509,-5.5276,-5.6564,-5.6635,-5.6794,-5.7105,-5.7289,-5.7356,-5.7338,-5.7011,-5.6699,-5.6343,-5.5758,-5.4917,-5.3901,-5.2462,-5.1167,-4.9947,-4.9092,-4.842,-4.7836,-4.7354,-4.6682,-4.603,-4.5371,-4.4779,-4.4306,0.0,0.0,0.0,0.0,0.0,0.0,0.0,0.0,0.0,0.0,0.0,0.0,0.0,0.0,0.0,0.0,0.0,0.0,0.0,0.0,0.0,0.0,0.0,0.0,0.0,0.0,0.0,0.0,0.0,0.0,0.0,0.0,0.0,0.0,0.0,0.0,0.0,0.0,0.0,0.0,0.0,0.0,-0.8404,-0.751,-0.6355,-0.4975,-0.2985,-0.1271,0.0,0.0,0.166,0.1716,0.1316,0.0912,0.0493,-0.0107,-0.0684,-0.1259,-0.2184,0.0,0.0,-0.12,-0.006,0.0514,-0.1235,-0.7133,-1.3426,-1.7675,-2.334,-2.789,-2.8998,-2.9819,-3.0972,-3.285,-3.4783,-3.6536,-3.7855,-3.9091,-4.0357,-4.1864,-4.2923,-4.4145,-4.5645,-4.7204,-4.8738,-5.0137,-5.1961,-5.3347,-5.4215,-5.4668,-5.5384,-5.6564,-5.6653,-5.6794,-5.7036,-5.7206,-5.7257,-5.7188,-5.7138,-5.6933,-5.6546,-5.6199,-5.516,-5.3512,-5.2442,-5.1206,-4.9774,-4.8765,-4.8033,-4.7504,-4.6945,-4.64,-4.5817,-4.5347,-4.4887,-4.4329,0.0,0.0,0.0,0.0,0.0,0.0,0.0,0.0,0.0,0.0,0.0,0.0,0.0,0.0,0.0,0.0,0.0,0.0,0.0,0.0,0.0,0.0,0.0,0.0,0.0,0.0,0.0,0.0,0.0,0.0,0.0,0.0,0.0,0.0,0.0,0.0,0.0,0.0,0.0,0.0,0.0,0.0,-0.837,-0.7262,-0.6318,-0.5329,-0.3385,0.0,0.0,0.0,0.17,0.1794,0.1706,0.1212,0.0,0.0502,-0.0384,0.0,0.0,0.0,-0.1214,-0.1744,-0.144,-0.1231,-0.1989,-1.4202,-2.5689,-2.6988,-2.6311,-2.5879,-2.7142,-2.9395,-3.1338,-3.2109,-3.4461,-3.6588,-3.7737,-3.9337,-4.0782,-4.1796,-4.3136,-4.4421,0.0,-4.7634,-4.9337,-5.0302,-5.1483,-5.2803,-5.4299,-5.415,-5.4812,-5.6546,-5.6742,-5.6951,-5.7188,-5.7356,-5.7356,-5.7188,-5.7054,-5.6794,-5.6401,-5.5613,-5.4122,-5.2218,-5.1725,-5.0435,-4.8736,-4.8244,-4.7721,-4.7183,-4.6582,-4.5706,-4.4725,-4.3971,-4.3809,-4.3758,0.0,0.0,0.0,0.0,0.0,0.0,0.0,0.0,0.0,0.0,0.0,0.0,0.0,0.0,0.0,0.0,0.0,0.0,0.0,0.0,0.0,0.0,0.0,0.0,0.0,0.0,0.0,0.0,0.0,0.0,0.0,0.0,0.0,0.0,0.0,0.0,0.0,0.0,0.0,0.0,0.0,0.0,-0.653,-0.6199,-0.507,-0.3499,0.0,0.0,0.0,0.0,0.0,0.0,0.215,0.0,0.0,0.1543,0.0405,-0.091,-0.1347,0.0,-0.2124,-0.4575,-0.9834,-1.4305,-1.3905,-1.9455,-2.4997,-2.5923,-2.6503,-2.6936,-2.717,-2.8831,-3.0722,-3.2377,-3.4128,-3.6203,-3.8865,-3.9242,-3.9998,-4.2019,-4.3188,0.0,0.0,0.0,0.0,-5.0087,-5.1813,-5.3257,-5.4215,-5.5133,-5.5847,-5.6437,-5.701,-5.7191,-5.6812,-5.7369,-5.7369,-5.6794,-5.6365,-5.5901,-5.5455,-5.4817,-5.3765,-5.2409,-5.1403,-5.019,-4.8877,-4.7375,-4.6878,-4.6864,-4.5208,-4.4512,-4.4194,-4.2628,-4.1782,-4.1489,0.0,0.0,0.0,0.0,0.0,0.0,0.0,0.0,0.0,0.0,0.0,0.0,0.0,0.0,0.0,0.0,0.0,0.0,0.0,0.0,0.0,0.0,0.0,0.0,0.0,0.0,0.0,0.0,0.0,0.0,0.0,0.0,0.0,0.0,0.0,0.0,0.0,0.0,0.0,0.0,0.0,0.0,-0.4597,-0.4648,-0.3572,0.0,0.0,0.0,0.0,0.0,0.0,0.0,0.0,0.2795,0.2405,0.1969,0.0902,-0.031,-0.1022,-0.2145,-0.3774,-0.6357,-1.3692,-1.9994,-1.9118,-2.2161,-2.5241,-2.5559,-2.647,-2.7225,-2.7332,-2.8241,-2.9732,-3.207,-3.3506,-3.5451,-3.877,-3.9114,-3.9921,-4.2394,-4.3578,0.0,0.0,0.0,0.0,-4.9973,-5.2036,-5.3494,-5.4078,-5.5259,-5.5988,-5.6199,-5.7038,-5.713,-5.6455,-5.7278,-5.726,-5.6365,-5.5746,-5.5077,-5.4391,-5.3857,-5.2844,-5.1488,-5.0558,-4.9476,-4.8314,-4.6647,-4.6031,-4.5993,-4.4117,-4.331,-4.2958,-4.1431,-4.0367,-3.9829,0.0,0.0,0.0,0.0,0.0,0.0,0.0,0.0,0.0,0.0,0.0,0.0,0.0,0.0,0.0,0.0,0.0,0.0,0.0,0.0,0.0,0.0,0.0,0.0,0.0,0.0,0.0,0.0,0.0,0.0,0.0,0.0,0.0,0.0,0.0,0.0,0.0,0.0,0.0,0.0,0.0,0.0,-0.262,-0.2658,0.0,0.0,0.0,0.0,0.0,0.0,0.0,0.0,0.0,0.3897,0.299,0.1925,0.117,0.0456,-0.0723,-0.3334,-0.5958,-0.7158,-1.3038,-1.8406,-1.7775,-2.2437,-2.6718,-2.6078,-2.6252,-2.6706,0.0,0.0,-2.864,-3.1225,-3.2644,-3.4524,-3.7632,-3.893,-4.0471,0.0,0.0,0.0,0.0,0.0,0.0,-5.0019,0.0,-5.3426,-5.3974,-5.4634,-5.5251,-5.5883,-5.6794,-5.6905,-5.6141,-5.6947,-5.6872,-5.5844,-5.5217,-5.4408,-5.3294,-5.2772,-5.1423,-4.9555,-4.9177,-4.8296,-4.7069,-4.5982,-4.5229,-4.4567,-4.3245,-4.215,-4.1111,-4.0337,-3.9545,-3.8895,0.0,0.0,0.0,0.0,0.0,0.0,0.0,0.0,0.0,0.0,0.0,0.0,0.0,0.0,0.0,0.0,0.0,0.0,0.0,0.0,0.0,0.0,0.0,0.0,0.0,0.0,0.0,0.0,0.0,0.0,0.0,0.0,0.0,0.0,0.0,0.0,0.0,0.0,0.0,0.0,0.0,0.0,-0.0309,0.0,0.0,0.0,0.0,0.0,0.0,0.0,0.0,0.0,0.0,0.39,0.3269,0.2388,0.1536,0.0648,-0.068,-0.4037,-0.7442,-0.8568,-1.3894,-1.9034,-1.9793,-2.2773,-2.5367,-2.5087,-2.5869,-2.6358,0.0,0.0,0.0,-3.0514,-3.2582,0.0,-3.7515,-3.9178,0.0,-4.2722,0.0,-4.6351,-4.7035,-4.8952,0.0,0.0,-5.1433,-5.2618,-5.3816,-5.4325,-5.4991,-5.5746,-5.6447,-5.6423,-5.5666,-5.5665,-5.5391,-5.5018,-5.4477,-5.3635,-5.2382,-5.1967,-5.0743,-4.8961,-4.8502,-4.7472,-4.615,-4.4713,-4.4012,-4.3553,-4.1619,-4.0792,-4.0439,-3.915,-3.8207,-3.7409,0.0,0.0,0.0,0.0,0.0,0.0,0.0,0.0,0.0,0.0,0.0,0.0,0.0,0.0,0.0,0.0,0.0,0.0,0.0,0.0,0.0,0.0,0.0,0.0,0.0,0.0,0.0,0.0,0.0,0.0,0.0,0.0,0.0,0.0,0.0,0.0,0.0,0.0,0.0,0.0,0.0,0.0,0.0,0.0,0.0,0.0,0.0,0.0,0.0,0.0,0.0,0.5923,0.5004,0.428,0.3666,0.296,0.0,0.0198,-0.1151,-0.4365,-0.8034,-1.039,-1.5007,-1.9373,-2.0875,-2.3206,-2.4894,-2.421,-2.5189,0.0,0.0,0.0,0.0,0.0,0.0,0.0,-3.6769,-3.8573,-4.0515,0.0,-4.4443,0.0,-4.7571,-4.9048,-5.0165,0.0,-5.1729,-5.2606,-5.3419,-5.4102,-5.4705,-5.5242,-5.6046,-5.6178,-5.568,-5.4695,-5.4275,-5.4397,-5.3557,-5.2656,-5.1781,-5.1021,-4.9846,-4.8433,0.0,-4.6582,-4.533,-4.3905,-4.3013,-4.2271,-4.0416,-3.9424,-3.8974,-3.8277,-3.6997,-3.5562,0.0,0.0,0.0,0.0,0.0,0.0,0.0,0.0,0.0,0.0,0.0,0.0,0.0,0.0,0.0,0.0,0.0,0.0,0.0,0.0,0.0,0.0,0.0,0.0,0.0,0.0,0.0,0.0,0.0,0.0,0.0,0.0,0.0,0.0,0.0,0.0,0.0,0.0,0.0,0.0,0.0,0.0,0.0,0.0,0.0,0.0,0.0,0.0,0.0,0.0,0.7408,0.6766,0.5664,0.4805,0.41,0.3389,0.1595,-0.0534,-0.1983,-0.4834,-0.8348,-1.234,-1.6325,-1.9714,-2.1536,-2.3627,-2.4786,-2.3458,0.0,-2.5477,-2.5944,-2.6319,-2.7418,-2.9896,0.0,-3.2814,-3.5828,-3.7733,-3.9961,-4.3123,-4.396,-4.5449,-4.8426,-4.8985,-4.9725,-5.1122,-5.2127,-5.2732,-5.2944,-5.3572,-5.4056,-5.4319,-5.5171,-5.557,-5.5467,-5.3702,-5.319,-5.3849,-5.2421,-5.1546,-5.1204,-4.992,-4.8779,-4.7674,0.0,0.0,-4.4504,-4.3214,-4.2032,-4.0929,-3.9546,-3.8253,-3.7243,-3.7451,-3.6003,-3.3806,0.0,0.0,0.0,0.0,0.0,0.0,0.0,0.0,0.0,0.0,-0.42,0.0,0.0,0.0,0.0,0.0,0.0,0.0,0.0,0.0,0.0,0.0,0.0,0.0,0.0,0.0,0.0,0.0,0.0,0.0,0.0,0.0,0.0,0.0,0.0,0.0,0.0,0.0,0.0,0.0,0.0,0.0,0.0,0.0,0.0,0.0,0.0,0.0,0.0,0.0,0.7788,0.716,0.595,0.4994,0.4039,0.249,0.0989,-0.0688,-0.3134,-0.6457,-1.0098,-1.3855,-1.7729,-2.0996,-2.2542,-2.3733,0.0,0.0,0.0,-2.4164,-2.4365,-2.5615,0.0,-2.8892,0.0,0.0,0.0,0.0,-3.9887,0.0,0.0,0.0,0.0,0.0,0.0,0.0,0.0,-5.1473,-5.2172,-5.1974,-5.2042,-5.2458,-5.2506,-5.2758,-5.3147,-5.2068,-5.2063,-5.3093,-5.1173,-5.0043,-4.966,-4.8518,-4.7468,-4.6351,-4.5453,0.0,-4.3278,-4.2058,-4.097,-3.9919,-3.8929,-3.7884,-3.6728,-3.6087,-3.4826,-3.3301,0.0,0.0,0.0,0.0,0.0,0.0,0.0,0.0,0.0,0.0,-0.5043,-0.4776,0.0,0.0,0.0,0.0,0.0,0.0,0.0,0.0,0.0,0.0,0.0,0.0,0.0,0.0,0.0,0.0,0.0,0.0,0.0,0.0,0.0,0.0,0.0,0.0,0.0,0.0,0.0,0.0,0.0,0.0,0.0,0.0,0.0,0.0,0.0,0.0,0.0,0.0,0.7112,0.6664,0.5932,0.5123,0.4029,0.1898,0.012,-0.1977,-0.5679,-0.8677,-1.1668,-1.5814,-1.8983,-2.1435,-2.2876,0.0,0.0,0.0,-2.2916,-2.3836,-2.4114,0.0,0.0,0.0,0.0,0.0,0.0,0.0,0.0,0.0,0.0,0.0,0.0,0.0,0.0,0.0,0.0,-5.084,-5.1608,-5.1561,-5.1657,-5.1912,-5.1945,-5.2109,-5.2431,-5.136,-5.1229,-5.2041,-4.9994,-4.8996,-4.8981,-4.7766,-4.67,-4.5728,-4.4601,0.0,-4.2113,-4.1233,-4.0124,-3.9031,-3.8292,-3.7086,-3.5634,-3.4594,-3.3242,-3.1731,0.0,0.0,0.0,0.0,0.0,0.0,0.0,-0.6747,-0.6607,-0.6396,-0.6032,-0.5634,-0.5206,-0.4933,0.0,0.0,0.0,0.0,0.0,0.0,0.0,0.0,0.0,0.0,0.0,0.0,0.0,0.0,0.0,0.0,0.0,0.0,0.0,0.0,0.0,0.0,0.0,0.0,0.0,0.0,0.0,0.0,0.0,0.0,0.0,0.0,0.0,0.0,0.0,0.0,0.6252,0.5861,0.5319,0.4513,0.3346,0.1132,-0.1021,-0.3727,-0.8037,-1.083,-1.3601,-1.7931,-2.0426,-2.2154,-2.3229,-2.3014,0.0,0.0,-2.2505,-2.3506,-2.4191,0.0,0.0,0.0,0.0,0.0,0.0,0.0,0.0,0.0,0.0,0.0,0.0,0.0,0.0,0.0,0.0,0.0,-5.0904,-5.115,-5.1315,-5.1441,-5.142,-5.1529,-5.1865,-5.051,-5.0189,-5.0876,-4.8735,-4.7932,-4.8247,-4.6956,-4.5892,-4.4981,-4.3781,0.0,0.0,-4.0276,-3.9328,-3.8277,-3.7529,-3.6273,-3.4602,-3.3382,-3.1911,-3.038,0.0,0.0,0.0,0.0,0.0,0.0,0.0,-0.739,-0.6959,-0.6925,-0.6838,-0.6568,-0.6045,-0.5272,0.0,0.0,0.0,0.0,0.0,0.0,0.0,0.0,0.0,0.0,0.0,0.0,0.0,0.0,0.0,0.0,0.0,0.0,0.0,0.0,0.0,0.0,0.0,0.0,0.0,0.0,0.0,0.0,0.0,0.0,0.0,0.0,0.0,0.0,0.0,0.0,0.0,0.5287,0.367,0.2373,0.1108,-0.0315,0.0,0.0,-0.8926,-1.2557,-1.6218,-1.9998,-2.249,-2.4042,-2.4017,0.0,0.0,-2.1767,-2.1793,-2.2455,-2.4007,-2.4517,0.0,0.0,0.0,0.0,0.0,0.0,0.0,0.0,0.0,0.0,0.0,0.0,0.0,0.0,0.0,0.0,-4.9853,-4.9761,-4.9879,-5.0265,-4.9519,-4.9584,-5.056,-4.8862,-4.8458,-4.9453,-4.7268,-4.6405,-4.6642,-4.5578,-4.452,-4.3484,-4.2557,0.0,0.0,-3.921,-3.841,-3.7829,-3.6665,-3.544,-3.4183,-3.2993,-3.1635,-3.0279,0.0,0.0,0.0,0.0,0.0,0.0,0.0,-0.9194,-0.915,-0.8426,-0.8437,-0.8465,-0.8295,-0.7168,-0.6132,0.0,0.0,0.0,0.0,0.0,0.0,0.0,0.0,0.0,0.0,0.0,0.0,0.0,0.0,0.0,0.0,0.0,0.0,0.0,0.0,0.0,0.0,0.0,0.0,0.0,0.0,0.0,0.0,0.0,0.0,0.0,0.0,0.0,0.0,0.0,0.0,0.0,0.1624,-0.0,0.0,0.0,-0.4168,-0.7452,-1.0705,-1.3758,-1.7068,-2.1342,-2.2718,-2.3281,-2.4231,0.0,0.0,-2.2427,-2.2901,-2.3658,-2.476,-2.5509,-2.6453,0.0,0.0,0.0,0.0,0.0,0.0,0.0,0.0,0.0,0.0,0.0,0.0,0.0,0.0,0.0,-4.959,-4.9975,-4.992,-4.935,-4.9732,-4.9841,-4.9643,-4.8643,-4.8217,-4.835,-4.6781,-4.5886,-4.5488,-4.4847,-4.3761,-4.2273,-4.1686,0.0,0.0,-3.8194,-3.7488,-3.6892,-3.5831,-3.4766,-3.3826,-3.2591,-3.1368,-3.019,0.0,0.0,0.0,0.0,0.0,0.0,-1.0565,-1.0703,-1.0637,-1.0194,-0.9879,-0.9725,-0.9818,-0.8667,-0.7275,-0.5778,0.0,0.0,0.0,0.0,0.0,0.0,0.0,0.0,0.0,0.0,0.0,0.0,0.0,0.0,0.0,0.0,0.0,0.0,0.0,0.0,0.0,0.0,0.0,0.0,0.0,0.0,0.0,0.0,0.0,0.0,0.0,0.0,0.0,0.0,0.0,0.0,0.0,0.0,0.0,0.0,-0.5673,-0.917,-1.2041,-1.4961,-1.8081,-2.1924,-2.2759,-2.2949,0.0,0.0,0.0,-2.2625,-2.3418,-2.42,-2.4738,-2.5825,-2.6824,0.0,0.0,0.0,0.0,0.0,0.0,0.0,0.0,0.0,0.0,0.0,0.0,0.0,0.0,0.0,0.0,-5.0127,-5.0068,-4.906,-4.9704,-4.9726,-4.9027,-4.8374,-4.7761,-4.7268,-4.6199,-4.5395,-4.4723,-4.4189,-4.3091,-4.152,0.0,0.0,0.0,-3.752,-3.6816,-3.6222,-3.5046,-3.4016,-3.3186,-3.2021,-3.0996,-2.9947,0.0,0.0,0.0,0.0,0.0,0.0,0.0,-1.1616,-1.0803,-1.2188,-1.0923,-0.9944,-1.0083,-0.9319,-0.8476,-0.7734,0.0,0.0,0.0,0.0,0.0,0.0,0.0,0.0,0.0,0.0,0.0,0.0,0.0,0.0,0.0,0.0,0.0,0.0,0.0,0.0,0.0,0.0,0.0,0.0,0.0,0.0,0.0,0.0,0.0,0.0,0.0,0.0,0.0,0.0,0.0,0.0,0.0,0.0,0.0,0.0,-0.6926,-1.0379,-1.2762,-1.6206,-1.9653,-2.1616,-2.2898,-2.3648,0.0,0.0,0.0,-2.2027,-2.2748,-2.3435,-2.3527,-2.4885,-2.6182,-2.6706,0.0,0.0,0.0,0.0,0.0,0.0,0.0,0.0,0.0,0.0,0.0,0.0,0.0,0.0,0.0,-4.9988,-5.0067,-4.9588,-4.8885,-4.8594,-4.8791,-4.7525,-4.6738,-4.6301,-4.5379,-4.4723,-4.4281,-4.3645,-4.247,0.0,0.0,0.0,0.0,-3.7164,-3.6457,-3.5953,-3.4349,-3.3213,-3.2408,-3.136,-3.0432,-2.9626,0.0,0.0,0.0,0.0,0.0,0.0,0.0,-1.375,-1.3436,-1.2458,-1.2437,-1.2347,-1.1928,-1.1139,-1.0546,-1.0312,0.0,0.0,0.0,0.0,0.0,0.0,0.0,0.0,0.0,0.0,0.0,0.0,0.0,0.0,0.0,0.0,0.0,0.0,0.0,0.0,0.0,0.0,0.0,0.0,0.0,0.0,0.0,0.0,0.0,0.0,0.0,0.0,0.0,0.0,0.0,0.0,0.0,0.0,0.0,0.0,0.0,0.0,-1.3801,-1.6418,-1.887,-2.0975,-2.1722,-2.2116,-2.2564,0.0,0.0,-2.2832,-2.3625,-2.4211,-2.4245,-2.5606,-2.6764,-2.6741,-2.8168,0.0,0.0,0.0,0.0,0.0,0.0,0.0,0.0,0.0,0.0,0.0,0.0,0.0,0.0,-4.8396,-4.8754,-4.8818,-4.8909,-4.8514,-4.773,-4.7144,-4.6528,-4.5744,-4.5305,-4.4723,-4.405,-4.2959,0.0,0.0,0.0,0.0,0.0,-3.7253,-3.6439,-3.5586,-3.4548,-3.3526,-3.2545,-3.1535,-3.0709,-2.9935,0.0,0.0,0.0,0.0,0.0,0.0,0.0,-1.5121,-1.4928,-1.3465,-1.3572,-1.3639,-1.3229,-1.2448,-1.1953,-1.1992,0.0,0.0,0.0,0.0,0.0,0.0,0.0,0.0,0.0,0.0,0.0,0.0,0.0,0.0,0.0,0.0,0.0,0.0,0.0,0.0,0.0,0.0,0.0,0.0,0.0,0.0,0.1823,0.0,0.0,0.0,0.0,0.0,0.0,0.0,0.0,0.0,0.0,0.0,0.0,0.0,-1.0971,0.0,0.0,-1.6546,-1.8676,-2.0002,-2.0763,0.0,0.0,0.0,0.0,-2.2943,-2.3807,-2.4368,-2.4047,-2.5515,-2.6633,-2.606,-2.7862,0.0,0.0,0.0,0.0,0.0,0.0,0.0,0.0,0.0,0.0,0.0,0.0,0.0,0.0,-4.7251,-4.7484,-4.7646,-4.8329,-4.8182,-4.7183,-4.6961,-4.6388,-4.5468,-4.5173,-4.4524,-4.3593,-4.2551,0.0,0.0,0.0,0.0,0.0,-3.6979,-3.6243,-3.5522,-3.4283,-3.3264,-3.2331,-3.1468,-3.0709,-2.9935,0.0,0.0,0.0,0.0,0.0,0.0,0.0,0.0,0.0,0.0,-1.4377,-1.4025,-1.4087,-1.3317,-1.2852,0.0,0.0,0.0,0.0,0.0,0.0,0.0,0.0,0.0,0.0,0.0,0.0,0.0,-1.0272,-1.0281,-1.0273,0.0,0.0,0.0,0.0,0.0,0.0,0.0,0.0,0.0,0.0,0.0,0.0,0.0,0.0,0.0,0.0,0.0,0.0,0.0,0.0,0.0,0.0,0.0,0.0,0.0,0.0,0.0,0.0,-1.6758,0.0,0.0,0.0,0.0,0.0,0.0,0.0,0.0,0.0,-2.3946,-2.3204,-2.4843,-2.6016,-2.5197,-2.7485,0.0,0.0,0.0,0.0,0.0,0.0,0.0,0.0,0.0,0.0,0.0,0.0,0.0,0.0,-4.6591,-4.637,-4.6223,-4.7298,-4.7589,-4.7101,-4.6742,-4.6198,-4.5468,-4.4874,-4.4082,-4.2986,-4.2297,0.0,0.0,0.0,0.0,0.0,-3.6649,-3.6,-3.5625,-3.3803,-3.2731,-3.2055,-3.1272,-3.0508,-2.9626,0.0,0.0,0.0,0.0,0.0,0.0,0.0,0.0,0.0,0.0,0.0,-1.4915,-1.5,-1.4264,0.0,0.0,0.0,0.0,0.0,0.0,0.0,0.0,0.0,0.0,0.0,0.0,0.0,-1.0229,-1.0763,-1.1011,-1.0965,-1.1421,0.0,0.0,0.0,0.0,0.0,0.0,0.0,0.0,0.0,0.0,0.0,0.0,0.0,0.0,-0.3182,-0.4064,0.0,0.0,0.0,0.0,0.0,0.0,0.0,0.0,-1.4746,-1.6282,-1.6382,0.0,-1.8934,-1.879,-1.977,-2.0816,0.0,0.0,0.0,0.0,0.0,0.0,0.0,0.0,-2.6511,-2.7405,0.0,0.0,0.0,0.0,0.0,0.0,0.0,0.0,0.0,0.0,0.0,0.0,0.0,0.0,0.0,-4.5544,-4.5631,-4.547,-4.5893,-4.6094,-4.6118,-4.5794,-4.5524,-4.5278,-4.4964,-4.4233,-4.2971,-4.2001,0.0,0.0,0.0,0.0,-3.8383,-3.7389,-3.6489,-3.5682,-3.4583,-3.3392,-3.22,-3.1455,-3.0633,-2.9806,0.0,0.0,0.0,0.0,0.0,0.0,0.0,0.0,0.0,0.0,0.0,0.0,0.0,0.0,0.0,0.0,0.0,0.0,0.0,0.0,0.0,0.0,0.0,0.0,0.0,0.0,0.0,0.0,0.0,-1.0911,0.0,0.0,0.0,0.0,0.0,0.0,0.0,0.0,0.0,0.0,-0.1565,0.0,0.0,0.0,0.0,0.0,-0.5146,-0.6022,0.0,-0.7459,-0.823,-0.9087,0.0,0.0,0.0,0.0,-1.6255,-1.7526,-1.7162,-1.8017,-1.8992,-1.8801,-1.9807,-2.0861,-2.0889,0.0,0.0,0.0,0.0,0.0,0.0,0.0,0.0,0.0,0.0,0.0,0.0,0.0,0.0,0.0,0.0,0.0,0.0,0.0,0.0,0.0,0.0,0.0,0.0,-4.4666,-4.4747,-4.433,-4.4527,-4.5074,-4.5942,-4.5162,-4.4976,-4.5336,-4.4639,-4.3681,-4.253,-4.1776,-4.0771,0.0,0.0,0.0,-3.8472,-3.7637,-3.6765,-3.5812,-3.4724,-3.3589,-3.2273,-3.1394,-3.0558,-2.9716,0.0,0.0,0.0,0.0,0.0,0.0,0.0,0.0,0.0,0.0,0.0,0.0,0.0,0.0,0.0,0.0,0.0,0.0,0.0,0.0,0.0,0.0,0.0,0.0,0.0,0.0,0.0,0.0,0.0,0.0,0.0,0.0,0.0,0.0,0.0,0.0,0.0,0.0,0.0,0.0,-0.2727,0.0,0.0,0.0,0.0,0.0,0.0,0.0,0.0,-0.9014,-0.983,-1.0798,-1.231,0.0,0.0,0.0,0.0,0.0,-1.773,-1.8416,-1.9273,-1.9033,-2.0073,-2.1233,-2.1345,0.0,0.0,0.0,0.0,0.0,0.0,0.0,0.0,0.0,0.0,0.0,0.0,0.0,0.0,0.0,0.0,0.0,0.0,0.0,0.0,0.0,0.0,0.0,0.0,-4.3948,-4.3888,-4.3233,-4.3365,-4.4207,-4.5718,-4.4637,-4.4442,-4.5154,-4.4068,-4.3008,-4.1847,-4.1566,-4.0651,0.0,0.0,0.0,-3.8325,-3.7477,-3.6606,-3.5655,-3.4511,-3.3362,-3.2273,-3.1347,-3.0508,-2.9639,0.0,0.0,0.0,0.0,0.0,0.0,0.0,0.0,0.0,0.0,0.0,0.0,0.0,0.0,0.0,0.0,0.0,0.0,0.0,0.0,0.0,0.0,0.0,0.0,0.0,0.0,0.0,0.0,0.0,0.0,-1.1789,-1.2818,-1.2347,0.0,0.0,0.0,0.0,-0.4274,-0.3736,-0.3585,0.0,0.0,0.0,0.0,0.0,0.0,0.0,0.0,0.0,-1.0566,-1.1792,-1.3142,-1.4181,0.0,0.0,0.0,0.0,0.0,-1.9361,-1.9952,-2.0339,-1.9858,-2.0935,-2.2265,0.0,0.0,0.0,0.0,0.0,0.0,0.0,0.0,0.0,0.0,0.0,0.0,0.0,0.0,0.0,0.0,0.0,0.0,0.0,0.0,0.0,0.0,0.0,0.0,0.0,-4.3197,-4.3003,-4.3348,-4.3003,-4.319,-4.3988,-4.3669,-4.3607,-4.371,-4.3909,-4.2983,-4.1164,-4.1667,-4.0962,0.0,0.0,-3.8414,-3.7667,-3.6635,-3.564,-3.464,-3.3578,-3.2786,-3.2055,-3.1482,-3.0748,-2.9921,0.0,0.0,0.0,0.0,0.0,0.0,0.0,0.0,0.0,0.0,0.0,0.0,0.0,0.0,0.0,0.0,0.0,0.0,0.0,0.0,0.0,0.0,0.0,0.0,0.0,0.0,0.0,0.0,0.0,-1.223,-1.2387,-1.1996,-1.0916,-0.9214,0.0,0.0,0.0,-0.4408,-0.4083,-0.4004,0.0,0.0,0.0,0.0,0.0,0.0,0.0,0.0,0.0,0.0,-1.2982,-1.4405,-1.5319,0.0,0.0,0.0,0.0,0.0,-1.9317,-2.0368,-2.1334,-2.0575,-2.1799,-2.333,0.0,0.0,0.0,0.0,0.0,0.0,0.0,0.0,0.0,0.0,0.0,0.0,0.0,0.0,0.0,0.0,0.0,0.0,0.0,0.0,0.0,0.0,0.0,0.0,0.0,0.0,-4.2689,-4.2325,-4.2446,-4.2484,-4.2518,-4.2594,-4.3025,-4.3796,-4.3192,-4.2283,-4.1142,-4.1155,-4.0469,-3.9192,0.0,-3.8414,-3.8033,-3.6953,-3.6013,-3.5095,-3.3956,-3.2935,-3.1982,-3.1035,-3.0216,-2.9456,0.0,0.0,0.0,0.0,0.0,0.0,0.0,0.0,0.0,0.0,0.0,0.0,0.0,0.0,0.0,0.0,0.0,0.0,0.0,0.0,0.0,0.0,0.0,0.0,0.0,0.0,0.0,-1.2733,-1.2501,-1.2493,-1.2669,-1.1194,-0.9771,0.0,0.0,0.0,0.0,-0.4949,-0.4889,-0.4833,0.0,0.0,0.0,0.0,0.0,0.0,0.0,0.0,0.0,0.0,0.0,0.0,0.0,0.0,0.0,-1.9494,-1.9918,-1.9987,-1.9561,-2.0723,-2.1932,-2.1444,0.0,0.0,0.0,0.0,0.0,0.0,0.0,0.0,0.0,0.0,0.0,0.0,0.0,0.0,0.0,0.0,0.0,0.0,0.0,0.0,0.0,0.0,0.0,0.0,0.0,0.0,0.0,0.0,-4.2307,-4.1545,-4.1919,-4.189,-4.1531,-4.1642,-4.2337,-4.3419,-4.2385,-4.1588,-4.1026,-4.0616,-3.9949,-3.9177,-3.8664,-3.8354,-3.8164,-3.7096,-3.6184,-3.5323,-3.4181,-3.2987,-3.185,-3.0672,-2.9831,-2.9197,0.0,0.0,0.0,0.0,0.0,0.0,0.0,0.0,0.0,0.0,0.0,0.0,0.0,0.0,0.0,0.0,0.0,0.0,0.0,0.0,0.0,0.0,0.0,0.0,0.0,-1.4164,-1.3624,-1.3425,-1.3105,-1.2783,-1.2407,-1.1742,-1.0584,-0.9086,0.0,0.0,0.0,-0.6345,-0.6429,-0.6437,-0.6351,0.0,0.0,0.0,0.0,0.0,0.0,0.0,0.0,0.0,0.0,0.0,0.0,0.0,-1.8889,-2.0427,-2.0168,-1.9709,-2.1256,-2.1657,-2.1826,-2.2648,-2.3143,0.0,-2.6118,-2.6828,0.0,-2.9908,0.0,0.0,0.0,0.0,0.0,0.0,0.0,0.0,0.0,0.0,0.0,0.0,0.0,0.0,0.0,0.0,0.0,0.0,0.0,0.0,0.0,0.0,0.0,-4.1957,-4.1613,-4.1392,-4.1236,-4.1038,-4.1054,-4.123,-4.1948,-4.1588,-4.0307,-4.0535,-4.0169,-3.9352,-3.8752,-3.8105,-3.7273,-3.6301,-3.5309,-3.4239,-3.3165,-3.2327,-3.1535,-3.0924,-3.0203,-2.9626,0.0,0.0,0.0,0.0,0.0,0.0,0.0,0.0,0.0,0.0,0.0,0.0,0.0,0.0,0.0,0.0,0.0,0.0,0.0,0.0,0.0,0.0,0.0,-1.4931,-1.5108,-1.426,-1.3951,-1.4177,-1.3709,-1.2931,-1.1825,-1.1144,0.0,0.0,0.0,0.0,0.0,-0.6878,-0.6865,-0.6783,-0.6629,-0.7163,0.0,0.0,0.0,0.0,0.0,0.0,0.0,0.0,-1.6933,-1.7994,0.0,-1.8578,-1.9639,-2.0202,-2.0013,-1.9735,-2.0304,-2.1498,-2.2674,-2.3039,-2.4358,0.0,0.0,-2.835,-2.9882,-3.1353,0.0,0.0,0.0,0.0,0.0,0.0,0.0,0.0,0.0,0.0,0.0,0.0,0.0,0.0,0.0,0.0,0.0,0.0,0.0,0.0,0.0,0.0,0.0,-4.0776,-4.0948,-4.0912,-4.0612,-4.0836,-4.0965,-4.114,-4.1183,-4.0782,-4.0096,-4.0152,-3.9922,-3.9352,-3.8738,-3.831,-3.7929,-3.6519,-3.5669,-3.5008,-3.3248,-3.2141,-3.1569,-3.1061,-3.0381,-2.9754,0.0,0.0,0.0,0.0,0.0,0.0,0.0,0.0,0.0,0.0,0.0,0.0,0.0,0.0,0.0,0.0,0.0,0.0,0.0,0.0,0.0,0.0,0.0,-1.47,-1.4326,-1.3894,-1.3999,-1.4624,-1.39,-1.275,-1.1197,0.0,0.0,0.0,0.0,0.0,0.0,0.0,-0.7907,-0.8077,-0.7874,-0.8739,0.0,0.0,0.0,0.0,0.0,0.0,0.0,0.0,-1.7946,-1.8607,0.0,0.0,0.0,0.0,-2.0177,-1.9896,-2.0057,-2.1494,-2.3004,-2.3296,0.0,0.0,-2.8198,-2.9606,-3.1037,-3.2101,0.0,0.0,0.0,0.0,0.0,0.0,0.0,0.0,0.0,0.0,0.0,0.0,0.0,0.0,0.0,0.0,0.0,0.0,0.0,0.0,0.0,0.0,0.0,0.0,-4.0781,-4.0918,-4.0566,-4.0663,-4.0702,-4.0746,-4.0679,-4.0563,-4.0501,-4.014,-3.9824,-3.9553,-3.8605,-3.8223,-3.8121,-3.6389,-3.5468,-3.4853,-3.3251,-3.2273,-3.1716,-3.1272,-3.0609,-3.0011,0.0,0.0,0.0,0.0,0.0,0.0,0.0,0.0,0.0,0.0,0.0,0.0,0.0,0.0,0.0,0.0,0.0,0.0,0.0,0.0,0.0,0.0,0.0,-1.3553,-1.2613,-1.3115,-1.3802,-1.4679,-1.3545,-1.2173,-1.0603,-1.0884,0.0,0.0,0.0,0.0,0.0,0.0,-0.9843,-1.0685,-1.0496,-1.1394,-1.29,0.0,0.0,0.0,0.0,0.0,0.0,0.0,-1.8585,-1.806,0.0,0.0,0.0,-2.0947,-2.0727,-2.0181,-2.0971,-2.1808,-2.2628,0.0,0.0,0.0,-3.0088,-3.045,-3.0729,0.0,0.0,0.0,0.0,0.0,0.0,0.0,0.0,0.0,0.0,0.0,0.0,0.0,0.0,0.0,0.0,0.0,0.0,0.0,0.0,0.0,0.0,0.0,0.0,0.0,-4.113,-4.1328,-4.1192,-4.0563,-4.007,-3.985,-4.0529,-4.1164,-4.1573,-4.0615,-4.0091,-3.9895,-3.8292,-3.7652,-3.7462,-3.5809,-3.4355,-3.3326,-3.3072,-3.2646,-3.2096,-3.1495,-3.0898,-3.0368,0.0,0.0,0.0,0.0,0.0,0.0,0.0,0.0,0.0,0.0,0.0,0.0,0.0,0.0,0.0,0.0,0.0,0.0,0.0,0.0,0.0,0.0,0.0,0.0,0.0,0.0,-1.268,-1.3637,-1.3318,-1.2373,0.0,0.0,0.0,-1.0013,0.0,0.0,0.0,0.0,-1.0656,-1.0988,-1.1812,-1.3098,-1.4648,0.0,0.0,0.0,0.0,0.0,0.0,0.0,0.0,0.0,-1.9286,0.0,0.0,-2.0511,-2.0435,-2.0389,-2.1196,-2.242,0.0,-2.5244,0.0,0.0,0.0,-3.1094,0.0,0.0,0.0,0.0,0.0,0.0,0.0,0.0,0.0,0.0,0.0,0.0,0.0,0.0,0.0,0.0,0.0,0.0,0.0,0.0,0.0,0.0,0.0,0.0,0.0,0.0,-4.0412,-4.0787,-4.048,-4.0776,-4.0951,-4.107,-4.1584,-4.1321,-4.0498,-4.0751,-4.0662,-4.0316,-3.9272,-3.8555,-3.7777,-3.5724,-3.4425,-3.3675,-3.3002,-3.2632,-3.2286,-3.173,-3.1286,-3.0973,0.0,0.0,0.0,0.0,0.0,0.0,0.0,0.0,0.0,0.0,0.0,0.0,0.0,0.0,0.0,0.0,0.0,0.0,0.0,0.0,0.0,0.0,0.0,0.0,0.0,-1.1497,-1.1736,0.0,0.0,0.0,0.0,0.0,0.0,-1.0644,0.0,-1.0737,0.0,0.0,-1.1804,-1.2437,-1.3362,-1.4866,-1.6708,0.0,0.0,0.0,0.0,0.0,0.0,0.0,0.0,0.0,-1.9879,0.0,0.0,-2.0352,-2.0321,-2.0488,-2.1317,-2.2726,0.0,-2.6028,-2.8236,-3.0361,0.0,0.0,0.0,0.0,0.0,0.0,0.0,0.0,0.0,0.0,0.0,0.0,0.0,0.0,0.0,0.0,0.0,0.0,0.0,0.0,0.0,0.0,0.0,0.0,0.0,0.0,0.0,0.0,-4.0331,-4.0831,-4.0581,-4.1139,-4.1406,-4.1366,-4.1682,-4.1221,-4.014,-4.1071,-4.1241,-4.0646,-3.9536,-3.8396,-3.7248,-3.5787,-3.4704,-3.3937,-3.3297,-3.286,-3.2489,-3.2023,-3.1656,-3.1347,0.0,0.0,0.0,0.0,0.0,0.0,0.0,0.0,0.0,0.0,0.0,0.0,0.0,0.0,0.0,0.0,0.0,0.0,0.0,0.0,0.0,0.0,0.0,0.0,0.0,0.0,0.0,0.0,0.0,0.0,0.0,0.0,-1.0675,-1.1508,0.0,-1.1784,0.0,-1.226,-1.2965,-1.4296,-1.4909,-1.6519,-1.8691,-1.9786,0.0,0.0,0.0,0.0,0.0,0.0,0.0,0.0,-2.0501,-2.0453,-2.0395,-2.0415,-2.0311,-2.0418,-2.1443,0.0,0.0,-2.6197,-2.8541,0.0,0.0,0.0,0.0,0.0,0.0,0.0,0.0,0.0,0.0,0.0,0.0,0.0,0.0,0.0,0.0,0.0,0.0,0.0,0.0,0.0,0.0,0.0,0.0,0.0,0.0,0.0,0.0,-3.9197,-4.0601,-4.122,-4.1024,-4.1552,-4.1587,0.0,-4.1302,-4.1049,-4.0415,-4.1533,-4.169,-4.0956,-3.9237,-3.7674,-3.6305,-3.5869,-3.5063,-3.4059,-3.373,-3.3227,-3.2704,-3.2314,-3.195,-3.1629,0.0,0.0,0.0,0.0,0.0,0.0,0.0,0.0,0.0,0.0,0.0,0.0,0.0,0.0,0.0,0.0,0.0,0.0,0.0,0.0,0.0,0.0,0.0,0.0,0.0,0.0,0.0,0.0,0.0,0.0,0.0,0.0,0.0,-1.1463,0.0,-1.1046,-1.2239,-1.1939,-1.2261,-1.3169,-1.5434,-1.7122,-1.854,-2.0785,-2.1864,0.0,0.0,0.0,0.0,0.0,0.0,0.0,-2.0508,-2.0072,-1.9686,-2.0292,-1.9982,-1.9912,-2.2094,-2.2965,0.0,0.0,-2.9979,0.0,0.0,0.0,0.0,0.0,0.0,0.0,0.0,0.0,0.0,0.0,0.0,0.0,0.0,0.0,0.0,0.0,0.0,0.0,0.0,0.0,0.0,0.0,0.0,0.0,0.0,0.0,0.0,-3.7752,-3.9761,-4.0709,-4.0394,-4.1618,-4.2026,0.0,-4.1928,-4.1727,-4.11,-4.1314,-4.1116,-4.0547,-3.9512,-3.8357,-3.7127,-3.6221,-3.5239,-3.4278,-3.377,-3.3437,-3.31,-3.2458,-3.2228,-3.2128,0.0,0.0,0.0,0.0,0.0,0.0,0.0,0.0,0.0,0.0,0.0,0.0,0.0,0.0,0.0,0.0,0.0,0.0,0.0,0.0,0.0,0.0,0.0,0.0,0.0,0.0,0.0,0.0,0.0,0.0,0.0,0.0,0.0,-1.1372,0.0,-1.1237,-1.2474,-1.222,-1.3025,-1.457,-1.6366,-1.811,-1.9854,-2.1785,-2.2311,-2.2099,-2.263,0.0,0.0,0.0,0.0,0.0,0.0,0.0,-1.9954,-2.0412,-2.0202,-2.0201,-2.1951,0.0,0.0,-2.8252,0.0,0.0,0.0,0.0,0.0,0.0,0.0,0.0,0.0,0.0,0.0,0.0,0.0,0.0,0.0,0.0,0.0,0.0,0.0,0.0,0.0,0.0,0.0,0.0,0.0,0.0,0.0,-3.6552,-3.7267,-3.7434,-3.968,-4.0722,-4.0366,-4.1803,-4.2356,-4.1952,-4.1973,-4.1626,-4.0961,-4.1151,-4.0912,-4.0489,-4.0069,-3.9078,-3.7677,-3.6977,-3.5857,-3.4601,-3.4113,-3.3785,-3.3368,-3.2888,-3.266,-3.2489,0.0,0.0,0.0,0.0,0.0,0.0,0.0,0.0,0.0,0.0,0.0,0.0,0.0,0.0,0.0,0.0,0.0,0.0,0.0,0.0,0.0,0.0,0.0,0.0,0.0,0.0,0.0,0.0,0.0,0.0,0.0,0.0,0.0,-1.1258,0.0,0.0,-1.2767,-1.2583,-1.3902,-1.621,-1.7209,-1.8943,-2.1096,-2.2442,-2.2349,-2.164,-2.2734,-2.1858,-2.0411,-2.1894,0.0,0.0,0.0,0.0,-2.0293,-2.0527,-2.0442,-2.046,-2.1331,0.0,-2.5211,-2.8935,0.0,0.0,0.0,0.0,0.0,0.0,0.0,0.0,0.0,0.0,0.0,0.0,0.0,0.0,0.0,0.0,0.0,0.0,0.0,0.0,0.0,0.0,0.0,0.0,0.0,0.0,-3.5211,-3.5987,-3.6731,-3.7452,-3.9583,-4.0646,-4.0381,-4.1849,-4.2358,-4.1991,-4.1648,-4.1194,-4.0618,-4.1014,-4.0972,-4.0513,-4.0572,-3.9619,-3.8029,-3.7722,-3.6604,-3.4935,-3.4616,-3.4128,-3.3632,-3.3452,-3.3086,-3.2775,0.0,0.0,0.0,0.0,0.0,0.0,0.0,0.0,0.0,0.0,0.0,0.0,0.0,0.0,0.0,0.0,0.0,0.0,0.0,0.0,0.0,0.0,0.0,0.0,0.0,0.0,0.0,0.0,0.0,0.0,0.0,0.0,0.0,-1.107,0.0,0.0,0.0,-1.2255,-1.3234,-1.5182,-1.7221,-1.8785,-2.0101,-2.2014,-2.257,-2.2305,-2.2096,-2.1511,-2.0828,-2.0488,-2.0318,0.0,0.0,0.0,-1.9448,-2.0274,-1.9977,-1.9551,0.0,0.0,-2.4782,0.0,0.0,0.0,0.0,0.0,0.0,0.0,0.0,0.0,0.0,0.0,0.0,0.0,0.0,0.0,0.0,0.0,0.0,0.0,0.0,0.0,0.0,0.0,0.0,0.0,0.0,0.0,-3.3631,-3.4405,-3.5445,-3.6868,-3.8451,-3.9515,-3.9969,-4.1391,-4.1868,-4.1489,-4.1323,-4.0982,-4.0508,-4.1028,-4.107,-4.0753,-4.0923,-4.0039,-3.8396,-3.8095,-3.6923,-3.5374,-3.4831,-3.4414,-3.3991,-3.3675,-3.3396,-3.3171,0.0,0.0,0.0,0.0,0.0,0.0,0.0,0.0,0.0,0.0,0.0,0.0,0.0,0.0,0.0,0.0,0.0,0.0,0.0,0.0,0.0,0.0,-1.402,0.0,0.0,0.0,0.0,0.0,0.0,0.0,0.0,-1.1952,-1.1572,0.0,0.0,0.0,0.0,0.0,-1.4087,-1.5948,-1.7401,-1.9867,-2.2652,-2.2695,-2.3305,-2.3914,-2.2316,-2.1374,-2.0862,-2.0725,-2.0441,-2.0254,-2.0875,0.0,0.0,0.0,-1.9848,0.0,-2.0996,-2.2766,-2.464,0.0,0.0,0.0,0.0,0.0,0.0,0.0,0.0,0.0,0.0,0.0,0.0,0.0,0.0,0.0,0.0,0.0,0.0,0.0,0.0,0.0,0.0,0.0,0.0,0.0,0.0,-3.0827,-3.1996,-3.3684,-3.5098,-3.6136,-3.8069,-3.9357,-4.0025,-4.0921,-4.1325,-4.1228,-4.0891,-4.07,-4.0583,-4.0785,-4.0721,-4.0603,-4.113,-4.0275,-3.8462,-3.833,-3.7238,-3.5589,-3.5148,-3.475,-3.4414,-3.4005,-3.3799,-3.3605,0.0,0.0,0.0,0.0,0.0,0.0,0.0,0.0,0.0,0.0,0.0,0.0,0.0,0.0,0.0,0.0,0.0,0.0,0.0,0.0,0.0,-1.5778,-1.4891,-1.4027,-1.3155,0.0,0.0,0.0,0.0,0.0,-1.3712,-1.4235,-1.3718,0.0,-1.3007,0.0,0.0,0.0,0.0,0.0,-1.8601,-2.1507,-2.5037,0.0,0.0,-2.5872,-2.356,-2.2346,-2.1775,-2.1311,-2.0811,-2.0506,-2.107,-2.0688,0.0,0.0,0.0,0.0,0.0,0.0,0.0,0.0,0.0,0.0,0.0,0.0,0.0,0.0,0.0,0.0,0.0,0.0,0.0,0.0,0.0,0.0,0.0,0.0,0.0,0.0,0.0,0.0,0.0,0.0,0.0,0.0,0.0,-2.9529,-3.0603,-3.2635,-3.4306,-3.5394,-3.7268,-3.8674,-3.9531,-4.0198,-4.0672,-4.0885,-4.0577,-4.0463,-4.0418,-4.0559,-4.0525,-4.0329,-4.1103,-4.0381,-3.8673,-3.8542,-3.751,-3.5993,-3.5469,-3.503,-3.4631,-3.4346,-3.4142,-3.3951,0.0,0.0,0.0,0.0,0.0,0.0,0.0,0.0,0.0,0.0,0.0,0.0,0.0,0.0,0.0,-2.1773,0.0,0.0,0.0,0.0,0.0,-1.6701,-1.5799,0.0,-1.405,0.0,0.0,0.0,0.0,0.0,-1.3743,-1.61,-1.6771,-1.5964,-1.483,-1.4658,-1.5228,0.0,0.0,0.0,-2.1464,-2.3631,-2.5626,0.0,0.0,0.0,0.0,-2.5194,-2.4301,-2.1853,-2.1114,-2.1117,-2.0478,-1.9719,-1.9084,0.0,0.0,0.0,0.0,0.0,0.0,0.0,0.0,0.0,0.0,0.0,0.0,0.0,0.0,0.0,0.0,0.0,0.0,0.0,0.0,0.0,0.0,0.0,0.0,0.0,0.0,0.0,0.0,0.0,0.0,0.0,0.0,-2.7848,-2.9682,-3.0734,-3.2316,-3.4599,-3.5518,-3.6633,-3.8015,-3.9116,-3.9873,-4.0253,-4.0557,-4.0428,-3.9974,-4.0729,-4.0679,-4.0024,-4.0633,-4.023,-3.9234,-3.8738,-3.7851,-3.6854,-3.5859,-3.5162,-3.4698,-3.4698,-3.4414,-3.4059,0.0,0.0,0.0,0.0,0.0,0.0,0.0,0.0,0.0,0.0,0.0,0.0,0.0,-2.4213,-2.3766,-2.345,-2.2146,0.0,0.0,0.0,0.0,-1.7589,-1.7182,-1.6606,-1.5721,0.0,0.0,0.0,0.0,-1.6728,-1.6986,-1.7934,-1.8809,-1.9541,-1.7411,-1.6675,-1.7096,-1.7409,0.0,0.0,-2.2823,-2.5919,-2.9347,0.0,0.0,0.0,0.0,0.0,0.0,-2.4143,-2.324,-2.2673,-2.1369,-2.0811,-2.0512,-2.0061,-1.8757,0.0,0.0,0.0,0.0,0.0,0.0,0.0,0.0,0.0,0.0,0.0,0.0,0.0,0.0,0.0,0.0,0.0,0.0,0.0,0.0,0.0,0.0,0.0,0.0,0.0,0.0,0.0,0.0,0.0,0.0,0.0,-2.7755,-2.9345,-3.1337,-3.3823,-3.4623,-3.588,-3.7674,-3.8111,-3.8674,-3.9408,-3.9432,-3.9611,-3.9943,-3.987,-3.9715,-3.9669,-4.0414,-4.0192,-3.925,-3.8976,-3.8154,-3.6899,-3.6023,-3.5379,-3.503,-3.4883,-3.4735,-3.4587,0.0,0.0,0.0,0.0,0.0,0.0,0.0,0.0,0.0,0.0,0.0,0.0,0.0,0.0,-2.4269,-2.4,-2.2902,-2.187,-2.0981,-2.0383,-1.9564,-1.8448,-1.8367,-1.7925,0.0,0.0,0.0,0.0,0.0,0.0,0.0,-1.9177,-1.9975,-2.1026,-1.9407,-1.9008,0.0,0.0,0.0,-2.2836,0.0,-2.8248,-3.1789,0.0,0.0,0.0,0.0,0.0,0.0,0.0,0.0,0.0,-2.2439,-2.1309,-2.057,-2.0088,0.0,0.0,-1.8576,0.0,0.0,0.0,0.0,0.0,0.0,0.0,0.0,0.0,0.0,0.0,0.0,0.0,0.0,0.0,0.0,0.0,0.0,0.0,0.0,0.0,0.0,0.0,0.0,0.0,0.0,0.0,0.0,0.0,-2.6282,-2.8203,-3.0584,-3.3449,-3.4496,-3.5778,-3.7303,-3.7516,-3.7986,-3.8794,-3.8797,-3.9102,-3.9722,-3.9392,-3.9343,-3.9554,-4.0123,-4.0031,-3.9424,-3.9233,-3.8487,-3.7399,-3.6277,-3.5623,-3.5323,-3.5436,-3.5311,-3.503,0.0,0.0,0.0,0.0,0.0,0.0,0.0,0.0,0.0,0.0,0.0,0.0,0.0,0.0,0.0,-2.3248,-2.3151,-2.2762,-2.1885,-2.1805,-2.1023,-1.9313,0.0,0.0,0.0,0.0,0.0,0.0,0.0,0.0,0.0,0.0,-2.0258,-2.036,-2.0736,-2.1502,-2.2471,0.0,-2.2699,-2.4706,0.0,-3.0559,-3.2651,0.0,0.0,0.0,-3.4691,-3.3467,0.0,-2.8673,0.0,0.0,0.0,0.0,0.0,0.0,0.0,0.0,0.0,0.0,0.0,0.0,0.0,0.0,0.0,0.0,0.0,0.0,0.0,0.0,0.0,0.0,0.0,0.0,0.0,0.0,0.0,0.0,0.0,0.0,0.0,0.0,0.0,0.0,0.0,0.0,0.0,-2.4958,-2.537,-2.7344,-3.0036,-3.3469,-3.5049,-3.6156,-3.6783,-3.7303,-3.7831,-3.8401,-3.8725,-3.8975,-3.9168,-3.9364,-3.9572,-3.9694,-3.9781,-3.9784,-3.9642,-3.9377,-3.8996,-3.8308,-3.6809,-3.594,-3.5674,-3.6375,-3.6079,-3.5332,0.0,0.0,0.0,0.0,0.0,0.0,0.0,0.0,0.0,0.0,0.0,0.0,0.0,0.0,0.0,-2.4934,-2.4326,-2.3601,-2.2741,-2.2119,-2.1301,-2.018,-2.0085,0.0,0.0,0.0,0.0,0.0,0.0,0.0,0.0,0.0,0.0,0.0,-2.1278,-2.1722,-2.2509,-2.2476,0.0,0.0,-2.7751,-3.0893,0.0,0.0,0.0,0.0,0.0,-3.5126,-3.3933,0.0,-2.9794,-2.8504,0.0,0.0,0.0,0.0,0.0,0.0,-1.731,0.0,0.0,0.0,0.0,0.0,0.0,0.0,0.0,0.0,0.0,0.0,0.0,0.0,0.0,0.0,0.0,0.0,0.0,0.0,0.0,0.0,0.0,0.0,0.0,0.0,0.0,0.0,-2.399,-2.4492,-2.495,-2.839,-3.1087,-3.2692,-3.4263,-3.5644,-3.6783,-3.6853,-3.7395,-3.8382,-3.8321,-3.8382,-3.8624,-3.8851,-3.9025,-3.9277,-3.9914,-3.9968,-3.9591,-3.9471,-3.8769,-3.7738,-3.7287,-3.6926,-3.6557,-3.618,-3.6225,-3.6441,0.0,0.0,0.0,0.0,0.0,0.0,0.0,0.0,0.0,0.0,0.0,0.0,0.0,0.0,0.0,-2.5634,-2.5104,-2.4447,-2.3592,-2.2756,-2.1919,-2.1051,-2.0638,-2.0589,0.0,0.0,0.0,0.0,0.0,0.0,0.0,0.0,0.0,0.0,0.0,0.0,0.0,0.0,0.0,0.0,-2.8882,0.0,0.0,-3.6479,-3.7771,0.0,0.0,0.0,-3.5257,-3.2783,-3.0494,0.0,0.0,0.0,0.0,0.0,0.0,0.0,0.0,0.0,0.0,0.0,0.0,0.0,-1.7727,-1.7624,0.0,0.0,0.0,0.0,0.0,0.0,0.0,0.0,0.0,0.0,0.0,0.0,0.0,0.0,0.0,0.0,0.0,0.0,0.0,-2.3017,-2.3682,-2.461,-2.5658,-2.9192,-3.1569,-3.2458,-3.4017,-3.5503,-3.6863,-3.6708,-3.7258,-3.8572,-3.8186,-3.8008,-3.8046,-3.8238,-3.8481,-3.8741,-3.9309,-3.9297,-3.886,-3.9256,-3.9,-3.8261,-3.7774,-3.7628,-3.7698,-3.7344,-3.7253,-3.7323,0.0,0.0,0.0,0.0,0.0,0.0,0.0,0.0,0.0,0.0,0.0,0.0,0.0,0.0,0.0,0.0,-2.5599,-2.5156,-2.4352,-2.3567,-2.274,-2.188,-2.1064,-2.0953,-2.1659,0.0,0.0,0.0,0.0,0.0,0.0,0.0,0.0,0.0,0.0,0.0,0.0,0.0,0.0,-2.5272,-3.0245,-3.3114,0.0,0.0,-3.9827,0.0,-3.8228,-3.7302,-3.6131,-3.3585,-2.9986,0.0,0.0,0.0,0.0,0.0,-2.0503,0.0,0.0,0.0,0.0,0.0,0.0,0.0,-1.7632,-1.7165,-1.6797,0.0,0.0,0.0,0.0,0.0,0.0,0.0,0.0,0.0,0.0,0.0,0.0,0.0,0.0,0.0,0.0,-2.3342,-2.3238,-2.2147,-2.3336,-2.49,-2.6746,-2.9604,-3.1591,-3.258,-3.4092,-3.5528,-3.6873,-3.6696,-3.7294,-3.8656,-3.8198,-3.7845,-3.7612,-3.7777,-3.7949,-3.8128,-3.8419,-3.8233,-3.7855,-3.8918,-3.9317,-3.9218,-3.8185,-3.8197,-3.8818,-3.9056,-3.8758,-3.8265,0.0,0.0,0.0,0.0,0.0,0.0,0.0,0.0,0.0,0.0,0.0,0.0,0.0,0.0,0.0,0.0,0.0,-2.5156,-2.4347,-2.4096,-2.3592,-2.2701,-2.1836,-2.1422,-2.1536,-2.0738,0.0,0.0,0.0,0.0,0.0,0.0,0.0,0.0,0.0,0.0,0.0,0.0,0.0,-2.5332,-2.78,0.0,-3.6446,-3.725,-3.8286,-3.9171,-3.8286,-3.7371,-3.6201,0.0,-3.0106,-2.6543,0.0,0.0,0.0,0.0,0.0,0.0,0.0,0.0,0.0,0.0,0.0,0.0,-1.7067,-1.6803,-1.6717,0.0,0.0,0.0,0.0,0.0,0.0,0.0,0.0,0.0,0.0,0.0,0.0,0.0,0.0,0.0,0.0,-2.289,-2.305,-2.2036,-2.2832,-2.4139,-2.5867,-2.8682,-3.1016,-3.2638,-3.4054,-3.5224,-3.6114,-3.6428,-3.6953,-3.7679,-3.7958,-3.7915,-3.7612,-3.7919,-3.7892,-3.7776,-3.8472,-3.8623,-3.8351,-3.8641,-3.8479,-3.8086,-3.8273,-3.845,-3.8591,-3.8997,-3.9501,-4.0016,0.0,0.0,0.0,0.0,0.0,0.0,0.0,0.0,0.0,0.0,0.0,0.0,0.0,0.0,0.0,0.0,0.0,0.0,0.0,0.0,-2.3798,-2.2883,-2.204,-2.1796,-2.2188,-2.0983,0.0,0.0,0.0,0.0,0.0,0.0,0.0,0.0,0.0,0.0,0.0,0.0,-2.3774,-2.6721,-2.934,0.0,-3.6488,-3.8152,-3.9062,-3.9328,-3.8382,-3.6645,-3.4614,-3.3365,-3.0171,0.0,0.0,-2.5031,-2.2759,0.0,-2.1462,-2.1425,0.0,0.0,0.0,-1.8865,0.0,0.0,0.0,-1.6907,-1.6896,0.0,0.0,0.0,0.0,0.0,0.0,0.0,0.0,0.0,0.0,0.0,0.0,0.0,0.0,0.0,0.0,-2.164,-2.1871,-2.1418,-2.2795,-2.423,-2.557,-2.8831,-3.1279,-3.2653,-3.4054,-3.5128,-3.5803,-3.6285,-3.7026,-3.8034,-3.8085,-3.7897,-3.7594,-3.7591,-3.7376,-3.6997,-3.7638,-3.7879,-3.7903,-3.822,-3.8258,-3.8171,-3.842,-3.8714,-3.9094,-3.9812,-4.0033,-4.0029,0.0,0.0,0.0,0.0,0.0,0.0,0.0,0.0,0.0,0.0,0.0,0.0,0.0,0.0,0.0,0.0,0.0,0.0,0.0,0.0,0.0,-2.3369,-2.2531,-2.2332,-2.2861,-2.139,-2.119,0.0,0.0,0.0,0.0,0.0,0.0,0.0,0.0,0.0,0.0,0.0,0.0,-2.8606,0.0,-3.3903,-3.5572,-3.9004,-3.9702,-3.8722,-3.7735,-3.55,-3.2952,-3.2629,0.0,-2.7038,-2.7414,-2.5695,0.0,0.0,0.0,0.0,0.0,0.0,0.0,0.0,0.0,-1.8858,0.0,0.0,0.0,-1.709,0.0,0.0,0.0,0.0,0.0,0.0,0.0,0.0,0.0,0.0,0.0,0.0,0.0,0.0,0.0,-2.0032,-2.0329,-2.0626,-2.2248,-2.3843,-2.5273,-2.8812,-3.1375,-3.2638,-3.4054,-3.4992,-3.5469,-3.5948,-3.6785,-3.7979,-3.7921,-3.7697,-3.7327,-3.719,-3.686,-3.6374,-3.6789,-3.7013,-3.7136,-3.7834,-3.8196,-3.8374,-3.8435,-3.8756,-3.925,-4.0016,-3.9741,-3.9017,-2.5693,-2.5697,0.0,0.0,0.0,0.0,0.0,0.0,0.0,0.0,0.0,0.0,0.0,0.0,0.0,0.0,0.0,0.0,-2.787,0.0,0.0,0.0,-2.4316,-2.3504,-2.284,-2.1859,-2.1095,0.0,0.0,0.0,0.0,0.0,0.0,0.0,-2.1578,0.0,0.0,0.0,-2.6381,0.0,-3.2404,-3.3267,0.0,-3.7259,-3.7579,-3.6038,-3.5145,-3.4047,-3.2786,0.0,-2.9574,-2.7696,0.0,-2.565,-2.4999,0.0,0.0,0.0,0.0,0.0,0.0,0.0,-2.035,0.0,0.0,0.0,-1.8255,-1.7005,0.0,0.0,0.0,0.0,0.0,0.0,0.0,0.0,0.0,0.0,0.0,0.0,0.0,0.0,0.0,0.0,-1.8778,-1.9671,-1.9918,-2.1311,-2.429,-2.733,-3.011,-3.2515,-3.398,-3.4687,-3.4626,-3.515,-3.5404,-3.5363,-3.6607,-3.6934,-3.6381,-3.7,-3.7009,-3.6568,-3.7042,-3.7064,-3.6831,-3.7669,-3.784,-3.7666,-3.8028,-3.8078,-3.7971,-3.7663,-3.7235,-3.6923,-2.569,-2.5701,0.0,0.0,0.0,0.0,0.0,0.0,0.0,0.0,0.0,0.0,0.0,0.0,0.0,0.0,0.0,-3.0394,0.0,0.0,0.0,0.0,0.0,0.0,-2.363,-2.2211,-2.1325,-2.0949,-2.0472,0.0,0.0,0.0,0.0,0.0,-2.1623,0.0,-2.4974,0.0,0.0,0.0,0.0,0.0,0.0,-3.7225,-3.7722,-3.5639,-3.473,-3.3499,-3.2115,0.0,-2.9133,0.0,0.0,0.0,0.0,0.0,0.0,0.0,0.0,0.0,0.0,0.0,0.0,0.0,-2.0117,0.0,-1.9687,0.0,0.0,0.0,0.0,0.0,0.0,0.0,0.0,0.0,0.0,0.0,0.0,0.0,0.0,0.0,0.0,0.0,0.0,0.0,0.0,-2.0271,-2.2547,-2.6013,-2.8878,-3.0972,-3.294,-3.3872,-3.3691,-3.4633,-3.5037,-3.4856,-3.5823,-3.632,-3.6321,-3.6523,-3.6257,-3.5727,-3.6412,-3.6693,-3.6632,-3.7227,-3.7535,-3.7682,-3.828,-3.8197,-3.7716,-3.7449,-3.7105,-3.6878,-2.6048,0.0,0.0,0.0,0.0,0.0,0.0,0.0,0.0,0.0,0.0,0.0,-3.5596,-3.5386,0.0,0.0,-3.3736,-3.248,0.0,0.0,-2.9167,0.0,0.0,0.0,0.0,0.0,-2.2337,-2.1856,0.0,0.0,0.0,0.0,0.0,0.0,0.0,-2.3436,-2.5853,0.0,0.0,-2.9555,-3.0098,-3.1185,-3.2882,-3.6545,-3.7047,-3.5618,-3.4206,-3.289,-3.1623,-3.0289,-2.8686,0.0,-2.6885,0.0,0.0,0.0,0.0,0.0,-2.0748,0.0,0.0,0.0,0.0,0.0,0.0,0.0,0.0,0.0,0.0,0.0,0.0,0.0,0.0,0.0,0.0,0.0,0.0,0.0,0.0,0.0,0.0,0.0,0.0,0.0,0.0,-1.6818,-1.7609,-1.9184,-2.1695,-2.5078,-2.7808,-2.9746,-3.1883,-3.2882,-3.2651,-3.3766,-3.4247,-3.4113,-3.4969,-3.5425,-3.5511,-3.5954,-3.5713,-3.4961,-3.5925,-3.6388,-3.6409,-3.6485,-3.6787,-3.7252,-3.8056,-3.801,-3.7504,-3.7519,-3.7301,-3.7047,-2.6939,-2.632,0.0,0.0,0.0,0.0,0.0,0.0,0.0,0.0,0.0,0.0,0.0,0.0,0.0,0.0,0.0,-3.5391,-3.4484,0.0,-3.0362,0.0,0.0,-2.7231,0.0,0.0,0.0,0.0,0.0,0.0,0.0,0.0,0.0,0.0,0.0,-2.4277,-2.6683,-2.6706,-2.9159,-3.3028,-3.3133,-3.4698,-3.674,0.0,-3.4466,-3.546,-3.2895,0.0,0.0,-2.9031,-2.8126,0.0,0.0,0.0,0.0,0.0,0.0,0.0,0.0,0.0,0.0,-2.039,0.0,0.0,0.0,0.0,-2.1699,0.0,0.0,0.0,0.0,0.0,0.0,0.0,0.0,0.0,0.0,0.0,0.0,0.0,0.0,0.0,0.0,0.0,0.0,-1.6979,-1.6151,-1.7622,-2.2411,-2.4631,-2.6949,-2.9533,-3.1141,-3.1831,-3.1544,-3.2247,-3.2484,-3.2288,-3.3882,-3.4137,-3.3273,-3.535,-3.5663,-3.4675,-3.5972,-3.6337,-3.6055,-3.545,-3.5459,-3.5926,-3.6901,-3.7128,-3.6949,-3.7345,-3.7301,-3.6954,0.0,0.0,0.0,0.0,0.0,0.0,0.0,-3.0607,0.0,0.0,0.0,0.0,0.0,0.0,-3.8246,0.0,0.0,-3.6399,-3.5576,-3.4179,0.0,0.0,0.0,-2.9347,0.0,0.0,0.0,0.0,0.0,0.0,0.0,0.0,0.0,0.0,0.0,-2.4773,0.0,0.0,0.0,0.0,0.0,-3.4528,-3.6234,0.0,0.0,-3.3957,-3.2435,-3.1529,0.0,-2.8764,-2.8139,-2.7863,-2.6172,-2.5271,-2.4633,-2.3621,-2.3174,0.0,0.0,0.0,-2.1088,-2.0545,0.0,0.0,0.0,0.0,0.0,0.0,0.0,0.0,0.0,0.0,0.0,0.0,0.0,0.0,0.0,0.0,0.0,0.0,0.0,0.0,0.0,0.0,0.0,-1.5217,-1.5222,-1.6789,-2.0584,-2.2685,-2.4968,-2.7525,-2.9254,-3.028,-3.0643,-3.1814,-3.2375,-3.2216,-3.3148,-3.3409,-3.3062,-3.4143,-3.4376,-3.3945,-3.5257,-3.5611,-3.5205,-3.5487,-3.5726,-3.5877,-3.5346,-3.5946,-3.7182,-3.762,-3.7524,-3.7152,-2.5929,0.0,0.0,0.0,0.0,0.0,0.0,0.0,0.0,0.0,-3.7498,0.0,-3.9779,0.0,-3.9112,0.0,-3.8843,-3.7756,-3.6944,-3.5773,0.0,-3.3906,-3.2495,0.0,0.0,0.0,0.0,0.0,0.0,-2.3621,0.0,0.0,0.0,0.0,0.0,0.0,0.0,0.0,-2.855,0.0,0.0,-3.3988,0.0,0.0,-3.4011,-3.3142,0.0,-3.0913,-2.9959,-2.8563,-2.7951,-2.7478,-2.6054,-2.5247,-2.4717,-2.4209,-2.3538,-2.2766,-2.1894,-2.1436,0.0,-2.0929,-2.0909,0.0,-2.099,0.0,0.0,0.0,0.0,0.0,0.0,0.0,0.0,0.0,0.0,0.0,0.0,-1.0585,0.0,0.0,0.0,0.0,0.0,0.0,-1.2626,-1.3944,-1.4481,-1.6181,0.0,0.0,-2.3794,-2.6426,-2.7868,-2.8971,-2.9655,-3.1162,-3.1847,-3.1753,-3.2673,-3.3055,-3.3015,-3.3557,-3.3547,-3.3212,-3.4812,-3.5203,-3.4823,-3.5589,-3.584,-3.5658,-3.4726,-3.5438,-3.6999,-3.7238,-3.7266,-3.7197,0.0,0.0,0.0,0.0,-2.7021,0.0,0.0,0.0,-3.5225,0.0,-3.8233,-3.8914,-4.0616,-4.0117,-3.9985,-4.083,-4.0171,0.0,-3.8614,-3.6933,0.0,0.0,-3.3945,-3.3073,-3.2241,0.0,0.0,0.0,0.0,0.0,0.0,0.0,0.0,0.0,-2.4309,0.0,-2.765,-2.7764,-2.9342,-3.1845,-3.2882,-3.3351,-3.3288,-3.2372,-3.2505,-3.2954,-3.1248,-3.0093,-2.9256,-2.8357,-2.7531,-2.6743,-2.5831,-2.5561,-2.5422,-2.4514,-2.3667,-2.2828,-2.1852,-2.1048,-2.0694,-2.1496,0.0,0.0,0.0,0.0,-2.2923,0.0,0.0,0.0,0.0,0.0,0.0,0.0,0.0,0.0,0.0,0.0,0.0,0.0,0.0,0.0,0.0,-1.1125,-1.1821,-1.3239,-1.3924,-1.5741,0.0,0.0,-2.3372,-2.6055,-2.7032,-2.7851,-2.8597,-3.016,-3.0912,-3.0928,-3.2355,-3.3019,-3.3015,-3.3504,-3.3283,-3.2599,-3.4568,-3.5151,-3.4833,-3.5557,-3.5656,-3.5261,-3.5035,-3.5495,-3.636,-3.6405,-3.6717,-3.7178,-2.6747,-2.7633,-2.8634,0.0,-2.9004,-2.9545,0.0,0.0,0.0,0.0,-3.8666,-3.9483,-4.0552,-4.0556,-4.0606,-4.0888,-4.0155,0.0,0.0,0.0,0.0,-3.6648,-3.5175,-3.4255,-3.4049,-3.1843,0.0,-2.997,0.0,0.0,-2.6015,0.0,0.0,0.0,0.0,0.0,-2.6657,-2.6749,-2.8405,-3.1119,-3.2674,-3.331,0.0,0.0,-3.1954,-3.121,-3.0134,-2.9581,-2.9183,-2.7699,-2.707,-2.6636,-2.5168,-2.5151,-2.5385,-2.3851,-2.4088,-2.4374,-2.2243,-2.2423,-2.2965,-2.194,-2.2237,-2.2775,0.0,0.0,0.0,0.0,0.0,0.0,0.0,0.0,0.0,0.0,0.0,0.0,0.0,0.0,0.0,0.0,0.0,0.0,-1.0578,-1.1189,-1.1978,-1.2743,-1.3368,-1.4984,0.0,0.0,0.0,-2.3856,-2.5415,-2.6588,-2.7446,-2.9062,-3.0204,-3.0844,-3.1709,-3.245,-3.2997,-3.3051,-3.2854,-3.2562,-3.3455,-3.3998,-3.426,-3.4873,-3.528,-3.5503,-3.5185,-3.5531,-3.6367,-3.7199,-3.7446,-3.7298,-2.7685,0.0,0.0,-3.1258,0.0,0.0,-3.3215,0.0,0.0,-3.7822,-3.8872,0.0,-4.0056,-4.0552,-4.0859,-4.0906,-4.0509,0.0,-3.9822,0.0,0.0,-3.7878,-3.6559,-3.5839,-3.5843,-3.3606,0.0,-3.1185,0.0,0.0,-2.6288,0.0,0.0,0.0,0.0,-2.5352,0.0,-2.7178,-2.8762,-3.0731,-3.1766,0.0,0.0,-3.1454,-3.0755,-2.9966,-2.8754,-2.8307,-2.8158,-2.7226,-2.6396,-2.5591,-2.4684,-2.4486,-2.4372,-2.3386,-2.3718,-2.4082,-2.2666,-2.2959,-2.3543,-2.2979,-2.3266,-2.3661,-2.3664,-2.4049,-2.4255,0.0,0.0,0.0,0.0,0.0,0.0,0.0,0.0,0.0,0.0,0.0,0.0,0.0,0.0,0.0,-1.0899,-1.1315,-1.1778,-1.2064,-1.2932,0.0,0.0,0.0,0.0,-2.284,-2.4637,-2.6029,-2.6994,-2.8649,-2.9771,-3.0276,-3.0991,-3.1721,-3.2473,-3.2353,-3.242,-3.2643,-3.3178,-3.3591,-3.405,-3.5076,-3.56,-3.5722,-3.5609,-3.5976,-3.6669,-3.7413,-3.763,-3.7492,0.0,0.0,0.0,0.0,0.0,0.0,0.0,-3.6381,0.0,-3.8003,0.0,-3.9526,-3.9658,-4.0412,-4.0897,-4.0913,0.0,-4.0707,-4.0028,-3.9856,-3.9488,-3.8797,-3.7926,-3.748,-3.7458,-3.5736,0.0,0.0,0.0,0.0,0.0,0.0,0.0,0.0,0.0,0.0,0.0,-2.8157,-2.9525,0.0,-3.0632,-3.073,-3.0695,-2.9944,-2.9473,-2.9039,-2.7582,-2.698,-2.6838,-2.6631,-2.556,-2.4267,-2.4102,-2.3625,-2.3066,-2.2825,-2.2874,-2.297,-2.2726,-2.2838,-2.3186,-2.3956,-2.4181,-2.4292,-2.452,-2.4486,-2.4404,-2.4466,-2.3392,-2.2526,0.0,0.0,0.0,0.0,0.0,0.0,0.0,0.0,0.0,0.0,0.0,0.0,0.0,-1.1512,-1.1527,-1.1353,0.0,0.0,0.0,0.0,0.0,-2.2211,-2.4059,0.0,-2.6774,0.0,-2.9267,-2.9593,-3.0209,-3.0987,-3.1762,-3.1644,-3.2026,-3.2808,-3.3195,-3.3528,-3.3929,-3.5305,-3.5818,-3.5744,-3.6105,-3.6571,-3.7017,-3.7425,-3.7648,-3.7759,0.0,0.0,0.0,0.0,0.0,-3.5618,-3.7218,-3.7093,-3.7109,-3.7995,-3.8923,-3.9758,-4.049,-4.0761,-4.0926,-4.0988,-4.0986,0.0,0.0,0.0,0.0,-3.9606,-3.8808,-3.8352,-3.8297,-3.6537,-3.471,0.0,0.0,0.0,0.0,0.0,0.0,0.0,0.0,0.0,-2.6428,-2.7612,0.0,-2.9668,-3.0411,-3.0704,-3.0704,-3.0549,-2.959,-2.8295,-2.799,-2.7433,-2.6611,-2.522,-2.4544,-2.4064,-2.2689,-2.2646,-2.2812,-2.1377,-2.1973,-2.2765,-2.1338,-2.199,-2.313,-2.3265,-2.3311,-2.3701,-2.5132,-2.4872,-2.4525,-2.5238,-2.4562,-2.3507,-2.2364,0.0,0.0,0.0,0.0,0.0,0.0,0.0,0.0,0.0,0.0,0.0,0.0,0.0,0.0,0.0,0.0,0.0,0.0,0.0,0.0,0.0,-2.2027,0.0,0.0,0.0,-2.7946,-2.9454,-2.9558,-3.035,-3.1613,-3.16,-3.1977,-3.2657,-3.2664,-3.295,-3.3401,-3.3509,-3.4054,-3.4871,-3.6013,-3.6652,-3.7068,-3.7604,-3.8036,-3.8221,0.0,0.0,0.0,0.0,0.0,0.0,0.0,-3.8092,0.0,-3.873,-3.9228,-3.9712,-4.013,-4.0643,-4.0964,-4.1006,-4.1025,-4.1076,-4.1094,-4.072,-4.0479,-4.0466,-3.9707,0.0,-3.8512,-3.7196,-3.5412,-3.3145,0.0,0.0,0.0,0.0,0.0,0.0,0.0,-2.6327,0.0,0.0,0.0,-3.0053,-3.049,-3.0661,-3.0603,-3.0183,-2.9213,-2.8041,-2.7581,-2.6883,-2.6049,-2.5253,-2.4363,-2.3495,-2.2714,-2.2147,-2.1599,-2.078,-2.1434,-2.2242,-2.1407,-2.2114,-2.3095,-2.3102,-2.3103,-2.3316,-2.4167,-2.4358,-2.4339,-2.4277,-2.4109,-2.3216,-2.0706,-1.8871,0.0,0.0,0.0,0.0,0.0,0.0,0.0,0.0,0.0,0.0,0.0,0.0,0.0,0.0,0.0,0.0,0.0,0.0,0.0,0.0,0.0,0.0,0.0,0.0,0.0,-2.8762,-2.8752,-2.9514,-3.0995,-3.0978,-3.1618,-3.269,-3.2674,-3.277,-3.302,-3.3671,-3.4312,-3.4942,-3.574,-3.6323,-3.6769,-3.6887,-3.719,-3.766,0.0,-3.4901,0.0,0.0,-3.744,0.0,-3.8253,-3.8988,-3.9507,-3.9431,-3.9538,-3.9682,-3.9885,-4.0578,-4.1025,-4.1025,-4.1061,-4.1104,-4.1094,-4.1101,-4.1108,-4.1093,-4.0312,-3.9524,-3.8782,-3.7737,-3.5982,0.0,0.0,0.0,0.0,0.0,0.0,0.0,0.0,0.0,0.0,0.0,-2.9679,-3.0588,-3.0613,-3.0602,-3.0505,-2.9687,-2.8846,-2.7958,-2.7098,-2.626,-2.5525,-2.537,-2.4288,-2.296,-2.2641,-2.162,-2.0511,-2.0564,-2.1035,-2.1522,-2.1522,-2.2011,-2.2598,-2.2773,-2.2695,-2.2655,-2.3024,-2.3493,-2.3712,-2.327,-2.2943,-2.1881,-1.9179,-1.8681,0.0,0.0,0.0,0.0,0.0,0.0,0.0,0.0,0.0,0.0,0.0,0.0,0.0,0.0,0.0,0.0,0.0,0.0,0.0,0.0,0.0,-2.3551,-2.4968,0.0,-2.7734,0.0,-2.8099,-2.8887,-3.0366,-3.0361,-3.1262,-3.2823,-3.2823,-3.276,-3.2754,-3.3992,-3.4718,-3.5001,-3.5403,-3.5989,-3.6552,-3.6219,-3.6456,-3.7047,0.0,0.0,0.0,0.0,0.0,0.0,0.0,-3.9417,-3.9575,-3.9514,-3.9597,-3.9988,-4.0785,-4.1006,-4.1096,-4.109,-4.1108,-4.1099,-4.1105,-4.1092,-4.1094,-4.111,-4.0262,-3.9777,-3.9676,-3.8057,-3.6274,0.0,0.0,0.0,0.0,0.0,0.0,0.0,0.0,0.0,0.0,-2.9138,-2.9737,-3.0595,-3.0593,-3.0602,-3.0505,-2.9646,-2.876,-2.7902,-2.7015,-2.6144,-2.5306,-2.4571,-2.3734,-2.2735,-2.1219,-2.0636,-2.0497,-2.0506,-2.0551,-2.0611,-2.0611,-2.0689,-2.0923,-2.1728,-2.1364,-2.123,-2.2747,-2.2554,-2.2374,-2.3567,-2.1341,-1.9137,-1.8987,-1.8371,-1.7593,0.0,0.0,0.0,0.0,0.0,0.0,0.0,0.0,0.0,0.0,0.0,0.0,0.0,0.0,0.0,0.0,0.0,0.0,-1.8065,0.0,-2.2099,-2.3922,-2.5764,-2.7137,-2.7917,-2.8042,-2.8829,-3.0229,-3.0287,-3.1217,-3.2823,-3.2823,-3.2674,-3.2595,-3.3336,-3.3888,-3.435,-3.5071,-3.5968,-3.6814,-3.6535,-3.6669,-3.7018,0.0,0.0,0.0,0.0,0.0,0.0,0.0,-4.0303,-4.0392,-4.0407,-4.0458,-4.0604,-4.0961,-4.1057,-4.1104,-4.1097,-4.1103,-4.111,-4.1093,-4.1094,-4.1092,-4.109,-4.0767,-4.009,-3.9041,-3.8332,-3.6839,0.0,0.0,0.0,0.0,0.0,0.0,0.0,0.0,-2.9498,-2.9943,-3.0477,-3.0665,-3.0597,-3.055,-3.054,-3.0443,-2.9564,-2.8666,-2.7769,-2.695,-2.6072,-2.5222,-2.4405,-2.3637,-2.2796,-2.1609,-2.0852,-2.0449,-2.0445,-2.0471,-2.05,-2.0509,-2.0492,-2.0572,-2.0933,-2.0808,-2.0757,-2.1405,-2.1679,-2.1809,-2.1856,-2.0729,-1.9724,-1.9767,-1.9098,-1.8416,0.0,0.0,0.0,0.0,0.0,0.0,0.0,0.0,0.0,0.0,0.0,0.0,0.0,0.0,0.0,0.0,0.0,0.0,-1.7872,0.0,-2.2664,-2.451,-2.6341,-2.7507,-2.7957,-2.7975,-2.8759,-3.0198,-3.0274,-3.1249,-3.287,-3.2805,-3.274,-3.2745,-3.3336,-3.367,-3.3964,-3.5031,-3.5249,-3.5138,-3.5902,-3.584,-3.5438,-3.8089,0.0,-3.8574,0.0,-3.9766,-4.0068,-4.0703,-4.0878,-4.0953,-4.1025,-4.1037,-4.1028,-4.1037,-4.1303,-4.1379,-4.1129,-4.1093,-4.1094,-4.1093,-4.109,-4.1108,-4.1108,-4.084,0.0,-3.8537,-3.8244,-3.7058,-3.4904,-3.4012,0.0,0.0,0.0,0.0,0.0,-3.084,-3.0999,-3.0893,-3.146,-3.1251,-3.055,-3.0509,-3.0469,-3.0353,-2.9212,-2.836,-2.7635,-2.6561,-2.5783,-2.5111,-2.4301,-2.3708,-2.313,-2.2294,-2.126,-2.0473,-2.0967,-2.0978,-2.0823,-2.0822,-2.083,-2.076,-2.0533,-2.0511,-2.0562,-2.051,-2.0989,-2.1249,-2.0624,-2.0263,-1.9958,-1.9641,-1.9097,-1.8519,-1.8034,0.0,0.0,0.0,0.0,0.0,0.0,-1.4157,-1.3831,-1.3862,0.0,0.0,0.0,0.0,0.0,0.0,0.0,0.0,0.0,0.0,0.0,0.0,-2.6452,-2.7549,-2.7911,-2.7929,-2.8729,-3.0229,-3.0796,-3.1738,-3.2884,-3.287,-3.2805,-3.2826,-3.3241,-3.3493,-3.3741,-3.4594,-3.4644,-3.4318,-3.5334,-3.5273,-3.4802,-3.9004,-3.9192,-3.9473,-4.0419,-4.0636,-4.0706,-4.0792,-4.0915,-4.1013,-4.1081,-4.1108,-4.1099,-4.1099,-4.1872,-4.2031,-4.1172,-4.1091,-4.1107,-4.1107,-4.1097,-4.1094,0.0,0.0,-3.9399,-3.8521,-3.7654,-3.6776,-3.5885,0.0,0.0,-3.3156,0.0,-3.2229,-3.3051,-3.2979,-3.2494,-3.1688,-3.1692,-3.124,-3.0499,-3.0428,-3.0398,-3.0213,-2.8468,-2.7764,-2.7478,-2.5803,-2.5172,-2.4981,-2.4162,-2.3902,-2.376,-2.3022,-2.1632,-2.063,-2.23,-2.2211,-2.1589,-2.1589,-2.1584,-2.1404,-2.0599,-2.0456,-2.0499,-2.0492,-2.0504,-2.0518,-2.0507,-1.9807,-1.8958,-1.808,-1.792,-1.7326,-1.5536,0.0,0.0,0.0,0.0,0.0,0.0,-1.3532,-1.3116,-1.4087,0.0,0.0,0.0,0.0,0.0,0.0,0.0,0.0,-1.8365,-2.1005,0.0,-2.3805,-2.5673,-2.6981,-2.7701,-2.7893,-2.8829,-3.0371,-3.2072,-3.2866,-3.2916,-3.2916,-3.287,-3.2823,-3.287,-3.3268,-3.3775,-3.3671,-3.425,-3.5171,-3.5059,-3.536,-3.5822,-4.0087,-4.0243,-4.0384,-4.0692,-4.1324,-4.18,-4.1827,-4.2396,-4.2846,-4.2873,-4.3393,-4.3535,-4.2949,-4.2597,-4.2536,0.0,-4.2334,-4.198,0.0,-4.142,-4.1104,-4.1091,-4.0836,-4.0277,-3.9418,-3.9117,-3.8555,-3.7681,0.0,0.0,0.0,-3.3122,-3.2861,-3.319,-3.3616,-3.3053,-3.1813,-3.2305,-3.1727,-3.0499,-3.0336,-3.0267,-3.0132,-2.8943,-2.8112,-2.7437,-2.639,-2.5628,-2.5063,-2.4803,-2.4326,-2.3876,-2.4151,-2.3174,-2.2034,-2.2583,-2.2158,-2.1529,-2.1536,-2.1135,-2.0656,-2.046,-2.0369,-2.0374,-2.0425,-2.0433,-2.0435,-2.0481,-1.9804,-1.9122,-1.8848,-1.782,-1.682,-1.6258,-1.5905,0.0,0.0,0.0,0.0,0.0,0.0,-1.4213,0.0,-1.5012,0.0,0.0,0.0,0.0,0.0,0.0,0.0,0.0,-2.163,0.0,-2.4676,-2.6463,-2.752,-2.7842,-2.7917,-2.8847,-3.054,-3.1555,-3.2384,-3.3024,-3.3024,-3.3024,-3.3011,-3.2979,-3.3077,-3.328,-3.3681,-3.3564,-3.3317,-3.4283,-3.4276,-3.3836,-4.1158,-4.149,-4.1779,-4.1801,-4.2341,-4.2863,-4.3091,-4.3446,-4.3771,-4.4002,-4.4316,-4.4432,-4.421,-4.3702,0.0,-4.3676,-4.2907,-4.2396,-4.2399,-4.1581,-4.1109,-4.1104,-4.1105,-4.0686,-3.9828,0.0,0.0,-3.8505,-3.7955,-3.6949,-3.5504,-3.4893,-3.4458,-3.4187,-3.4549,-3.382,-3.2317,-3.2728,-3.1941,-3.0406,-3.026,-3.0194,-3.006,-2.8822,-2.8004,-2.7348,-2.6268,-2.5513,-2.5018,-2.4996,-2.4623,-2.4269,-2.4718,-2.4225,-2.3427,-2.3163,-2.2527,-2.1847,-2.1538,-2.1111,-2.0689,-2.0404,-2.0282,-2.0268,-2.0314,-2.0346,-2.0391,-2.0441,-2.0049,-1.9492,-1.887,-1.7866,-1.6905,-1.626,-1.5675,-1.5276,-1.5202,0.0,0.0,0.0,0.0,0.0,0.0,-1.6066,0.0,0.0,0.0,0.0,0.0,0.0,0.0,-1.9044,-2.1909,0.0,-2.4791,-2.6181,-2.7056,-2.7448,-2.8105,-2.9029,-3.0212,-3.0939,-3.1786,-3.2703,-3.2703,-3.2703,-3.2691,-3.2947,-3.2862,-3.267,-3.328,-3.3097,-3.2595,-3.3721,-3.3619,-3.3068,-4.2168,-4.2848,0.0,0.0,-4.361,0.0,-4.4445,-4.4156,-4.4096,-4.4725,-4.4275,-4.4213,-4.5082,-4.5112,-4.4758,-4.3944,0.0,0.0,0.0,-4.1754,-4.1281,-4.1285,-4.1217,-4.0803,-4.0004,-3.9926,-3.9482,-3.8675,-3.8624,-3.8137,-3.7286,-3.7164,-3.6617,-3.5794,-3.5658,-3.4657,-3.3089,-3.2947,-3.1885,-3.0292,-3.0226,-3.0204,-3.0018,-2.8403,-2.7699,-2.7352,-2.5749,-2.5083,-2.4965,-2.4855,-2.4791,-2.4791,-2.4791,-2.4787,-2.4643,-2.3985,-2.3213,-2.2427,-2.1683,-2.1474,-2.129,-2.0482,-2.0274,-2.0246,-2.0203,-2.0246,-2.0302,-2.0381,-2.0393,-1.9906,-1.8299,-1.7945,-1.7359,-1.5667,-1.5349,-1.5288,-1.5212,0.0,0.0,0.0,0.0,0.0,0.0,-1.6736,-1.7466,0.0,0.0,0.0,0.0,0.0,-1.8298,-2.0157,-2.1953,-2.3363,-2.4286,-2.5112,-2.5914,-2.6735,-2.8415,-2.9333,-2.9546,-3.0288,-3.1117,-3.1959,-3.2013,-3.1995,-3.2013,-3.2793,-3.2685,-3.2074,-3.2693,-3.2834,-3.2758,-3.3266,-3.3349,-3.3318,0.0,0.0,-4.3565,-4.3571,-4.4187,-4.4711,-4.4862,-4.5346,-4.5976,-4.6775,-4.6184,-4.6,-4.6819,-4.6299,-4.5826,-4.5636,-4.4855,-4.4363,-4.4319,-4.3485,-4.3031,-4.309,-4.2451,-4.2008,-4.1792,-4.113,-4.068,-4.0487,-3.9767,-3.8974,-3.8104,-3.7417,-3.6608,-3.5708,-3.5637,-3.4643,-3.3022,-3.2949,-3.1885,-3.0292,-3.0226,-3.0171,-3.0071,-2.9616,-2.8988,-2.8206,-2.7188,-2.6367,-2.5646,-2.5013,-2.4726,-2.4647,-2.4647,-2.4578,-2.4503,-2.4587,-2.3613,-2.2483,-2.2345,-2.1801,-2.1238,-2.1079,-2.1001,-2.079,-2.0193,-2.0097,-2.018,-2.0296,-1.9842,-1.9127,-1.8114,-1.7422,-1.6651,-1.5584,-1.5335,-1.5288,-1.5207,-1.4605,0.0,0.0,-1.6113,-1.6431,-1.6969,-1.8313,-1.8559,0.0,0.0,0.0,0.0,-1.844,-1.9423,-2.0407,-2.2675,-2.4077,-2.4431,-2.519,-2.6021,-2.6872,-2.7949,-2.8854,-2.9593,-2.979,-3.0395,-3.1356,-3.1954,-3.191,-3.1492,-3.2853,-3.2922,-3.2231,-3.2907,-3.306,-3.287,-3.29,-3.2772,-3.2704,-4.4182,-4.4512,-4.4792,-4.4832,-4.5255,-4.5733,-4.613,-4.6582,-4.7204,-4.8037,-4.7386,-4.7002,-4.745,-4.6718,-4.6206,-4.6201,-4.5435,-4.4947,-4.4908,-4.4072,-4.3623,-4.366,-4.2855,-4.2407,-4.2407,-4.1559,-4.1095,-4.1103,-4.0598,-3.9662,-3.8396,-3.7911,-3.6995,-3.5737,-3.5678,-3.4878,-3.3566,-3.3128,-3.2141,-3.0848,-3.0352,-3.0142,-3.006,-2.957,-2.9055,-2.8439,-2.7251,-2.6453,-2.5866,-2.4992,-2.4631,-2.4549,-2.4515,-2.4445,-2.4444,-2.462,-2.3842,-2.2841,-2.2527,-2.2092,-2.1613,-2.1247,-2.114,-2.0913,-2.0134,-2.001,-2.0087,-2.0231,-1.9921,-1.9415,-1.864,-1.7818,-1.6972,-1.6128,-1.5966,-1.579,-1.5306,-1.5148,0.0,-1.6283,-1.6697,-1.7202,-1.7966,-1.9157,-1.9362,-1.813,0.0,0.0,-1.8039,-1.9456,-2.0396,-2.0678,-2.2716,-2.3876,-2.4022,-2.4828,-2.5864,-2.7092,-2.7539,-2.8254,-2.9194,-2.9142,-2.9654,-3.0654,-3.1455,-3.1372,-3.0779,-3.2347,-3.2502,-3.181,-3.2513,-3.2883,-3.3014,-3.2862,-3.2687,-3.2592,-4.5191,-4.5746,-4.6225,-4.6282,-4.6443,-4.6797,-4.7479,-4.7571,-4.7874,-4.8681,-4.8033,-4.7498,-4.7493,-4.6844,-4.6337,-4.6203,-4.5527,-4.5092,-4.5111,-4.439,-4.4001,-4.4,-4.322,-4.2713,-4.2602,-4.1613,-4.1106,-4.1095,-4.1103,-4.0241,-3.8583,-3.8451,-3.7525,-3.596,-3.5766,-3.5162,-3.4237,-3.3473,-3.2551,-3.1506,-3.0663,-3.0228,-3.0007,-2.9213,-2.8866,-2.8591,-2.7031,-2.6422,-2.6191,-2.5153,-2.4735,-2.4649,-2.4467,-2.4394,-2.4413,-2.4558,-2.4161,-2.3531,-2.2675,-2.2434,-2.2252,-2.1529,-2.121,-2.0897,-2.0224,-2.0042,-2.0031,-2.015,-2.0246,-2.0057,-1.9328,-1.8572,-1.7774,-1.6836,-1.681,-1.6566,-1.5622,0.0,-1.6744,-1.6862,-1.7432,-1.8132,-1.8926,-1.961,-1.9908,-1.9636,-1.9448,-1.9274,0.0,-2.048,-2.1189,-2.1001,-2.2526,-2.343,-2.3544,-2.4395,-2.5601,-2.7145,-2.7222,-2.7784,-2.8718,-2.8687,-2.91,-2.9923,-3.0721,-3.0684,-3.0198,-3.1798,-3.2036,-3.1425,-3.2147,-3.2762,-3.3176,-3.2768,-3.2666,-3.2731,-4.6105,-4.6198,-4.6285,-4.6308,-4.7106,-4.7684,-4.7545,-4.7514,-4.781,-4.8684,-4.803,-4.7493,-4.7495,-4.7379,-4.7002,-4.6261,-4.6086,-4.6001,-4.6008,-4.5864,-4.5793,-4.5793,-4.4962,-4.4189,-4.3509,-4.191,-4.1106,-4.1095,-4.1095,-4.0559,-3.9474,-3.8731,-3.7828,-3.6783,-3.5977,-3.509,-3.4205,-3.4007,-3.3004,-3.1498,-3.1336,-3.0815,-3.0075,-2.9935,-2.9817,-2.9569,-2.8558,-2.8116,-2.7786,-2.6218,-2.5574,-2.5319,-2.4687,-2.4376,-2.4376,-2.5171,-2.5301,-2.4875,-2.3571,-2.3109,-2.2982,-2.3023,-2.2214,-2.1339,-2.0991,-2.0452,-2.001,-2.0098,-2.0178,-1.9995,-1.9256,-1.8992,-1.8406,-1.6868,-1.7225,-1.7417,-1.6522,0.0,-1.7841,-1.8525,-1.8703,-1.91,-1.9896,-2.0003,-1.9947,-1.9775,-1.9636,-1.9485,-1.9344,-2.0781,-2.1571,-2.1404,-2.2854,-2.3682,-2.3753,-2.4518,-2.5411,-2.6454,-2.7191,-2.8002,-2.8863,-2.8905,-2.9072,-2.9374,-3.0097,-3.0438,-3.0549,-3.2103,-3.247,-3.2148,-3.3166,-3.3478,-3.3194,-3.1797,-3.1966,-3.2866,-4.6306,-4.7051,-4.7596,-4.7278,-4.764,-4.8197,-4.881,-4.8894,-4.9196,-5.0048,-4.9003,-4.8197,-4.8197,-4.7359,-4.6631,-4.624,-4.6189,-4.6196,-4.6201,-4.6196,-4.6203,-4.619,-4.5365,-4.4299,-4.3036,-4.2187,-4.1518,-4.1095,-4.1109,-4.0403,-3.9038,-3.8614,-3.7661,-3.6328,-3.5873,-3.5403,-3.4916,-3.4417,-3.3692,-3.2814,-3.1847,-3.1164,-3.0693,-3.0174,-2.9924,-2.9727,-2.8865,-2.846,-2.8165,-2.6914,-2.6358,-2.6114,-2.5801,-2.5594,-2.5586,-2.6015,-2.591,-2.5505,-2.4778,-2.4217,-2.3766,-2.3428,-2.2902,-2.2331,-2.1816,-2.1154,-2.0777,-2.1297,-2.1101,-2.0749,-2.0494,-2.0086,-1.9418,-1.8208,-1.8377,0.0,0.0,-1.8017,-1.8692,-1.906,-1.9078,-1.9374,-2.018,-2.0171,-2.0041,-1.9918,-2.0226,-2.0343,-2.0206,-2.1671,-2.2459,-2.2373,-2.3297,-2.3873,-2.4016,-2.478,-2.5625,-2.6518,-2.7383,-2.8276,-2.9119,-2.9097,-2.916,-2.9304,-3.0076,-3.0209,-2.9938,-3.108,-3.1528,-3.1489,-3.1955,-3.2724,-3.3396,-3.1656,-3.1926,-3.3153,-4.6323,-4.7684,-4.8844,-4.8786,-4.8762,-4.905,-4.9853,-5.0218,-5.0524,-5.094,-4.9705,-4.8723,-4.8495,-4.7279,-4.6395,-4.6185,-4.6174,-4.6181,-4.6185,-4.6174,-4.6189,-4.6196,-4.5163,-4.3903,-4.2415,-4.213,-4.1701,-4.1095,-4.0902,-4.0104,-3.8773,-3.8303,-3.737,-3.6075,-3.5815,-3.5657,-3.555,-3.4878,-3.4385,-3.3973,-3.2579,-3.1821,-3.1499,-3.0755,-3.0311,-2.9979,-2.9304,-2.8857,-2.8465,-2.7569,-2.7156,-2.7001,-2.6757,-2.6659,-2.6649,-2.6833,-2.6463,-2.5949,-2.5672,-2.5059,-2.4351,-2.3733,-2.3412,-2.312,-2.2614,-2.196,-2.1665,-2.2357,-2.2064,-2.1722,-2.1828,-2.119,-2.0394,-1.9609,0.0,0.0,0.0,-1.8958,-1.9507,-1.9495,-1.944,-1.9643,-2.0255,-2.0262,-2.0161,-2.0022,-2.0717,-2.1097,-2.0952,-2.2443,-2.3356,-2.3498,-2.3804,-2.4057,-2.4247,-2.5039,-2.589,-2.6782,-2.7653,-2.853,-2.9373,-2.9332,-2.9334,-2.9433,-3.0044,-3.0062,-2.9729,-3.0302,-3.0757,-3.1061,-3.0988,-3.1718,-3.2659,-3.1034,-3.122,-3.2274,-4.6378,-4.7611,-4.9282,-5.0789,-5.1055,-5.0731,-4.9777,-5.0524,-5.093,-5.019,-4.9333,-4.8468,-4.7595,-4.74,-4.7003,-4.618,-4.6102,-4.6102,-4.6122,-4.6102,-4.6138,-4.6196,-4.4584,-4.326,-4.2338,-4.152,-4.1097,-4.1095,-4.0285,-3.9805,-3.9591,-3.7957,-3.7092,-3.6869,-3.6056,-3.5665,-3.5591,-3.547,-3.4889,-3.4088,-3.3899,-3.3255,-3.24,-3.2272,-3.1672,-3.0903,-3.0772,-3.0208,-2.9344,-2.835,-2.8009,-2.7855,-2.6956,-2.6654,-2.6759,-2.7577,-2.7253,-2.6483,-2.5782,-2.5059,-2.4498,-2.4439,-2.3761,-2.3172,-2.3364,-2.2833,-2.2355,-2.2467,-2.2505,-2.2524,-2.2613,-2.1963,-2.1171,-2.0439,0.0,0.0,-1.9237,-1.985,-2.0397,-2.0395,-2.0351,-2.0337,-2.0385,-2.034,-2.025,-2.0096,-2.0823,-2.1227,-2.1084,-2.2678,-2.3908,-2.4644,-2.4408,-2.4302,-2.4372,-2.5171,-2.6061,-2.6991,-2.7848,-2.8727,-2.9588,-2.9645,-2.9664,-2.9681,-2.972,-3.0152,-3.077,-3.0708,-3.1171,-3.1896,-3.1768,-3.1017,-2.9906,-2.9082,-2.8848,-2.8964,-4.7794,-4.9185,-5.0555,-5.1183,-5.1269,-5.1113,-5.0719,-5.1023,-5.0995,-5.0118,-4.9253,-4.8396,-4.7492,-4.6928,-4.6452,-4.6134,-4.6104,-4.6113,-4.6095,-4.6104,-4.5869,-4.534,-4.469,-4.3705,-4.2318,-4.1974,-4.1572,-4.1097,-4.024,-3.952,-3.8921,-3.7727,-3.6833,-3.6241,-3.5863,-3.5667,-3.5608,-3.5579,-3.5282,-3.4791,-3.4228,-3.3699,-3.3182,-3.2617,-3.1788,-3.0923,-3.0865,-3.0262,-2.9415,-2.9037,-2.8862,-2.8722,-2.8344,-2.8165,-2.8062,-2.7945,-2.7324,-2.6556,-2.5801,-2.4986,-2.4411,-2.4478,-2.4232,-2.4022,-2.4195,-2.3672,-2.329,-2.3872,-2.3681,-2.3269,-2.2844,-2.2502,-2.1898,-2.0604,0.0,-2.0371,-2.0055,-2.033,-2.0551,-2.0492,-2.0474,-2.0469,-2.0464,-2.0404,-2.0346,-2.0294,-2.1493,-2.2201,-2.2105,-2.3641,-2.4683,-2.4966,-2.4818,-2.47,-2.4594,-2.5922,-2.6779,-2.7203,-2.8592,-2.9436,-2.9792,-2.9774,-2.9773,-2.9754,-2.9755,-2.9943,-3.0207,-3.0114,-3.0245,-3.0502,-3.0404,-3.0031,-2.947,-2.92,-2.9089,-2.9067,-4.8627,-5.0127,-5.1267,-5.1278,-5.1238,-5.1089,-5.0782,-5.0734,-5.0461,-4.9702,-4.8837,-4.8059,-4.7466,-4.661,-4.6095,-4.6066,-4.6066,-4.6066,-4.6066,-4.5833,-4.5297,-4.4431,-4.4139,-4.333,-4.1926,-4.1887,-4.1622,-4.1071,-3.9922,-3.9052,-3.8442,-3.7304,-3.6417,-3.5773,-3.5708,-3.5648,-3.5608,-3.5547,-3.5441,-3.5251,-3.4598,-3.4236,-3.4017,-3.3393,-3.2523,-3.1574,-3.1293,-3.0721,-3.0071,-2.9808,-2.965,-2.9544,-2.9521,-2.9287,-2.8906,-2.8423,-2.769,-2.6882,-2.6151,-2.5319,-2.4635,-2.4518,-2.4497,-2.453,-2.465,-2.4306,-2.4143,-2.4761,-2.4569,-2.4049,-2.3285,-2.2966,-2.2358,-2.1008,-2.0834,-2.0784,-2.0533,-2.078,-2.0876,-2.0572,-2.074,-2.0901,-2.0904,-2.1115,-2.123,-2.1224,-2.2462,-2.3331,-2.3542,-2.4589,-2.5187,-2.5157,-2.5122,-2.5019,-2.4847,-2.6204,-2.7035,-2.738,-2.878,-2.9628,-2.9926,-2.991,-2.9893,-2.9893,-2.9893,-2.9893,-2.9859,-2.9789,-2.9719,-2.9626,-2.9531,-2.9491,-2.949,-2.949,-2.9468,-2.9386,-4.8497,-5.0024,-5.1189,-5.1183,-5.1183,-5.0806,-4.9663,-4.9488,-4.9284,-4.8759,-4.7942,-4.7388,-4.7388,-4.662,-4.6066,-4.6007,-4.5997,-4.5997,-4.5977,-4.522,-4.4394,-4.3529,-4.2654,-4.1827,-4.103,-4.101,-4.0999,-4.0996,-3.926,-3.8416,-3.8358,-3.6617,-3.5766,-3.5708,-3.5629,-3.5593,-3.5591,-3.5455,-3.5364,-3.53,-3.5143,-3.502,-3.4889,-3.481,-3.4135,-3.309,-3.2294,-3.1879,-3.1573,-3.0688,-3.0351,-3.0286,-3.0215,-2.9641,-2.9017,-2.9067,-2.8474,-2.7625,-2.6884,-2.6113,-2.5337,-2.4669,-2.45,-2.4517,-2.4582,-2.4695,-2.4821,-2.4889,-2.5018,-2.4841,-2.4055,-2.3304,-2.2549,-2.1746,-2.1676,-2.143,-2.0627,-2.126,-2.1502,-2.0695,-2.1302,-2.1808,-2.1801,-2.26,-2.3075,-2.3013,-2.3745,-2.4554,-2.5357,-2.5395,-2.5359,-2.5302,-2.5303,-2.5264,-2.5192,-2.5857,-2.6631,-2.75,-2.8316,-2.9133,-2.9969,-3.0053,-3.0083,-3.0102,-3.0102,-3.0053,-3.0007,-2.9926,-2.9827,-2.9701,-2.955,-2.9589,-2.9701,-2.9701,-2.9569,-2.9388,-4.6911,-4.8424,-4.9763,-4.9375,-4.9317,-4.9045,-4.8276,-4.816,-4.8036,-4.7691,-4.742,-4.7031,-4.6491,-4.6139,-4.5964,-4.5997,-4.6005,-4.5761,-4.5181,-4.3957,-4.3063,-4.2607,-4.2344,-4.1829,-4.1021,-4.101,-4.0999,-4.0996,-3.9879,-3.9007,-3.8372,-3.7236,-3.6338,-3.5698,-3.5629,-3.5562,-3.5534,-3.5488,-3.535,-3.5155,-3.5127,-3.502,-3.4888,-3.4708,-3.4073,-3.3216,-3.2888,-3.2329,-3.1737,-3.1477,-3.0927,-3.0263,-2.9572,-2.92,-2.8906,-2.8404,-2.8073,-2.7687,-2.6903,-2.611,-2.5355,-2.4667,-2.4497,-2.453,-2.4645,-2.4742,-2.4821,-2.4889,-2.5018,-2.4872,-2.4115,-2.3784,-2.3416,-2.2708,-2.2605,-2.2329,-2.1533,-2.1688,-2.1541,-2.0703,-2.1347,-2.1854,-2.1805,-2.2586,-2.3088,-2.3074,-2.3821,-2.4632,-2.5479,-2.5499,-2.5466,-2.5437,-2.5445,-2.5429,-2.5412,-2.6036,-2.6505,-2.681,-2.7573,-2.8088,-2.8382,-2.836,-2.8684,-2.9265,-2.927,-2.9565,-3.0064,-3.0038,-2.9994,-2.9893,-2.9754,-2.9755,-2.9846,-2.9842,-2.9773,-2.9664,-4.6201,-4.753,-4.8778,-4.8192,-4.8315,-4.8251,-4.7559,-4.7443,-4.7269,-4.6758,-4.6681,-4.6499,-4.605,-4.596,-4.5972,-4.5997,-4.5994,-4.5498,-4.4316,-4.3402,-4.2548,-4.1674,-4.1665,-4.1471,-4.0974,-4.0965,-4.0965,-4.0954,-3.973,-3.8877,-3.8336,-3.7094,-3.6203,-3.5648,-3.5604,-3.5534,-3.5495,-3.5441,-3.532,-3.5141,-3.511,-3.5002,-3.483,-3.4708,-3.4261,-3.3665,-3.3258,-3.2925,-3.2669,-3.2307,-3.157,-3.0641,-2.9756,-2.925,-2.8906,-2.8452,-2.8346,-2.8162,-2.7337,-2.6806,-2.6202,-2.5153,-2.465,-2.4462,-2.4578,-2.466,-2.4742,-2.4846,-2.4964,-2.4803,-2.4094,-2.3985,-2.3764,-2.3062,-2.3248,-2.3203,-2.2419,-2.2652,-2.2568,-2.1698,-2.2362,-2.2871,-2.2831,-2.3612,-2.4138,-2.4128,-2.4581,-2.5086,-2.5615,-2.5586,-2.5537,-2.554,-2.5531,-2.5531,-2.5544,-2.5876,-2.6197,-2.6529,-2.6983,-2.7393,-2.7731,-2.7726,-2.8013,-2.8504,-2.8492,-2.8766,-2.918,-2.9159,-2.9532,-3.0117,-2.9975,-2.9959,-3.001,-2.9991,-2.9926,-2.977,-4.6349,-4.7303,-4.8203,-4.756,-4.7965,-4.8083,-4.7211,-4.7075,-4.6784,-4.599,-4.5893,-4.5917,-4.598,-4.598,-4.5972,-4.5986,-4.5994,-4.5312,-4.374,-4.3447,-4.261,-4.0981,-4.0906,-4.0888,-4.0907,-4.0898,-4.0868,-4.0791,-3.918,-3.8336,-3.8151,-3.6491,-3.5665,-3.5596,-3.5534,-3.5509,-3.5474,-3.535,-3.5254,-3.5193,-3.511,-3.4983,-3.4792,-3.4728,-3.458,-3.4292,-3.3519,-3.3608,-3.3969,-3.3099,-3.2189,-3.128,-3.0467,-2.9659,-2.8994,-2.8994,-2.8994,-2.8828,-2.8099,-2.7904,-2.7524,-2.6001,-2.4986,-2.4431,-2.4479,-2.4564,-2.4647,-2.4776,-2.4846,-2.4712,-2.4114,-2.4047,-2.389,-2.3226,-2.3798,-2.4055,-2.3302,-2.3897,-2.4066,-2.3194,-2.3878,-2.4407,-2.4392,-2.5194,-2.5703,-2.5697,-2.5693,-2.5707,-2.5693,-2.5645,-2.56,-2.5619,-2.5613,-2.561,-2.5609,-2.5543,-2.5846,-2.6505,-2.6506,-2.6881,-2.7601,-2.7642,-2.7729,-2.7787,-2.7787,-2.7804,-2.7802,-2.7746,-2.8689,-3.0157,-3.0123,-3.0104,-3.0032,-2.9923,-2.9794,-2.9566,-4.7957,-4.807,-4.8086,-4.7326,-4.7318,-4.7105,-4.625,-4.6104,-4.6027,-4.5844,-4.5814,-4.5841,-4.5919,-4.5874,-4.5867,-4.5929,-4.5964,-4.5828,-4.5389,-4.3746,-4.2485,-4.1854,-4.1172,-4.0846,-4.0888,-4.0907,-4.0577,-3.9879,-3.949,-3.8616,-3.7267,-3.6828,-3.6265,-3.5593,-3.5521,-3.5463,-3.5412,-3.5339,-3.5229,-3.511,-3.4982,-3.4927,-3.4849,-3.4687,-3.4583,-3.452,-3.4176,-3.4096,-3.4018,-3.305,-3.2164,-3.133,-3.0472,-2.9593,-2.8929,-2.8929,-2.8929,-2.8892,-2.8709,-2.8282,-2.7672,-2.6677,-2.5833,-2.5116,-2.461,-2.458,-2.4682,-2.4726,-2.4813,-2.4869,-2.4778,-2.4855,-2.4926,-2.4866,-2.5062,-2.4936,-2.4151,-2.4194,-2.4023,-2.3193,-2.3871,-2.44,-2.4401,-2.5184,-2.5697,-2.5703,-2.5703,-2.5703,-2.5691,-2.5696,-2.5675,-2.5681,-2.5673,-2.5684,-2.5675,-2.5609,-2.5632,-2.5735,-2.5727,-2.5828,-2.5998,-2.597,-2.6309,-2.6966,-2.6948,-2.7316,-2.7884,-2.7865,-2.8294,-2.9046,-2.9908,-2.9691,-2.8815,-2.8395,-2.8169,-2.797,-4.7815,-4.7582,-4.733,-4.6516,-4.6414,-4.6271,-4.5808,-4.5776,-4.5791,-4.5815,-4.5805,-4.5833,-4.5893,-4.5847,-4.5653,-4.5318,-4.5304,-4.4975,-4.4143,-4.2969,-4.2059,-4.1497,-4.1033,-4.0812,-4.0846,-4.0846,-4.0643,-4.0169,-3.9363,-3.8498,-3.7553,-3.6687,-3.6014,-3.5553,-3.5489,-3.5422,-3.535,-3.5308,-3.5212,-3.5092,-3.5001,-3.4908,-3.4829,-3.4666,-3.4561,-3.4495,-3.4316,-3.4173,-3.3993,-3.3442,-3.2452,-3.1434,-3.1341,-3.0467,-2.9472,-2.9424,-2.9406,-2.9332,-2.8997,-2.864,-2.8191,-2.7426,-2.6935,-2.6259,-2.4781,-2.4498,-2.4584,-2.4679,-2.4757,-2.4827,-2.4974,-2.5082,-2.5198,-2.5332,-2.5401,-2.5323,-2.4929,-2.4899,-2.4769,-2.4351,-2.4682,-2.4982,-2.5027,-2.5439,-2.5701,-2.5694,-2.5694,-2.5697,-2.5703,-2.5703,-2.5703,-2.5702,-2.5697,-2.5693,-2.5709,-2.5671,-2.5632,-2.5609,-2.5565,-2.5556,-2.5544,-2.5518,-2.5732,-2.6185,-2.6184,-2.6408,-2.6804,-2.6765,-2.7208,-2.789,-2.7945,-2.8065,-2.8171,-2.786,-2.751,-2.7121,-4.7281,-4.7011,-4.676,-4.5933,-4.5849,-4.5841,-4.5703,-4.5715,-4.5765,-4.5785,-4.5791,-4.58,-4.588,-4.5833,-4.5465,-4.4602,-4.457,-4.3912,-4.226,-4.2054,-4.1699,-4.1029,-4.0861,-4.0776,-4.0788,-4.0788,-4.0734,-4.0583,-3.9168,-3.8388,-3.817,-3.6684,-3.5984,-3.5913,-3.5864,-3.5786,-3.5703,-3.556,-3.5422,-3.53,-3.5058,-3.4927,-3.4788,-3.4666,-3.4539,-3.4386,-3.4269,-3.4099,-3.3921,-3.3868,-3.2842,-3.1689,-3.2308,-3.1451,-3.0246,-3.005,-2.997,-2.9831,-2.9053,-2.8881,-2.8727,-2.7967,-2.7849,-2.7361,-2.5263,-2.4801,-2.4873,-2.503,-2.4968,-2.4951,-2.5139,-2.5101,-2.5118,-2.5253,-2.5331,-2.541,-2.5473,-2.5531,-2.5576,-2.5585,-2.5586,-2.56,-2.5679,-2.5683,-2.5671,-2.5671,-2.5673,-2.5696,-2.5703,-2.5707,-2.5693,-2.5698,-2.5703,-2.5703,-2.5702,-2.5698,-2.5696,-2.5698,-2.5648,-2.5617,-2.5628,-2.5624,-2.5628,-2.5613,-2.5604,-2.56,-2.5593,-2.5543,-2.6028,-2.6734,-2.579,-2.6256,-2.7458,-2.7382,-2.6998,-2.651,-4.7894,-4.7836,-4.7587,-4.6781,-4.6646,-4.6415,-4.5719,-4.5616,-4.5651,-4.5726,-4.5715,-4.5742,-4.5795,-4.5805,-4.5374,-4.4343,-4.4473,-4.3956,-4.2452,-4.2118,-4.1925,-4.1774,-4.104,-4.0642,-4.0706,-4.0706,-4.037,-3.9688,-3.9383,-3.8895,-3.8189,-3.7842,-3.7674,-3.7661,-3.7598,-3.7494,-3.7332,-3.6566,-3.6209,-3.6058,-3.5249,-3.4868,-3.4788,-3.4727,-3.4583,-3.4473,-3.4386,-3.4197,-3.3947,-3.3807,-3.3121,-3.2363,-3.2411,-3.1746,-3.0802,-3.0041,-2.9867,-2.973,-2.888,-2.881,-2.8792,-2.794,-2.7805,-2.7635,-2.6622,-2.6484,-2.6543,-2.6525,-2.6042,-2.5695,-2.5844,-2.5347,-2.4993,-2.5171,-2.5273,-2.5351,-2.541,-2.5418,-2.5461,-2.5517,-2.5512,-2.5537,-2.5613,-2.5604,-2.5605,-2.5613,-2.5613,-2.564,-2.5697,-2.5697,-2.5707,-2.5703,-2.5709,-2.5694,-2.5697,-2.5701,-2.5702,-2.5702,-2.5683,-2.5681,-2.5681,-2.5696,-2.569,-2.5684,-2.5632,-2.5601,-2.5589,-2.558,-2.5638,-2.5705,-2.555,-2.5596,-2.5716,-2.5599,-2.5518,-2.5499,-4.6645,-4.6549,-4.6434,-4.6071,-4.6014,-4.5899,-4.5552,-4.5549,-4.5601,-4.564,-4.5668,-4.5696,-4.5731,-4.5341,-4.4665,-4.3685,-4.3294,-4.2618,-4.1465,-4.1291,-4.12,-4.1166,-4.0805,-4.0607,-4.0642,-4.0642,-4.0468,-4.0114,-3.9656,-3.9245,-3.8791,-3.8257,-3.7969,-3.7913,-3.737,-3.7092,-3.6979,-3.6056,-3.5642,-3.553,-3.504,-3.4831,-3.4788,-3.4645,-3.4517,-3.4427,-3.4245,-3.4074,-3.3921,-3.3807,-3.3195,-3.2482,-3.2429,-3.1801,-3.0921,-3.0051,-2.9816,-2.9678,-2.8862,-2.8761,-2.8808,-2.8466,-2.8421,-2.8437,-2.811,-2.7733,-2.7333,-2.6893,-2.6228,-2.5779,-2.5883,-2.5348,-2.494,-2.5019,-2.5157,-2.5273,-2.5332,-2.5388,-2.5404,-2.5445,-2.5483,-2.5511,-2.5531,-2.5531,-2.5543,-2.554,-2.559,-2.5595,-2.5595,-2.5625,-2.5634,-2.5632,-2.5632,-2.5642,-2.5629,-2.5681,-2.5685,-2.5642,-2.5685,-2.5698,-2.5703,-2.5701,-2.57,-2.5699,-2.5673,-2.5666,-2.5657,-2.5668,-2.5617,-2.554,-2.551,-2.5444,-2.5341,-2.5274,-2.4716,-2.4082]},{"header":{"parameterUnit":"m.s-1","parameterCategory":1,"la1":30.6,"la2":28.766,"lo1":-90.7593,"lo2":-88.6598,"dy":0.0162,"dx":0.0183,"nx":116,"ny":114,"refTime":"2023-05-04T00:00:00:Z","depth":0,"parameterNumber":3,"parameterNumberName":"V-component_of_WINDS"},"data":[0.0,0.0,0.0,0.0,0.0,0.0,0.0,0.0,0.0,0.0,0.0,0.0,0.0,0.0,0.0,0.0,0.0,0.0,0.0,0.0,0.0,0.0,0.0,0.0,0.0,0.0,0.0,0.0,0.0,0.0,0.0,0.0,0.0,0.0,0.0,0.0,0.0,0.0,0.0,0.0,0.0,0.0,0.0,0.0,0.0,0.0,0.0,0.0,0.0,0.0,0.0,0.0,0.0,0.0,0.0,0.0,0.0,0.0,0.0,0.0,0.0,0.0,0.0,0.0,0.0,0.0,0.0,0.0,0.0,0.0,0.0,0.0,0.0,0.0,0.0,0.0,0.0,0.0,0.0,0.0,0.0,0.0,0.0,0.0,0.0,0.0,0.0,0.0,0.0,0.0,0.0,0.0,0.0,0.0,0.0,0.0,0.0,0.0,0.0,0.0,0.0,0.0,0.0,0.0,0.0,0.0,0.0,0.0,0.0,0.0,0.0,0.0,0.0,0.0,0.0,0.0,0.0,0.0,0.0,0.0,0.0,0.0,0.0,0.0,0.0,0.0,0.0,0.0,0.0,0.0,0.0,0.0,0.0,0.0,0.0,0.0,0.0,0.0,0.0,0.0,0.0,0.0,0.0,0.0,0.0,0.0,0.0,0.0,0.0,0.0,0.0,0.0,0.0,0.0,0.0,0.0,0.0,0.0,0.0,0.0,0.0,0.0,0.0,0.0,0.0,0.0,0.0,0.0,0.0,0.0,0.0,0.0,0.0,0.0,0.0,0.0,0.0,0.0,0.0,0.0,0.0,0.0,0.0,0.0,0.0,0.0,0.0,0.0,0.0,0.0,0.0,0.0,0.0,0.0,0.0,0.0,0.0,0.0,0.0,0.0,0.0,0.0,0.0,0.0,0.0,0.0,0.0,0.0,0.0,0.0,0.0,0.0,0.0,0.0,0.0,0.0,0.0,0.0,0.0,0.0,0.0,0.0,0.0,0.0,0.0,0.0,0.0,0.0,0.0,0.0,0.0,0.0,0.0,0.0,0.0,0.0,0.0,0.0,0.0,0.0,0.0,0.0,0.0,0.0,0.0,0.0,0.0,0.0,0.0,0.0,0.0,0.0,0.0,0.0,0.0,0.0,0.0,0.0,0.0,0.0,0.0,0.0,0.0,0.0,0.0,0.0,0.0,0.0,0.0,0.0,0.0,0.0,0.0,0.0,0.0,0.0,0.0,0.0,0.0,0.0,0.0,0.0,0.0,0.0,0.0,0.0,0.0,0.0,0.0,0.0,0.0,0.0,0.0,0.0,0.0,0.0,0.0,0.0,0.0,0.0,0.0,0.0,0.0,0.0,0.0,0.0,0.0,0.0,0.0,0.0,0.0,0.0,0.0,0.0,0.0,0.0,0.0,0.0,0.0,0.0,0.0,0.0,0.0,0.0,0.0,0.0,0.0,0.0,0.0,0.0,0.0,0.0,0.0,0.0,0.0,0.0,0.0,0.0,0.0,0.0,0.0,0.0,0.0,0.0,0.0,0.0,0.0,0.0,0.0,0.0,0.0,0.0,0.0,0.0,0.0,0.0,0.0,0.0,0.0,0.0,0.0,0.0,0.0,0.0,0.0,0.0,0.0,0.0,0.0,0.0,0.0,0.0,0.0,0.0,0.0,0.0,0.0,0.0,0.0,0.0,0.0,0.0,0.0,0.0,0.0,0.0,0.0,0.0,0.0,0.0,0.0,0.0,0.0,0.0,0.0,0.0,0.0,0.0,0.0,0.0,0.0,0.0,0.0,0.0,0.0,0.0,0.0,0.0,0.0,0.0,0.0,0.0,0.0,0.0,0.0,0.0,0.0,0.0,0.0,0.0,0.0,0.0,0.0,0.0,0.0,0.0,0.0,0.0,0.0,0.0,0.0,0.0,0.0,0.0,0.0,0.0,0.0,0.0,0.0,0.0,0.0,0.0,0.0,0.0,0.0,0.0,0.0,0.0,0.0,0.0,0.0,0.0,0.0,0.0,0.0,0.0,0.0,0.0,0.0,0.0,0.0,0.0,0.0,0.0,0.0,0.0,0.0,0.0,0.0,0.0,0.0,0.0,0.0,0.0,0.0,0.0,0.0,0.0,0.0,0.0,0.0,0.0,0.0,0.0,0.0,0.0,0.0,0.0,0.0,0.0,0.0,0.0,0.0,0.0,0.0,0.0,0.0,0.0,0.0,0.0,0.0,0.0,0.0,0.0,0.0,0.0,0.0,0.0,0.0,0.0,0.0,0.0,0.0,0.0,0.0,0.0,0.0,0.0,0.0,0.0,0.0,0.0,0.0,0.0,0.0,0.0,0.0,0.0,0.0,0.0,0.0,0.0,0.0,0.0,0.0,0.0,0.0,0.0,0.0,0.0,0.0,0.0,0.0,0.0,0.0,0.0,0.0,0.0,0.0,0.0,0.0,0.0,0.0,0.0,0.0,0.0,0.0,0.0,0.0,0.0,0.0,0.0,0.0,0.0,0.0,0.0,0.0,0.0,0.0,0.0,0.0,0.0,0.0,0.0,0.0,0.0,0.0,0.0,0.0,0.0,0.0,0.0,0.0,0.0,0.0,0.0,0.0,0.0,0.0,0.0,0.0,0.0,0.0,0.0,0.0,0.0,0.0,0.0,0.0,0.0,0.0,0.0,0.0,0.0,0.0,0.0,0.0,0.0,0.0,0.0,0.0,0.0,0.0,0.0,0.0,0.0,0.0,0.0,0.0,0.0,0.0,0.0,0.0,0.0,0.0,0.0,0.0,0.0,0.0,0.0,0.0,0.0,0.0,0.0,0.0,0.0,0.0,0.0,0.0,0.0,0.0,0.0,0.0,0.0,0.0,0.0,0.0,0.0,0.0,0.0,0.0,0.0,0.0,0.0,0.0,0.0,0.0,0.0,0.0,0.0,0.0,0.0,0.0,0.0,0.0,0.0,0.0,0.0,0.0,0.0,0.0,0.0,0.0,0.0,0.0,0.0,0.0,0.0,0.0,0.0,0.0,0.0,0.0,0.0,0.0,0.0,0.0,0.0,0.0,0.0,0.0,0.0,0.0,0.0,0.0,0.0,0.0,0.0,0.0,0.0,0.0,0.0,0.0,0.0,0.0,0.0,0.0,0.0,0.0,0.0,0.0,0.0,0.0,0.0,0.0,0.0,0.0,0.0,0.0,0.0,0.0,0.0,0.0,0.0,0.0,0.0,0.0,0.0,0.0,0.0,0.0,0.0,0.0,0.0,0.0,0.0,0.0,0.0,0.0,0.0,0.0,0.0,0.0,0.0,0.0,0.0,0.0,0.0,0.0,0.0,0.0,0.0,0.0,0.0,0.0,0.0,0.0,0.0,0.0,0.0,0.0,0.0,0.0,0.0,0.0,0.0,0.0,0.0,0.0,0.0,0.0,0.0,0.0,0.0,0.0,0.0,0.0,0.0,0.0,0.0,0.0,0.0,0.0,0.0,0.0,0.0,0.0,0.0,0.0,0.0,0.0,0.0,0.0,0.0,0.0,0.0,0.0,0.0,0.0,0.0,0.0,0.0,0.0,0.0,0.0,0.0,0.0,0.0,0.0,0.0,0.0,0.0,0.0,0.0,0.0,0.0,0.0,0.0,0.0,0.0,0.0,0.0,0.0,0.0,0.0,0.0,0.0,0.0,0.0,0.0,0.0,0.0,0.0,0.0,0.0,0.0,0.0,0.0,0.0,0.0,0.0,0.0,0.0,0.0,0.0,0.0,0.0,0.0,0.0,0.0,0.0,0.0,0.0,0.0,0.0,0.0,0.0,0.0,0.0,0.0,0.0,0.0,0.0,0.0,0.0,0.0,0.0,0.0,0.0,0.0,0.0,0.0,0.0,0.0,0.0,0.0,0.0,0.0,0.0,0.0,0.0,0.0,0.0,0.0,0.0,0.0,0.0,0.0,0.0,0.0,0.0,0.0,0.0,0.0,0.0,0.0,0.0,0.0,0.0,0.0,0.0,0.0,0.0,0.0,0.0,0.0,0.0,0.0,0.0,0.0,0.0,0.0,0.0,0.0,0.0,0.0,0.0,0.0,0.0,0.0,0.0,0.0,0.0,0.0,0.0,0.0,0.0,0.0,0.0,0.0,0.0,0.0,0.0,0.0,0.0,0.0,0.0,0.0,0.0,0.0,0.0,0.0,0.0,0.0,0.0,0.0,0.0,0.0,0.0,0.0,0.0,0.0,0.0,0.0,0.0,0.0,0.0,0.0,0.0,0.0,0.0,0.0,0.0,0.0,0.0,0.0,0.0,0.0,0.0,0.0,0.0,0.0,0.0,0.0,0.0,0.0,0.0,0.0,0.0,0.0,0.0,0.0,0.0,0.0,0.0,0.0,0.0,0.0,0.0,0.0,0.0,0.0,0.0,0.0,0.0,0.0,0.0,0.0,0.0,0.0,0.0,0.0,0.0,0.0,0.0,0.0,0.0,0.0,0.0,0.0,0.0,0.0,0.0,0.0,0.0,0.0,0.0,0.0,0.0,0.0,0.0,0.0,0.0,0.0,0.0,0.0,0.0,0.0,0.0,0.0,0.0,0.0,0.0,0.0,0.0,0.0,0.0,0.0,0.0,0.0,0.0,0.0,0.0,0.0,0.0,0.0,0.0,0.0,0.0,0.0,0.0,0.0,0.0,0.0,0.0,0.0,0.0,0.0,0.0,0.0,0.0,0.0,0.0,0.0,0.0,0.0,0.0,0.0,0.0,0.0,0.0,0.0,0.0,0.0,0.0,0.0,0.0,0.0,0.0,0.0,0.0,0.0,0.0,0.0,0.0,0.0,0.0,0.0,0.0,0.0,0.0,0.0,0.0,0.0,0.0,0.0,0.0,0.0,0.0,0.0,0.0,0.0,0.0,0.0,0.0,0.0,0.0,0.0,0.0,0.0,0.0,0.0,0.0,0.0,0.0,0.0,0.0,0.0,0.0,0.0,0.0,0.0,0.0,0.0,0.0,0.0,0.0,0.0,0.0,0.0,0.0,0.0,0.0,0.0,0.0,0.0,0.0,0.0,0.0,0.0,0.0,0.0,0.0,0.0,0.0,0.0,0.0,0.0,0.0,0.0,0.0,0.0,0.0,0.0,0.0,0.0,0.0,0.0,0.0,0.0,0.0,0.0,0.0,0.0,0.0,0.0,0.0,0.0,0.0,0.0,0.0,0.0,0.0,0.0,0.0,0.0,0.0,0.0,0.0,0.0,0.0,0.0,0.0,0.0,0.0,0.0,0.0,0.0,0.0,0.0,0.0,0.0,0.0,0.0,0.0,0.0,0.0,0.0,0.0,0.0,0.0,0.0,0.0,0.0,0.0,0.0,0.0,0.0,0.0,0.0,0.0,0.0,0.0,0.0,0.0,0.0,0.0,0.0,0.0,0.0,0.0,0.0,0.0,0.0,0.0,0.0,0.0,0.0,0.0,0.0,0.0,0.0,0.0,0.0,0.0,0.0,0.0,0.0,0.0,0.0,0.0,0.0,0.0,0.0,0.0,0.0,0.0,0.0,0.0,0.0,0.0,0.0,0.0,0.0,0.0,0.0,0.0,0.0,0.0,0.0,0.0,0.0,0.0,0.0,0.0,0.0,0.0,0.0,0.0,0.0,0.0,0.0,0.0,0.0,0.0,0.0,0.0,0.0,0.0,0.0,0.0,0.0,0.0,0.0,0.0,0.0,0.0,0.0,0.0,0.0,0.0,0.0,0.0,0.0,0.0,0.0,0.0,0.0,0.0,0.0,0.0,0.0,0.0,0.0,0.0,0.0,0.0,0.0,0.0,0.0,0.0,0.0,0.0,0.0,0.0,0.0,0.0,0.0,0.0,0.0,0.0,0.0,0.0,0.0,0.0,0.0,0.0,0.0,0.0,0.0,0.0,0.0,0.0,0.0,0.0,0.0,0.0,0.0,0.0,0.0,0.0,0.0,0.0,0.0,0.0,0.0,0.0,0.0,0.0,0.0,0.0,0.0,0.0,0.0,0.0,0.0,0.0,0.0,0.0,0.0,0.0,0.0,0.0,0.0,0.0,0.0,0.0,0.0,0.0,0.0,0.0,0.0,0.0,0.0,0.0,0.0,0.0,0.0,0.0,0.0,-2.8894,0.0,0.0,0.0,0.0,0.0,0.0,0.0,0.0,0.0,0.0,0.0,0.0,0.0,0.0,0.0,0.0,0.0,0.0,0.0,0.0,0.0,0.0,0.0,0.0,0.0,0.0,0.0,0.0,0.0,0.0,0.0,0.0,0.0,0.0,0.0,0.0,0.0,0.0,0.0,0.0,0.0,0.0,0.0,0.0,0.0,0.0,0.0,0.0,0.0,0.0,0.0,0.0,0.0,0.0,0.0,0.0,0.0,0.0,0.0,0.0,0.0,0.0,0.0,0.0,0.0,0.0,0.0,0.0,0.0,0.0,0.0,0.0,0.0,0.0,0.0,0.0,0.0,0.0,0.0,0.0,0.0,0.0,0.0,0.0,0.0,0.0,0.0,0.0,0.0,0.0,0.0,0.0,0.0,0.0,0.0,0.0,0.0,0.0,0.0,0.0,0.0,0.0,0.0,0.0,0.0,0.0,0.0,0.0,0.0,0.0,0.0,0.0,0.0,0.0,0.0,0.0,-2.925,0.0,0.0,0.0,0.0,0.0,0.0,0.0,0.0,0.0,0.0,0.0,0.0,0.0,0.0,0.0,0.0,0.0,0.0,0.0,0.0,0.0,0.0,0.0,0.0,0.0,0.0,0.0,0.0,0.0,0.0,0.0,0.0,0.0,0.0,0.0,0.0,0.0,0.0,0.0,0.0,0.0,0.0,0.0,0.0,0.0,0.0,0.0,0.0,0.0,0.0,0.0,0.0,0.0,0.0,0.0,0.0,0.0,0.0,0.0,0.0,0.0,0.0,0.0,0.0,0.0,0.0,0.0,0.0,0.0,0.0,0.0,0.0,0.0,0.0,0.0,0.0,0.0,0.0,0.0,0.0,0.0,0.0,0.0,0.0,0.0,0.0,0.0,0.0,0.0,0.0,0.0,0.0,0.0,0.0,0.0,0.0,0.0,0.0,0.0,0.0,0.0,0.0,0.0,0.0,0.0,0.0,0.0,0.0,-1.8455,-2.131,-2.5819,-2.8514,-3.0938,-3.2961,-3.1282,-3.0766,-3.0873,0.0,0.0,0.0,0.0,0.0,0.0,0.0,0.0,0.0,0.0,0.0,0.0,0.0,0.0,0.0,0.0,0.0,0.0,0.0,0.0,0.0,0.0,0.0,0.0,0.0,0.0,0.0,0.0,0.0,0.0,0.0,0.0,0.0,0.0,0.0,0.0,0.0,0.0,0.0,-0.4104,-0.4121,-0.3788,-0.3027,0.0,0.0,0.0,0.0,0.0,0.0,0.0,0.0,0.0,0.0,0.0,0.0,0.0,0.0,0.0,0.0,0.0,0.0,0.0,0.0,0.0,0.0,0.0,0.0,0.0,0.0,0.0,0.0,0.0,0.0,0.0,0.0,0.0,0.0,0.0,0.0,0.0,0.0,0.0,0.0,0.0,0.0,0.0,0.0,-0.4999,-0.5826,0.0,0.0,0.0,0.0,0.0,0.0,0.0,0.0,0.0,0.0,0.0,0.0,0.0,-1.1075,-1.1488,-1.2537,-1.4505,-1.7339,-2.012,-2.3209,-2.6667,-2.9459,-3.1471,-3.2738,-3.1397,0.0,-3.0881,-2.9262,0.0,0.0,0.0,0.0,0.0,0.0,0.0,0.0,0.0,0.0,0.0,0.0,0.0,0.0,0.0,0.0,0.0,0.0,0.0,0.0,0.0,0.0,0.0,0.0,0.0,0.0,0.0,0.0,0.0,0.0,0.0,0.0,0.0,0.0,0.0,0.0,0.0,0.0,-0.5811,-0.6014,-0.6088,-0.5938,-0.3774,-0.1658,0.037,0.1722,0.0,0.0,0.0,0.0,0.0,0.0,0.0,0.0,0.0,0.0,0.0,0.0,0.0,0.0,0.0,0.0,0.0,0.0,0.0,0.0,0.0,0.0,0.0,0.0,0.0,0.0,0.0,0.0,0.0,0.0,0.0,0.0,0.0,0.0,0.0,0.0,0.0,0.0,0.0,-0.4724,-0.5515,-0.6247,-0.717,-0.8286,0.0,0.0,0.0,0.0,0.0,0.0,0.0,0.0,0.0,-1.5824,-1.4793,-1.4282,-1.4478,-1.4993,-1.6338,-1.8519,-2.0858,-2.3446,-2.6217,-2.8279,-2.9987,-3.1156,-3.0798,-3.0635,-3.0557,-2.9575,-2.8264,-2.672,0.0,0.0,0.0,0.0,-2.2483,-2.2351,0.0,0.0,0.0,0.0,0.0,0.0,0.0,0.0,0.0,0.0,0.0,0.0,0.0,0.0,0.0,0.0,0.0,0.0,0.0,0.0,0.0,0.0,0.0,0.0,0.0,0.0,0.0,0.0,0.0,0.0,0.0,0.0,-0.81,-0.8287,-0.6946,-0.4671,-0.175,-0.0206,0.1106,0.0,0.0,0.0,0.0,0.0,0.0,0.0,0.0,0.0,0.0,0.0,0.0,0.0,0.0,0.0,0.0,0.0,0.0,0.0,0.0,0.0,0.0,0.0,0.0,0.0,0.0,0.0,0.0,0.0,0.0,0.0,0.0,0.0,0.0,0.0,0.0,0.0,0.0,-0.482,-0.5745,-0.6717,-0.7553,-0.8725,0.0,0.0,0.0,0.0,0.0,0.0,-1.8118,-1.8414,-1.8513,-1.8305,-1.7478,-1.7004,-1.6897,-1.6999,-1.7901,-1.9568,-2.1123,-2.3107,-2.5458,-2.6966,-2.8355,-2.9534,-2.9851,-2.9995,-3.0064,-2.9713,-2.9063,-2.808,-2.7087,-2.6276,-2.5675,-2.5376,-2.5006,-2.4683,0.0,0.0,0.0,0.0,0.0,0.0,0.0,0.0,0.0,0.0,0.0,0.0,0.0,0.0,0.0,0.0,0.0,0.0,0.0,0.0,0.0,0.0,0.0,0.0,0.0,0.0,0.0,0.0,0.0,0.0,0.0,0.0,0.0,0.0,0.0,0.0,-0.4555,-0.2323,-0.0744,0.0408,0.0,0.0,0.0,0.0,0.0,0.0,0.0,0.0,0.0,0.0,0.0,0.0,0.0,0.0,0.0,0.0,0.0,0.0,0.0,0.0,0.0,0.0,0.0,0.0,0.0,0.0,0.0,0.0,0.0,0.0,0.0,0.0,0.0,0.0,0.0,0.0,0.0,0.0,0.0,-0.7258,-0.7726,0.0,0.0,0.0,0.0,-1.5335,-1.7116,-1.8638,-1.9722,-2.0563,-2.0626,-1.986,-1.9206,-1.8699,-1.8194,-1.7996,-1.8584,-1.997,-2.0939,-2.2579,-2.4673,-2.6086,-2.7411,-2.8587,-2.8574,-2.8897,-2.9474,-3.0082,-2.9597,-2.8486,-2.8556,-2.8412,-2.8184,-2.7961,-2.7658,-2.7211,0.0,0.0,0.0,0.0,0.0,0.0,0.0,0.0,0.0,0.0,0.0,0.0,0.0,0.0,0.0,0.0,0.0,0.0,0.0,0.0,0.0,0.0,0.0,0.0,0.0,0.0,0.0,0.0,0.0,0.0,0.0,0.0,0.0,0.0,0.0,0.0,0.0,0.0,-0.2745,-0.1625,-0.0098,0.1858,0.0,0.0,0.0,0.0,0.0,0.0,0.0,0.0,0.0,0.0,0.0,0.0,0.0,0.0,0.0,0.0,0.0,0.0,0.0,0.0,0.0,0.0,0.0,0.0,0.0,0.0,0.0,0.0,0.0,0.0,0.0,0.0,0.0,0.0,0.0,0.0,0.0,-0.8083,-0.926,0.0,0.0,-1.2939,-1.4269,-1.6228,-1.7508,-1.8858,-2.046,-2.09,-2.1156,-2.1139,-2.0078,-1.9353,-1.9059,-1.8506,-1.8732,-1.9829,-2.0685,-2.201,-2.3519,-2.4962,-2.5973,-2.6586,-2.7475,-2.8046,-2.8468,-2.9151,-2.9137,-2.8749,-2.9052,-2.8905,-2.8434,-2.8358,-2.8198,-2.7891,0.0,0.0,0.0,0.0,0.0,0.0,0.0,0.0,0.0,0.0,0.0,0.0,0.0,0.0,0.0,0.0,0.0,0.0,0.0,0.0,0.0,0.0,0.0,0.0,0.0,0.0,0.0,0.0,0.0,0.0,0.0,0.0,0.0,0.0,0.0,0.0,0.0,0.0,0.0,0.0,-0.2483,-0.0403,0.178,0.0,0.0,0.0,0.0,0.0,0.0,0.0,0.0,0.0,0.0,0.0,0.0,0.0,0.0,0.0,0.0,0.0,0.0,0.0,0.0,0.0,0.0,0.0,0.0,0.0,0.0,0.0,0.0,0.0,0.0,0.0,0.0,0.0,0.0,0.0,-0.8738,-0.9232,-1.0405,-1.1697,-1.2994,-1.3936,-1.5205,-1.6879,-1.8266,-1.9703,-2.1092,-2.1502,-2.1737,-2.2005,-2.0791,-1.9903,-1.9612,-1.8957,-1.8948,-1.9558,-2.0574,-2.1608,-2.268,-2.4064,-2.5016,-2.538,-2.6432,-2.7148,-2.7599,-2.8088,-2.8422,-2.853,-2.9353,-2.9426,-2.9089,-2.9065,-2.889,-2.8582,0.0,0.0,0.0,0.0,0.0,0.0,0.0,0.0,0.0,0.0,0.0,0.0,0.0,0.0,0.0,0.0,0.0,0.0,0.0,0.0,0.0,0.0,0.0,0.0,0.0,0.0,0.0,0.0,0.0,0.0,0.0,0.0,0.0,0.0,0.0,0.0,0.0,0.0,0.0,0.0,0.0,0.0,-0.1544,0.0,0.0,0.0,0.0,0.0,0.0,0.0,0.0,0.0,0.0,0.0,0.0,0.0,0.0,0.0,0.0,0.0,0.0,0.0,0.0,0.0,0.0,0.0,0.0,0.0,0.0,0.0,0.0,0.0,0.0,0.0,0.0,0.0,-0.7673,-0.7979,-0.903,-1.0656,-1.1093,-1.2031,-1.3959,-1.5314,-1.6469,-1.7317,-1.9573,-2.1208,-2.1827,-2.2462,-2.2654,-2.2368,-2.1482,-2.0655,-1.9813,-1.9384,-1.9161,-1.9173,-2.0506,-2.1379,-2.2017,-2.3568,-2.4588,-2.5209,-2.5513,-2.6076,-2.6904,-2.7138,-2.7503,-2.8051,-2.947,-3.0062,-3.0252,-3.022,-2.9915,-2.9451,0.0,0.0,0.0,0.0,0.0,0.0,0.0,0.0,0.0,0.0,0.0,0.0,0.0,0.0,0.0,0.0,0.0,0.0,0.0,0.0,0.0,0.0,0.0,0.0,0.0,0.0,0.0,0.0,0.0,0.0,0.0,0.0,0.0,0.0,0.0,0.0,0.0,0.0,0.0,0.0,0.0,0.0,-0.2931,0.0,0.0,0.0,0.0,0.0,0.0,0.0,0.0,0.0,0.0,0.0,0.0,0.0,0.0,0.0,0.0,0.0,0.0,0.0,0.0,0.0,0.0,0.0,0.0,0.0,0.0,0.0,0.0,0.0,0.0,0.0,0.0,-1.0847,-0.8817,-1.0122,-1.1387,-1.1653,-1.2606,-1.3663,-1.4776,-1.5894,-1.7009,-1.8156,-1.969,-2.0999,-2.2097,-2.2217,-2.2344,-2.2743,-2.1652,-2.0693,-2.002,-1.9628,-1.9307,-1.9057,-2.0047,-2.0745,-2.1276,-2.2536,-2.337,-2.3839,-2.453,-2.5331,-2.6198,-2.6739,-2.7387,-2.8082,-2.8877,-2.9289,-2.9362,-2.9893,-3.008,-3.0106,0.0,0.0,0.0,0.0,0.0,0.0,0.0,0.0,0.0,0.0,0.0,0.0,0.0,0.0,0.0,0.0,0.0,0.0,0.0,0.0,0.0,0.0,0.0,0.0,0.0,0.0,0.0,0.0,0.0,0.0,0.0,0.0,0.0,0.0,0.0,0.0,0.0,0.0,0.0,0.0,0.0,0.0,-0.5698,-0.5303,-0.3985,-0.2432,-0.3025,-0.288,-0.277,-0.5065,0.0,0.0,0.0,0.0,0.0,0.0,0.0,0.0,0.0,0.0,0.0,0.0,0.0,0.0,0.0,0.0,0.0,0.0,0.0,0.0,0.0,0.0,0.0,0.0,-1.2798,-1.2609,-1.1132,-1.1983,-1.2752,-1.2693,-1.3663,-1.4597,-1.5356,-1.6571,-1.7779,-1.8936,-2.0309,-2.1538,-2.2487,-2.2429,-2.2743,-2.3376,-2.212,-2.1217,-2.0725,-2.0152,-1.9539,-1.911,-1.9967,-2.0561,-2.0929,-2.2106,-2.3055,0.0,-2.4359,-2.5172,-2.5967,-2.6446,-2.7102,0.0,0.0,0.0,0.0,0.0,-2.9927,-3.005,0.0,0.0,0.0,0.0,0.0,0.0,0.0,0.0,0.0,0.0,0.0,0.0,0.0,0.0,0.0,0.0,0.0,0.0,0.0,0.0,0.0,0.0,0.0,0.0,0.0,0.0,0.0,0.0,0.0,0.0,0.0,0.0,0.0,0.0,0.0,0.0,0.0,0.0,0.0,0.0,0.0,0.0,-0.9265,-0.7378,-0.5855,-0.4797,-0.5465,-0.4937,-0.4421,-0.7618,0.0,0.0,0.0,0.0,0.0,0.0,0.0,0.0,0.0,0.0,0.0,0.0,0.0,0.0,0.0,0.0,0.0,0.0,0.0,0.0,0.0,0.0,0.0,0.0,-1.4425,-1.4592,-1.3806,-1.3561,-1.3514,-1.3743,-1.4371,-1.5011,-1.5686,-1.7158,-1.8548,-1.945,-2.1073,-2.2312,-2.2852,0.0,0.0,0.0,0.0,-2.1999,-2.1805,-2.0788,-2.0019,-1.9377,-2.0164,-2.067,-2.0932,-2.2052,-2.302,-2.3851,-2.4499,-2.5249,-2.606,-2.6189,-2.6834,-2.7672,-2.8683,-2.9128,-2.9165,-2.9364,-2.9613,-2.9756,0.0,0.0,0.0,0.0,0.0,0.0,0.0,0.0,0.0,0.0,0.0,0.0,0.0,0.0,0.0,0.0,0.0,0.0,0.0,0.0,0.0,0.0,0.0,0.0,0.0,0.0,0.0,0.0,0.0,0.0,0.0,0.0,0.0,0.0,0.0,0.0,0.0,0.0,0.0,0.0,0.0,0.0,-1.2114,-1.0273,-0.9905,-1.026,-0.9604,-0.9513,-1.0212,-1.3572,-1.4373,-1.4239,-1.5989,0.0,0.0,0.0,0.0,0.0,0.0,0.0,0.0,0.0,0.0,0.0,0.0,0.0,0.0,0.0,0.0,0.0,0.0,0.0,0.0,-1.6336,-1.5913,-1.5244,-1.4536,-1.4359,-1.4266,-1.4253,-1.4821,-1.55,-1.6287,-1.7479,-1.8611,-1.963,-2.1124,-2.2247,-2.2903,-2.3252,0.0,-2.4061,-2.3349,-2.2711,-2.2405,-2.1474,-2.0787,-2.0359,0.0,0.0,-2.0626,-2.1402,-2.2164,-2.3011,-2.3568,-2.4412,-2.5448,-2.5975,-2.7058,-2.84,-2.8718,-2.9128,-2.9474,-2.967,-2.9942,-3.0166,0.0,0.0,0.0,0.0,0.0,0.0,0.0,0.0,0.0,0.0,0.0,0.0,0.0,0.0,0.0,0.0,0.0,0.0,0.0,0.0,0.0,0.0,0.0,0.0,0.0,0.0,0.0,0.0,0.0,0.0,0.0,0.0,0.0,0.0,0.0,0.0,0.0,0.0,0.0,0.0,0.0,0.0,-1.5048,-1.3204,-1.2265,-1.1905,-1.1563,-1.2767,-1.4776,-1.6544,-1.6943,-1.6956,-1.8431,-1.8345,-1.78,0.0,0.0,0.0,0.0,0.0,0.0,0.0,0.0,0.0,0.0,0.0,0.0,0.0,0.0,-1.6829,0.0,0.0,-1.7695,-1.7135,-1.6684,-1.6011,-1.4932,-1.4698,-1.4508,-1.4522,-1.4916,-1.5485,-1.631,-1.7588,-1.8802,-1.9867,-2.1269,-2.2325,-2.326,-2.3451,-2.366,-2.4055,-2.3438,-2.2989,-2.264,-2.1644,-2.113,-2.0975,-2.0812,-2.1082,-2.1654,-2.2055,-2.2885,-2.3888,-2.4157,-2.485,-2.591,-2.655,-2.7587,-2.8666,-2.8988,-2.9135,-2.9432,-3.0158,-3.0453,-3.0537,0.0,0.0,0.0,0.0,0.0,0.0,0.0,0.0,0.0,0.0,0.0,0.0,0.0,0.0,0.0,0.0,0.0,0.0,0.0,0.0,0.0,0.0,0.0,0.0,0.0,0.0,0.0,0.0,0.0,0.0,0.0,0.0,0.0,0.0,0.0,0.0,0.0,0.0,0.0,0.0,0.0,0.0,-1.7416,-1.5852,-1.4343,-1.3098,-1.3217,-1.5096,-1.7594,-1.7991,-1.8356,-1.8862,-2.0185,-2.0629,-2.072,-2.0937,-2.1619,0.0,0.0,0.0,0.0,0.0,0.0,0.0,0.0,0.0,-1.6079,-1.6548,-1.8521,-2.0411,-2.1152,-2.0439,-1.9055,-1.6911,-1.658,-1.6225,-1.5056,-1.4714,-1.467,-1.4739,-1.4892,-1.5297,-1.6232,-1.7547,-1.8933,-2.0005,-2.1315,-2.2445,-2.3486,-2.3526,-2.3842,-2.4166,-2.3572,-2.3082,-2.2725,-2.1861,-2.1369,-2.1369,-2.1313,-2.1761,-2.2722,-2.3004,-2.3811,-2.4969,-2.5172,-2.5657,-2.6457,-2.7418,-2.8181,-2.8876,-2.9479,-2.9599,-2.9612,-3.0671,-3.0909,-3.0853,0.0,0.0,0.0,0.0,0.0,0.0,0.0,0.0,0.0,0.0,0.0,0.0,0.0,0.0,0.0,0.0,0.0,0.0,0.0,0.0,0.0,0.0,0.0,0.0,0.0,0.0,0.0,0.0,0.0,0.0,0.0,0.0,0.0,0.0,0.0,0.0,0.0,0.0,0.0,0.0,0.0,0.0,-1.8244,-1.7715,-1.7253,-1.6807,-1.618,-1.6416,-1.7197,-1.8523,-1.8872,-1.9104,-2.103,-2.1643,-2.1797,-2.2572,0.0,-2.3569,-2.1033,-1.8123,-1.7194,-2.3072,-2.2117,-1.987,0.0,0.0,-1.9612,-2.0845,-2.1532,-2.1709,-2.0944,-2.1398,-2.0347,-1.5653,-1.5022,-1.5003,-1.446,-1.4671,-1.4904,-1.4919,-1.4962,-1.5389,-1.6526,-1.7791,-1.8851,-1.991,-2.1227,-2.2574,-2.3481,-2.3873,-2.4198,-2.4525,-2.4147,-2.3645,-2.3054,-2.2395,-2.2006,-2.2006,-2.1733,-2.1968,-2.2679,-2.323,-2.3929,-2.461,-2.5961,-2.6616,-2.6946,-2.7824,-2.8714,-2.961,-3.0326,-3.0654,-3.069,-3.0916,-3.1123,-3.1422,0.0,0.0,0.0,0.0,0.0,0.0,0.0,0.0,0.0,0.0,0.0,0.0,0.0,0.0,0.0,0.0,0.0,0.0,0.0,0.0,0.0,0.0,0.0,0.0,0.0,0.0,0.0,0.0,0.0,0.0,0.0,0.0,0.0,0.0,0.0,0.0,0.0,0.0,0.0,0.0,0.0,0.0,-1.7784,-1.8453,-1.8759,-1.8707,-1.762,-1.7531,0.0,0.0,-1.9018,-2.0056,-2.1597,-2.2062,-2.2362,-2.4102,-2.5344,0.0,-2.3992,-2.2483,0.0,0.0,-2.457,-2.2935,-2.0956,-1.9992,-1.9829,-2.0969,-2.1725,-2.1819,-2.0569,-2.0476,-1.9637,0.0,-1.5718,-1.5362,-1.4909,-1.4965,-1.5115,-1.5422,-1.5564,-1.5925,-1.6633,-1.7956,-1.9112,-1.9852,-2.1459,-2.2728,-2.3551,-2.4126,-2.4466,-2.4595,-2.4479,-2.4108,-2.3362,-2.2856,-2.2738,-2.2731,-2.2601,-2.2908,-2.3771,-2.4244,-2.5027,-2.5999,-2.6875,-2.7493,-2.7972,-2.8486,-2.9237,-3.0183,-3.0899,-3.1487,-3.1784,-3.2214,-3.2236,-3.219,0.0,0.0,0.0,0.0,0.0,0.0,0.0,0.0,0.0,0.0,0.0,0.0,0.0,0.0,0.0,0.0,0.0,0.0,0.0,0.0,0.0,0.0,0.0,0.0,0.0,0.0,0.0,0.0,0.0,0.0,0.0,0.0,0.0,0.0,0.0,0.0,0.0,0.0,0.0,0.0,0.0,0.0,-1.7327,-1.8473,-1.9416,-1.9955,-1.8847,-1.8766,0.0,0.0,-1.9461,-2.0651,-2.1522,-2.1993,-2.2592,-2.4433,-2.6124,-2.7452,-2.7746,0.0,0.0,-2.7474,-2.7324,-2.6186,-2.2623,-2.1319,-2.0973,-2.1347,-2.1765,-2.1595,-2.0117,-1.9457,-1.861,-1.7009,-1.622,-1.5697,-1.5584,-1.5497,-1.5694,-1.5965,-1.6476,-1.6835,-1.6953,-1.8238,-1.9198,-1.975,-2.139,-2.2782,-2.3433,-2.4055,-2.4514,-2.4595,-2.4487,-2.4108,-2.3479,-2.3113,-2.2988,-2.3106,-2.323,-2.3728,-2.4734,-2.5464,-2.631,-2.7266,-2.7884,-2.8238,-2.8593,-2.9156,-2.9869,-3.0703,-3.1516,-3.2039,-3.2531,-3.325,-3.3215,-3.2951,0.0,0.0,0.0,0.0,0.0,0.0,0.0,0.0,0.0,0.0,0.0,0.0,0.0,0.0,0.0,0.0,0.0,0.0,0.0,0.0,0.0,0.0,0.0,0.0,0.0,0.0,0.0,0.0,0.0,0.0,0.0,0.0,0.0,0.0,0.0,0.0,0.0,0.0,0.0,0.0,0.0,0.0,-1.7257,-1.7752,-1.9161,-2.0793,-2.0227,0.0,0.0,0.0,-2.0457,-2.0508,-2.0535,-2.1352,0.0,-2.3002,-2.5173,0.0,0.0,0.0,-3.0894,-3.1945,-3.1412,-2.9681,-2.5998,-2.4975,-2.4485,-2.3255,-2.2274,-2.1144,-1.9629,-1.8636,-1.755,-1.6184,-1.5705,-1.5625,-1.6018,-1.6395,-1.658,-1.6464,-1.7428,-1.7947,0.0,-1.8643,-1.9435,-1.9435,-2.1062,-2.2414,-2.3188,-2.3827,-2.4261,-2.4587,-2.4232,-2.3736,-2.3106,-2.2738,-2.2738,-2.3106,-2.3487,-2.4108,-2.5111,-2.6675,-2.7576,-2.7765,-2.8672,-2.8972,-2.8708,-2.9564,-3.0401,-3.123,-3.2015,-3.2451,-3.2644,-3.3588,-3.3768,-3.3577,0.0,0.0,0.0,0.0,0.0,0.0,0.0,0.0,0.0,0.0,0.0,0.0,0.0,0.0,0.0,0.0,0.0,0.0,0.0,0.0,0.0,0.0,0.0,0.0,0.0,0.0,0.0,0.0,0.0,0.0,0.0,0.0,0.0,0.0,0.0,0.0,0.0,0.0,0.0,0.0,0.0,0.0,-1.4496,-1.647,-1.7828,-1.8878,0.0,0.0,0.0,0.0,0.0,0.0,-2.0454,0.0,0.0,-2.5226,-2.6501,-2.7798,-3.0849,0.0,-3.1354,-3.3616,-3.1918,-2.9008,-2.6429,-2.4679,-2.331,-2.2337,-2.1366,-2.0205,-1.8674,-1.8103,-1.7648,-1.6944,-1.6461,-1.6403,-1.7101,-1.7165,-1.7288,-1.7728,-1.8221,0.0,0.0,0.0,0.0,-1.9983,-2.1594,-2.2743,-2.3433,-2.4259,-2.4865,-2.498,-2.5085,-2.4719,-2.4115,-2.4204,-2.4204,-2.4108,-2.5095,-2.6067,-2.7047,-2.8233,-2.8889,-2.9051,-2.9678,-3.0008,-2.9952,-3.0181,-3.0734,-3.1462,-3.1802,-3.234,-3.3001,-3.3155,-3.3533,-3.4049,0.0,0.0,0.0,0.0,0.0,0.0,0.0,0.0,0.0,0.0,0.0,0.0,0.0,0.0,0.0,0.0,0.0,0.0,0.0,0.0,0.0,0.0,0.0,0.0,0.0,0.0,0.0,0.0,0.0,0.0,0.0,0.0,0.0,0.0,0.0,0.0,0.0,0.0,0.0,0.0,0.0,0.0,-1.1897,-1.4631,-1.6453,0.0,0.0,0.0,0.0,0.0,0.0,0.0,0.0,-2.1971,-2.3373,-2.6489,-2.7563,-2.8377,-3.1233,-3.1666,-3.1887,-3.4299,-3.2062,-2.8822,-2.7051,-2.483,-2.2727,-2.1163,-2.0495,-1.978,-1.8436,-1.7647,-1.7252,-1.7232,-1.6797,-1.6909,-1.7976,-1.7928,-1.8088,-1.8875,-1.8948,0.0,0.0,0.0,0.0,-2.0317,-2.182,-2.2983,-2.3795,-2.4603,-2.5221,-2.5464,-2.5694,-2.5585,-2.4988,-2.5203,-2.5195,-2.5095,-2.6441,-2.746,-2.8163,-2.909,-2.9594,-2.9726,-3.0229,-3.0617,-3.0779,-3.0729,-3.1195,-3.1906,-3.2053,-3.2488,-3.3112,-3.3252,-3.3872,-3.4622,0.0,0.0,0.0,0.0,0.0,0.0,0.0,0.0,0.0,0.0,0.0,0.0,0.0,0.0,0.0,0.0,0.0,0.0,0.0,0.0,0.0,0.0,0.0,0.0,0.0,0.0,0.0,0.0,0.0,0.0,0.0,0.0,0.0,0.0,0.0,0.0,0.0,0.0,0.0,0.0,0.0,0.0,-0.961,-1.2374,0.0,0.0,0.0,0.0,0.0,0.0,0.0,0.0,0.0,-2.3289,-2.4348,-2.6688,-2.8198,-2.984,-3.3137,-3.3114,-3.2545,-3.4041,-3.187,-2.9032,-2.7767,-2.5472,-2.2819,-2.0011,-1.9782,-1.9762,0.0,0.0,-1.6369,-1.6865,-1.6813,-1.7119,-1.8456,-1.8778,-1.9087,0.0,0.0,0.0,0.0,0.0,0.0,-2.0463,0.0,-2.3092,-2.4031,-2.4754,-2.5471,-2.6059,-2.6183,-2.6083,-2.5733,-2.5802,-2.5918,-2.6189,-2.753,-2.8172,-2.8486,-2.9403,-2.9839,-2.9776,-3.0432,-3.0916,-3.1154,-3.1162,-3.167,-3.2529,-3.2736,-3.2783,-3.2995,-3.3847,-3.468,-3.5175,0.0,0.0,0.0,0.0,0.0,0.0,0.0,0.0,0.0,0.0,0.0,0.0,0.0,0.0,0.0,0.0,0.0,0.0,0.0,0.0,0.0,0.0,0.0,0.0,0.0,0.0,0.0,0.0,0.0,0.0,0.0,0.0,0.0,0.0,0.0,0.0,0.0,0.0,0.0,0.0,0.0,0.0,-0.8315,0.0,0.0,0.0,0.0,0.0,0.0,0.0,0.0,0.0,0.0,-2.4279,-2.5258,-2.6631,-2.8142,-2.9719,-3.1184,-3.1736,-3.1917,-3.1977,-2.9294,-2.6439,-2.5679,-2.3893,-2.1665,-1.925,-1.8623,-1.82,0.0,0.0,0.0,-1.6741,-1.7142,0.0,-1.8909,-1.9427,0.0,-2.0492,0.0,-2.1123,-2.0696,-2.1285,0.0,0.0,-2.2631,-2.3427,-2.4384,-2.5332,-2.5936,-2.6441,-2.6924,-2.7064,-2.67,-2.715,-2.7617,-2.7882,-2.8966,-2.9578,-3.0091,-3.0764,-3.0943,-3.0743,-3.1498,-3.157,-3.0983,-3.1454,-3.183,-3.2227,-3.2225,-3.2739,-3.3633,-3.4183,-3.4857,-3.5656,0.0,0.0,0.0,0.0,0.0,0.0,0.0,0.0,0.0,0.0,0.0,0.0,0.0,0.0,0.0,0.0,0.0,0.0,0.0,0.0,0.0,0.0,0.0,0.0,0.0,0.0,0.0,0.0,0.0,0.0,0.0,0.0,0.0,0.0,0.0,0.0,0.0,0.0,0.0,0.0,0.0,0.0,0.0,0.0,0.0,0.0,0.0,0.0,0.0,0.0,0.0,-2.4911,-2.4594,-2.4908,-2.5677,-2.7026,0.0,-3.0234,-3.1014,-3.1555,-3.1632,-3.0609,-2.8077,-2.5361,-2.3595,-2.2022,-2.0249,-1.7914,-1.7556,0.0,0.0,0.0,0.0,0.0,0.0,0.0,-1.9039,-1.976,-2.0421,0.0,-2.1556,0.0,-2.1931,-2.2223,-2.2598,0.0,-2.3167,-2.3835,-2.5194,-2.5805,-2.6534,-2.7392,-2.7791,-2.8009,-2.7913,-2.817,-2.8555,-2.9076,-2.984,-3.0554,-3.1113,-3.1573,-3.1755,-3.1603,0.0,-3.2015,-3.1593,-3.2045,-3.2265,-3.2435,-3.2582,-3.3081,-3.373,-3.4314,-3.4955,-3.5562,0.0,0.0,0.0,0.0,0.0,0.0,0.0,0.0,0.0,0.0,0.0,0.0,0.0,0.0,0.0,0.0,0.0,0.0,0.0,0.0,0.0,0.0,0.0,0.0,0.0,0.0,0.0,0.0,0.0,0.0,0.0,0.0,0.0,0.0,0.0,0.0,0.0,0.0,0.0,0.0,0.0,0.0,0.0,0.0,0.0,0.0,0.0,0.0,0.0,0.0,-2.4613,-2.4817,-2.5031,-2.531,-2.5888,-2.7605,-2.9214,-3.0581,-3.1304,-3.1407,-3.0884,-2.9071,-2.7035,-2.4673,-2.1442,-2.0002,-1.8677,-1.635,0.0,-1.6783,-1.5976,-1.5736,-1.583,-1.6486,0.0,-1.7539,-1.915,-1.9852,-2.0692,-2.1972,-2.1918,-2.2167,-2.3098,-2.3103,-2.3319,-2.3975,-2.3756,-2.431,-2.5823,-2.6274,-2.7099,-2.8428,-2.8568,-2.8774,-2.9183,-2.9006,-2.9332,-3.0157,-3.0571,-3.1125,-3.1686,-3.211,-3.2286,-3.246,0.0,0.0,-3.2483,-3.2712,-3.2839,-3.2849,-3.333,-3.3547,-3.3682,-3.4468,-3.492,-3.5314,0.0,0.0,0.0,0.0,0.0,0.0,0.0,0.0,0.0,0.0,0.2292,0.0,0.0,0.0,0.0,0.0,0.0,0.0,0.0,0.0,0.0,0.0,0.0,0.0,0.0,0.0,0.0,0.0,0.0,0.0,0.0,0.0,0.0,0.0,0.0,0.0,0.0,0.0,0.0,0.0,0.0,0.0,0.0,0.0,0.0,0.0,0.0,0.0,0.0,0.0,-2.4515,-2.4767,-2.5025,-2.5691,-2.6629,-2.776,-2.8323,-2.8683,-2.9207,-2.8536,-2.7189,-2.5124,-2.3421,-2.1647,-1.9168,-1.7965,0.0,0.0,0.0,-1.5469,-1.5151,-1.5391,0.0,-1.6597,0.0,0.0,0.0,0.0,-2.0875,0.0,0.0,0.0,0.0,0.0,0.0,0.0,0.0,-2.4828,-2.5446,-2.6197,-2.7092,-2.8186,-2.8508,-2.8944,-2.9612,-2.9459,-3.0059,-3.1431,-3.1513,-3.1881,-3.2404,-3.2572,-3.2624,-3.2757,-3.2571,0.0,-3.2465,-3.2711,-3.2735,-3.276,-3.3692,-3.3962,-3.41,-3.5002,-3.544,-3.5711,0.0,0.0,0.0,0.0,0.0,0.0,0.0,0.0,0.0,0.0,0.306,0.1726,0.0,0.0,0.0,0.0,0.0,0.0,0.0,0.0,0.0,0.0,0.0,0.0,0.0,0.0,0.0,0.0,0.0,0.0,0.0,0.0,0.0,0.0,0.0,0.0,0.0,0.0,0.0,0.0,0.0,0.0,0.0,0.0,0.0,0.0,0.0,0.0,0.0,0.0,-2.2906,-2.3629,-2.4708,-2.5466,-2.6176,-2.7141,-2.7402,-2.7409,-2.7605,-2.6507,-2.488,-2.2903,-2.099,-1.9131,-1.7317,0.0,0.0,0.0,-1.4953,-1.5185,-1.4777,0.0,0.0,0.0,0.0,0.0,0.0,0.0,0.0,0.0,0.0,0.0,0.0,0.0,0.0,0.0,0.0,-2.5626,-2.6012,-2.7127,-2.7902,-2.8333,-2.924,-2.9783,-2.9967,-3.0102,-3.0782,-3.1891,-3.185,-3.2276,-3.3038,-3.3291,-3.3311,-3.3224,-3.3305,0.0,-3.2608,-3.3093,-3.3371,-3.3484,-3.4327,-3.4432,-3.4262,-3.5203,-3.5337,-3.5241,0.0,0.0,0.0,0.0,0.0,0.0,0.0,0.6022,0.5495,0.4314,0.3536,0.2051,-0.0708,-0.1207,0.0,0.0,0.0,0.0,0.0,0.0,0.0,0.0,0.0,0.0,0.0,0.0,0.0,0.0,0.0,0.0,0.0,0.0,0.0,0.0,0.0,0.0,0.0,0.0,0.0,0.0,0.0,0.0,0.0,0.0,0.0,0.0,0.0,0.0,0.0,0.0,-2.1105,-2.2067,-2.3507,-2.4351,-2.4992,-2.5932,-2.5976,-2.5708,-2.5686,-2.4468,-2.2748,-2.0902,-1.9048,-1.7231,-1.5891,-1.516,0.0,0.0,-1.4546,-1.4903,-1.4536,0.0,0.0,0.0,0.0,0.0,0.0,0.0,0.0,0.0,0.0,0.0,0.0,0.0,0.0,0.0,0.0,0.0,-2.6782,-2.7772,-2.8445,-2.8661,-2.9687,-3.0353,-3.0399,-3.065,-3.121,-3.21,-3.2104,-3.2636,-3.3626,-3.3959,-3.3958,-3.3742,-3.3899,0.0,0.0,-3.3646,-3.4037,-3.4314,-3.4844,-3.4724,-3.4451,-3.5178,-3.5131,-3.4795,0.0,0.0,0.0,0.0,0.0,0.0,0.0,0.58,0.5009,0.3266,0.308,0.2456,0.0769,0.0138,0.0,0.0,0.0,0.0,0.0,0.0,0.0,0.0,0.0,0.0,0.0,0.0,0.0,0.0,0.0,0.0,0.0,0.0,0.0,0.0,0.0,0.0,0.0,0.0,0.0,0.0,0.0,0.0,0.0,0.0,0.0,0.0,0.0,0.0,0.0,0.0,0.0,-2.0259,-2.0554,-2.1667,-2.3059,-2.4041,0.0,0.0,-2.2661,-2.164,-2.0117,-1.8245,-1.7179,-1.6293,-1.5081,0.0,0.0,-1.4068,-1.3884,-1.3895,-1.4425,-1.437,0.0,0.0,0.0,0.0,0.0,0.0,0.0,0.0,0.0,0.0,0.0,0.0,0.0,0.0,0.0,0.0,-2.6927,-2.73,-2.7933,-2.8875,-2.8878,-2.9499,-3.0831,-3.0532,-3.1169,-3.2577,-3.2638,-3.3253,-3.4356,-3.4346,-3.4316,-3.428,-3.4003,0.0,0.0,-3.3935,-3.4282,-3.4664,-3.4794,-3.4826,-3.4785,-3.4767,-3.4828,-3.4986,0.0,0.0,0.0,0.0,0.0,0.0,0.0,0.6173,0.5552,0.4064,0.3516,0.2832,0.165,0.0533,-0.0496,0.0,0.0,0.0,0.0,0.0,0.0,0.0,0.0,0.0,0.0,0.0,0.0,0.0,0.0,0.0,0.0,0.0,0.0,0.0,0.0,0.0,0.0,0.0,0.0,0.0,0.0,0.0,0.0,0.0,0.0,0.0,0.0,0.0,0.0,0.0,0.0,0.0,-1.8111,-1.8633,0.0,0.0,-2.1693,-2.0899,-2.0674,-1.9287,-1.7674,-1.6525,-1.5252,-1.4267,-1.4202,0.0,0.0,-1.4014,-1.4102,-1.4286,-1.4804,-1.4802,-1.5119,0.0,0.0,0.0,0.0,0.0,0.0,0.0,0.0,0.0,0.0,0.0,0.0,0.0,0.0,0.0,-2.7206,-2.7559,-2.81,-2.878,-2.9441,-3.0096,-3.072,-3.0989,-3.1612,-3.2612,-3.2757,-3.3338,-3.4433,-3.4724,-3.4653,-3.4385,-3.4516,0.0,0.0,-3.3791,-3.4052,-3.4553,-3.4451,-3.4314,-3.4122,-3.4797,-3.499,-3.5037,0.0,0.0,0.0,0.0,0.0,0.0,0.6861,0.6305,0.5537,0.4327,0.3523,0.2789,0.1998,0.0644,-0.0381,-0.0851,0.0,0.0,0.0,0.0,0.0,0.0,0.0,0.0,0.0,0.0,0.0,0.0,0.0,0.0,0.0,0.0,0.0,0.0,0.0,0.0,0.0,0.0,0.0,0.0,0.0,0.0,0.0,0.0,0.0,0.0,0.0,0.0,0.0,0.0,0.0,0.0,0.0,0.0,0.0,0.0,-1.9463,-1.8801,-1.8192,-1.691,-1.558,-1.4927,-1.381,-1.2984,0.0,0.0,0.0,-1.3729,-1.4002,-1.4255,-1.4572,-1.476,-1.5099,0.0,0.0,0.0,0.0,0.0,0.0,0.0,0.0,0.0,0.0,0.0,0.0,0.0,0.0,0.0,0.0,-2.7929,-2.8472,-2.9043,-2.9717,-3.0323,-3.0784,-3.1264,-3.1913,-3.2638,-3.3106,-3.3744,-3.4628,-3.5307,-3.5207,-3.4532,0.0,0.0,0.0,-3.3783,-3.4033,-3.4524,-3.414,-3.4016,-3.4066,-3.4792,-3.5034,-3.5219,0.0,0.0,0.0,0.0,0.0,0.0,0.0,0.5983,0.4641,0.3553,0.2774,0.2159,0.1755,0.057,-0.0129,0.0067,0.0,0.0,0.0,0.0,0.0,0.0,0.0,0.0,0.0,0.0,0.0,0.0,0.0,0.0,0.0,0.0,0.0,0.0,0.0,0.0,0.0,0.0,0.0,0.0,0.0,0.0,0.0,0.0,0.0,0.0,0.0,0.0,0.0,0.0,0.0,0.0,0.0,0.0,0.0,0.0,-1.6517,-1.5756,-1.4811,-1.4401,-1.4019,-1.3246,-1.2955,-1.2974,0.0,0.0,0.0,-1.317,-1.3333,-1.3394,-1.3311,-1.3723,-1.4364,-1.5109,0.0,0.0,0.0,0.0,0.0,0.0,0.0,0.0,0.0,0.0,0.0,0.0,0.0,0.0,0.0,-2.8138,-2.8906,-2.9796,-2.9373,-2.9778,-3.1084,-3.1456,-3.1823,-3.242,-3.3732,-3.4628,-3.5223,-3.5978,-3.5953,0.0,0.0,0.0,0.0,-3.4204,-3.4446,-3.4719,-3.3902,-3.4094,-3.4754,-3.4524,-3.4854,-3.5464,0.0,0.0,0.0,0.0,0.0,0.0,0.0,0.6375,0.5326,0.3809,0.3159,0.2596,0.1969,0.0852,0.0092,-0.0022,0.0,0.0,0.0,0.0,0.0,0.0,0.0,0.0,0.0,0.0,0.0,0.0,0.0,0.0,0.0,0.0,0.0,0.0,0.0,0.0,0.0,0.0,0.0,0.0,0.0,0.0,0.0,0.0,0.0,0.0,0.0,0.0,0.0,0.0,0.0,0.0,0.0,0.0,0.0,0.0,0.0,0.0,-1.3682,-1.3118,-1.2609,-1.2417,-1.2415,-1.2513,-1.2831,0.0,0.0,-1.3382,-1.3572,-1.3768,-1.3787,-1.4194,-1.4683,-1.5284,-1.5856,0.0,0.0,0.0,0.0,0.0,0.0,0.0,0.0,0.0,0.0,0.0,0.0,0.0,0.0,-2.7381,-2.829,-2.9333,-2.9825,-3.0462,-3.1144,-3.15,-3.2128,-3.3235,-3.3831,-3.4628,-3.5512,-3.5887,0.0,0.0,0.0,0.0,0.0,-3.4136,-3.398,-3.3917,-3.3363,-3.3234,-3.3409,-3.3965,-3.4558,-3.5204,0.0,0.0,0.0,0.0,0.0,0.0,0.0,0.6614,0.5581,0.3988,0.329,0.2713,0.2125,0.0898,0.0104,0.0078,0.0,0.0,0.0,0.0,0.0,0.0,0.0,0.0,0.0,0.0,0.0,0.0,0.0,0.0,0.0,0.0,0.0,0.0,0.0,0.0,0.0,0.0,0.0,0.0,0.0,0.0,-0.561,0.0,0.0,0.0,0.0,0.0,0.0,0.0,0.0,0.0,0.0,0.0,0.0,0.0,-1.1561,0.0,0.0,-1.1748,-1.1501,-1.1606,-1.1927,0.0,0.0,0.0,0.0,-1.3113,-1.3129,-1.3162,-1.3057,-1.371,-1.431,-1.4744,-1.5524,0.0,0.0,0.0,0.0,0.0,0.0,0.0,0.0,0.0,0.0,0.0,0.0,0.0,0.0,-2.7143,-2.7831,-2.8629,-2.9761,-3.0695,-3.123,-3.1527,-3.2331,-3.3645,-3.404,-3.463,-3.5301,-3.5705,0.0,0.0,0.0,0.0,0.0,-3.3885,-3.3502,-3.3416,-3.2962,-3.2832,-3.3044,-3.3894,-3.4558,-3.5204,0.0,0.0,0.0,0.0,0.0,0.0,0.0,0.0,0.0,0.0,0.3187,0.2568,0.22,0.0785,0.0,0.0,0.0,0.0,0.0,0.0,0.0,0.0,0.0,0.0,0.0,0.0,0.0,0.0,-0.0157,-0.0494,-0.0899,0.0,0.0,0.0,0.0,0.0,0.0,0.0,0.0,0.0,0.0,0.0,0.0,0.0,0.0,0.0,0.0,0.0,0.0,0.0,0.0,0.0,0.0,0.0,0.0,0.0,0.0,0.0,0.0,-1.037,0.0,0.0,0.0,0.0,0.0,0.0,0.0,0.0,0.0,-1.1939,-1.1633,-1.259,-1.3471,-1.3681,-1.5157,0.0,0.0,0.0,0.0,0.0,0.0,0.0,0.0,0.0,0.0,0.0,0.0,0.0,0.0,-2.7035,-2.7451,-2.7774,-2.9126,-3.0317,-3.1176,-3.1677,-3.2499,-3.3645,-3.4433,-3.4751,-3.4809,-3.5491,0.0,0.0,0.0,0.0,0.0,-3.3436,-3.3132,-3.3221,-3.2643,-3.2731,-3.3339,-3.4128,-3.4787,-3.5464,0.0,0.0,0.0,0.0,0.0,0.0,0.0,0.0,0.0,0.0,0.0,0.2463,0.1875,0.0966,0.0,0.0,0.0,0.0,0.0,0.0,0.0,0.0,0.0,0.0,0.0,0.0,0.0,0.0335,-0.0635,-0.1352,-0.181,-0.2874,0.0,0.0,0.0,0.0,0.0,0.0,0.0,0.0,0.0,0.0,0.0,0.0,0.0,0.0,-0.6597,-0.6968,0.0,0.0,0.0,0.0,0.0,0.0,0.0,0.0,-0.86,-0.9259,-0.9081,0.0,-1.0877,-1.1124,-1.1997,-1.2756,0.0,0.0,0.0,0.0,0.0,0.0,0.0,0.0,-1.3874,-1.4648,0.0,0.0,0.0,0.0,0.0,0.0,0.0,0.0,0.0,0.0,0.0,0.0,0.0,0.0,0.0,-2.6427,-2.7013,-2.7321,-2.8538,-2.9791,-3.0961,-3.1473,-3.2472,-3.3965,-3.4347,-3.4559,-3.4797,-3.4932,0.0,0.0,0.0,0.0,-3.4108,-3.3666,-3.3436,-3.3274,-3.2818,-3.2814,-3.3199,-3.3879,-3.4624,-3.5365,0.0,0.0,0.0,0.0,0.0,0.0,0.0,0.0,0.0,0.0,0.0,0.0,0.0,0.0,0.0,0.0,0.0,0.0,0.0,0.0,0.0,0.0,0.0,0.0,0.0,0.0,0.0,0.0,0.0,-0.1364,0.0,0.0,0.0,0.0,0.0,0.0,0.0,0.0,0.0,0.0,-0.0493,0.0,0.0,0.0,0.0,0.0,-0.482,-0.5008,0.0,-0.5933,-0.6343,-0.6632,0.0,0.0,0.0,0.0,-0.8149,-0.8882,-0.865,-0.963,-1.0855,-1.1521,-1.2197,-1.2721,-1.2675,0.0,0.0,0.0,0.0,0.0,0.0,0.0,0.0,0.0,0.0,0.0,0.0,0.0,0.0,0.0,0.0,0.0,0.0,0.0,0.0,0.0,0.0,0.0,0.0,-2.5918,-2.6358,-2.6373,-2.7554,-2.8993,-3.0697,-3.1184,-3.223,-3.3854,-3.4098,-3.4281,-3.444,-3.4591,-3.4363,0.0,0.0,0.0,-3.4037,-3.374,-3.3395,-3.3105,-3.2952,-3.2864,-3.3129,-3.3962,-3.4691,-3.5415,0.0,0.0,0.0,0.0,0.0,0.0,0.0,0.0,0.0,0.0,0.0,0.0,0.0,0.0,0.0,0.0,0.0,0.0,0.0,0.0,0.0,0.0,0.0,0.0,0.0,0.0,0.0,0.0,0.0,0.0,0.0,0.0,0.0,0.0,0.0,0.0,0.0,0.0,0.0,0.0,0.0763,0.0,0.0,0.0,0.0,0.0,0.0,0.0,0.0,-0.3757,-0.4428,-0.5035,-0.5675,0.0,0.0,0.0,0.0,0.0,-0.8648,-0.9587,-1.0794,-1.1778,-1.2361,-1.2633,-1.2636,0.0,0.0,0.0,0.0,0.0,0.0,0.0,0.0,0.0,0.0,0.0,0.0,0.0,0.0,0.0,0.0,0.0,0.0,0.0,0.0,0.0,0.0,0.0,0.0,-2.5246,-2.5467,-2.5466,-2.6574,-2.8028,-2.9974,-3.0535,-3.17,-3.3412,-3.3815,-3.3905,-3.3887,-3.4417,-3.411,0.0,0.0,0.0,-3.3907,-3.3597,-3.3251,-3.2959,-3.2893,-3.2928,-3.3129,-3.4059,-3.4787,-3.5479,0.0,0.0,0.0,0.0,0.0,0.0,0.0,0.0,0.0,0.0,0.0,0.0,0.0,0.0,0.0,0.0,0.0,0.0,0.0,0.0,0.0,0.0,0.0,0.0,0.0,0.0,0.0,0.0,0.0,0.0,-0.3242,-0.5342,-0.5401,0.0,0.0,0.0,0.0,0.2632,0.3205,0.3372,0.0,0.0,0.0,0.0,0.0,0.0,0.0,0.0,0.0,-0.1579,-0.2668,-0.3768,-0.3899,0.0,0.0,0.0,0.0,0.0,-0.9131,-0.9839,-1.0588,-1.1581,-1.2332,-1.292,0.0,0.0,0.0,0.0,0.0,0.0,0.0,0.0,0.0,0.0,0.0,0.0,0.0,0.0,0.0,0.0,0.0,0.0,0.0,0.0,0.0,0.0,0.0,0.0,0.0,-2.4315,-2.4578,-2.5153,-2.5966,-2.6857,-2.7754,-2.9317,-3.0819,-3.2343,-3.3088,-3.3431,-3.3334,-3.3892,-3.3767,0.0,0.0,-3.354,-3.3325,-3.3131,-3.2946,-3.2729,-3.2568,-3.2786,-3.3339,-3.3908,-3.4601,-3.5344,0.0,0.0,0.0,0.0,0.0,0.0,0.0,0.0,0.0,0.0,0.0,0.0,0.0,0.0,0.0,0.0,0.0,0.0,0.0,0.0,0.0,0.0,0.0,0.0,0.0,0.0,0.0,0.0,0.0,-0.3478,-0.457,-0.5562,-0.4917,-0.2861,0.0,0.0,0.0,0.2481,0.2886,0.3059,0.0,0.0,0.0,0.0,0.0,0.0,0.0,0.0,0.0,0.0,-0.1796,-0.2964,-0.3361,0.0,0.0,0.0,0.0,0.0,-0.8854,-0.9606,-1.0348,-1.0768,-1.1713,-1.2536,0.0,0.0,0.0,0.0,0.0,0.0,0.0,0.0,0.0,0.0,0.0,0.0,0.0,0.0,0.0,0.0,0.0,0.0,0.0,0.0,0.0,0.0,0.0,0.0,0.0,0.0,-2.3663,-2.419,-2.4878,-2.5653,-2.6311,-2.7793,-2.957,-3.1529,-3.2253,-3.2739,-3.302,-3.3625,-3.3658,-3.3326,0.0,-3.3837,-3.3649,-3.3566,-3.329,-3.3015,-3.2935,-3.3079,-3.3409,-3.4317,-3.5067,-3.5733,0.0,0.0,0.0,0.0,0.0,0.0,0.0,0.0,0.0,0.0,0.0,0.0,0.0,0.0,0.0,0.0,0.0,0.0,0.0,0.0,0.0,0.0,0.0,0.0,0.0,0.0,0.0,-0.2562,-0.3146,-0.4271,-0.5874,-0.5339,-0.4022,0.0,0.0,0.0,0.0,0.2715,0.2937,0.3064,0.0,0.0,0.0,0.0,0.0,0.0,0.0,0.0,0.0,0.0,0.0,0.0,0.0,0.0,0.0,-0.624,-0.7004,-0.7773,-0.8202,-0.9011,-0.9707,-0.9604,0.0,0.0,0.0,0.0,0.0,0.0,0.0,0.0,0.0,0.0,0.0,0.0,0.0,0.0,0.0,0.0,0.0,0.0,0.0,0.0,0.0,0.0,0.0,0.0,0.0,0.0,0.0,0.0,-2.2732,-2.3148,-2.3837,-2.4552,-2.5078,-2.6529,-2.8288,-3.0544,-3.1507,-3.2201,-3.2633,-3.3481,-3.367,-3.3313,-3.3907,-3.4082,-3.3913,-3.3844,-3.3595,-3.3229,-3.3152,-3.3276,-3.3563,-3.4668,-3.5394,-3.5894,0.0,0.0,0.0,0.0,0.0,0.0,0.0,0.0,0.0,0.0,0.0,0.0,0.0,0.0,0.0,0.0,0.0,0.0,0.0,0.0,0.0,0.0,0.0,0.0,0.0,-0.2085,-0.2249,-0.3316,-0.429,-0.5426,-0.6702,-0.5413,-0.3696,-0.1561,0.0,0.0,0.0,0.3812,0.3901,0.3925,0.4026,0.0,0.0,0.0,0.0,0.0,0.0,0.0,0.0,0.0,0.0,0.0,0.0,0.0,-0.5194,-0.5857,-0.6505,-0.7125,-0.7319,-0.7882,-0.8324,-0.8187,-0.9351,0.0,-1.211,-1.2155,0.0,-1.316,0.0,0.0,0.0,0.0,0.0,0.0,0.0,0.0,0.0,0.0,0.0,0.0,0.0,0.0,0.0,0.0,0.0,0.0,0.0,0.0,0.0,0.0,0.0,-2.2309,-2.3186,-2.3657,-2.3928,-2.5768,-2.7431,-2.9004,-3.0617,-3.1624,-3.2062,-3.3118,-3.3408,-3.3167,-3.3836,-3.3861,-3.3561,-3.341,-3.3215,-3.3064,-3.2877,-3.3185,-3.3965,-3.4496,-3.5052,-3.5464,0.0,0.0,0.0,0.0,0.0,0.0,0.0,0.0,0.0,0.0,0.0,0.0,0.0,0.0,0.0,0.0,0.0,0.0,0.0,0.0,0.0,0.0,0.0,-0.0946,-0.1956,-0.2354,-0.3125,-0.4267,-0.5539,-0.6099,-0.596,-0.4788,0.0,0.0,0.0,0.0,0.0,0.3134,0.3256,0.329,0.3712,0.4156,0.0,0.0,0.0,0.0,0.0,0.0,0.0,0.0,0.0111,-0.1377,0.0,-0.3401,-0.4624,-0.5037,-0.5597,-0.6128,-0.6402,-0.7089,-0.7697,-0.7653,-0.8447,0.0,0.0,-1.1888,-1.2377,-1.2907,0.0,0.0,0.0,0.0,0.0,0.0,0.0,0.0,0.0,0.0,0.0,0.0,0.0,0.0,0.0,0.0,0.0,0.0,0.0,0.0,0.0,0.0,0.0,-2.1114,-2.2002,-2.2678,-2.3212,-2.4415,-2.5847,-2.723,-2.924,-3.0454,-3.0906,-3.2225,-3.291,-3.3167,-3.3823,-3.4043,-3.3853,-3.3317,-3.3116,-3.3221,-3.2959,-3.3283,-3.3854,-3.4346,-3.4949,-3.5459,0.0,0.0,0.0,0.0,0.0,0.0,0.0,0.0,0.0,0.0,0.0,0.0,0.0,0.0,0.0,0.0,0.0,0.0,0.0,0.0,0.0,0.0,0.0,-0.0449,-0.119,-0.217,-0.3264,-0.4541,-0.5793,-0.5979,-0.5103,0.0,0.0,0.0,0.0,0.0,0.0,0.0,0.3215,0.3263,0.3861,0.4573,0.0,0.0,0.0,0.0,0.0,0.0,0.0,0.0,0.0352,-0.0975,0.0,0.0,0.0,0.0,-0.4891,-0.5285,-0.5657,-0.6316,-0.6923,-0.6901,0.0,0.0,-1.0124,-1.1217,-1.2069,-1.2564,0.0,0.0,0.0,0.0,0.0,0.0,0.0,0.0,0.0,0.0,0.0,0.0,0.0,0.0,0.0,0.0,0.0,0.0,0.0,0.0,0.0,0.0,0.0,0.0,-2.0891,-2.1642,-2.2255,-2.3241,-2.4335,-2.5461,-2.7568,-2.9201,-3.0243,-3.1644,-3.2537,-3.2896,-3.3559,-3.3817,-3.3726,-3.3054,-3.2787,-3.293,-3.2818,-3.3129,-3.3716,-3.4128,-3.475,-3.5294,0.0,0.0,0.0,0.0,0.0,0.0,0.0,0.0,0.0,0.0,0.0,0.0,0.0,0.0,0.0,0.0,0.0,0.0,0.0,0.0,0.0,0.0,0.0,0.0177,-0.0771,-0.1523,-0.2589,-0.4002,-0.493,-0.5011,-0.4257,-0.307,0.0,0.0,0.0,0.0,0.0,0.0,0.4102,0.4155,0.4756,0.5374,0.5981,0.0,0.0,0.0,0.0,0.0,0.0,0.0,0.0568,-0.0473,0.0,0.0,0.0,-0.4214,-0.4595,-0.4706,-0.518,-0.5538,-0.5799,0.0,0.0,0.0,-0.9271,-1.0188,-1.1109,0.0,0.0,0.0,0.0,0.0,0.0,0.0,0.0,0.0,0.0,0.0,0.0,0.0,0.0,0.0,0.0,0.0,0.0,0.0,0.0,0.0,0.0,0.0,0.0,0.0,-2.0061,-2.0718,-2.0988,-2.2138,-2.3018,-2.3474,-2.5696,-2.7897,-3.0204,-3.1448,-3.2176,-3.245,-3.2995,-3.3165,-3.3144,-3.2385,-3.2177,-3.2182,-3.2359,-3.2789,-3.3382,-3.3922,-3.4467,-3.4935,0.0,0.0,0.0,0.0,0.0,0.0,0.0,0.0,0.0,0.0,0.0,0.0,0.0,0.0,0.0,0.0,0.0,0.0,0.0,0.0,0.0,0.0,0.0,0.0,0.0,0.0,-0.2321,-0.359,-0.4327,-0.414,0.0,0.0,0.0,0.035,0.0,0.0,0.0,0.0,0.3669,0.3783,0.5014,0.5969,0.6714,0.0,0.0,0.0,0.0,0.0,0.0,0.0,0.0,0.0,-0.1391,0.0,0.0,-0.334,-0.3557,-0.3595,-0.4264,-0.4714,0.0,-0.5423,0.0,0.0,0.0,-0.9655,0.0,0.0,0.0,0.0,0.0,0.0,0.0,0.0,0.0,0.0,0.0,0.0,0.0,0.0,0.0,0.0,0.0,0.0,0.0,0.0,0.0,0.0,0.0,0.0,0.0,0.0,-1.8844,-1.9783,-2.0404,-2.1114,-2.2119,-2.3236,-2.4495,-2.6451,-2.8754,-3.043,-3.1484,-3.1925,-3.2807,-3.2929,-3.2695,-3.245,-3.2102,-3.1817,-3.2431,-3.2775,-3.3143,-3.373,-3.4142,-3.4399,0.0,0.0,0.0,0.0,0.0,0.0,0.0,0.0,0.0,0.0,0.0,0.0,0.0,0.0,0.0,0.0,0.0,0.0,0.0,0.0,0.0,0.0,0.0,0.0,0.0,-0.0779,-0.1676,0.0,0.0,0.0,0.0,0.0,0.0,0.0116,0.0,0.1342,0.0,0.0,0.3807,0.4374,0.581,0.6893,0.7703,0.0,0.0,0.0,0.0,0.0,0.0,0.0,0.0,0.0,-0.0955,0.0,0.0,-0.2679,-0.2901,-0.3108,-0.3615,-0.4058,0.0,-0.5,-0.6002,-0.7149,0.0,0.0,0.0,0.0,0.0,0.0,0.0,0.0,0.0,0.0,0.0,0.0,0.0,0.0,0.0,0.0,0.0,0.0,0.0,0.0,0.0,0.0,0.0,0.0,0.0,0.0,0.0,0.0,-1.7746,-1.8823,-1.9356,-2.0176,-2.1212,-2.246,-2.3582,-2.5137,-2.7075,-2.9296,-3.0656,-3.1472,-3.2302,-3.2361,-3.1813,-3.1941,-3.18,-3.1508,-3.2155,-3.2574,-3.2917,-3.3452,-3.3799,-3.4059,0.0,0.0,0.0,0.0,0.0,0.0,0.0,0.0,0.0,0.0,0.0,0.0,0.0,0.0,0.0,0.0,0.0,0.0,0.0,0.0,0.0,0.0,0.0,0.0,0.0,0.0,0.0,0.0,0.0,0.0,0.0,0.0,-0.1004,-0.0603,0.0,0.0876,0.0,0.3142,0.4401,0.5595,0.7032,0.8057,0.8766,0.8861,0.0,0.0,0.0,0.0,0.0,0.0,0.0,0.0,-0.0537,-0.1206,-0.1739,-0.2146,-0.2539,-0.2915,-0.3061,0.0,0.0,-0.4619,-0.5483,0.0,0.0,0.0,0.0,0.0,0.0,0.0,0.0,0.0,0.0,0.0,0.0,0.0,0.0,0.0,0.0,0.0,0.0,0.0,0.0,0.0,0.0,0.0,0.0,0.0,0.0,0.0,0.0,-1.544,-1.6714,-1.7709,-1.8158,-1.9266,-2.0283,0.0,-2.2659,-2.3939,-2.5254,-2.8014,-2.9875,-3.1003,-3.1773,-3.1612,-3.0871,-3.1318,-3.1433,-3.1347,-3.173,-3.2228,-3.2704,-3.3171,-3.3521,-3.377,0.0,0.0,0.0,0.0,0.0,0.0,0.0,0.0,0.0,0.0,0.0,0.0,0.0,0.0,0.0,0.0,0.0,0.0,0.0,0.0,0.0,0.0,0.0,0.0,0.0,0.0,0.0,0.0,0.0,0.0,0.0,0.0,0.0,0.0701,0.0,0.1799,0.3222,0.4199,0.5205,0.6281,0.8249,0.9152,0.9345,0.9637,0.9225,0.0,0.0,0.0,0.0,0.0,0.0,0.0,0.0045,-0.0482,-0.0903,-0.1552,-0.1748,-0.1873,-0.242,-0.2718,0.0,0.0,-0.5219,0.0,0.0,0.0,0.0,0.0,0.0,0.0,0.0,0.0,0.0,0.0,0.0,0.0,0.0,0.0,0.0,0.0,0.0,0.0,0.0,0.0,0.0,0.0,0.0,0.0,0.0,0.0,0.0,-1.4303,-1.5662,-1.6655,-1.7355,-1.8312,-1.9263,0.0,-2.1479,-2.2656,-2.3969,-2.7216,-2.9736,-3.1536,-3.143,-3.1339,-3.1291,-3.121,-3.1177,-3.1136,-3.1629,-3.2009,-3.2386,-3.303,-3.3227,-3.3269,0.0,0.0,0.0,0.0,0.0,0.0,0.0,0.0,0.0,0.0,0.0,0.0,0.0,0.0,0.0,0.0,0.0,0.0,0.0,0.0,0.0,0.0,0.0,0.0,0.0,0.0,0.0,0.0,0.0,0.0,0.0,0.0,0.0,0.1296,0.0,0.2724,0.4326,0.4999,0.6353,0.816,0.9544,1.0351,1.0668,1.0625,0.9817,0.8538,0.6811,0.0,0.0,0.0,0.0,0.0,0.0,0.0,-0.0523,-0.0847,-0.1147,-0.1457,-0.1631,0.0,0.0,-0.3719,0.0,0.0,0.0,0.0,0.0,0.0,0.0,0.0,0.0,0.0,0.0,0.0,0.0,0.0,0.0,0.0,0.0,0.0,0.0,0.0,0.0,0.0,0.0,0.0,0.0,0.0,0.0,-1.2141,-1.2832,-1.3532,-1.4836,-1.5938,-1.672,-1.7637,-1.8527,-1.9563,-2.0472,-2.2017,-2.4128,-2.7108,-2.9317,-3.0649,-3.1165,-3.1223,-3.1058,-3.1165,-3.1033,-3.0748,-3.1259,-3.1643,-3.2082,-3.2602,-3.2803,-3.2917,0.0,0.0,0.0,0.0,0.0,0.0,0.0,0.0,0.0,0.0,0.0,0.0,0.0,0.0,0.0,0.0,0.0,0.0,0.0,0.0,0.0,0.0,0.0,0.0,0.0,0.0,0.0,0.0,0.0,0.0,0.0,0.0,0.0,0.1708,0.0,0.0,0.5158,0.5734,0.7509,1.0031,1.0754,1.1439,1.1935,1.1496,1.0303,0.8743,0.7332,0.5959,0.4665,0.3713,0.0,0.0,0.0,0.0,-0.0044,0.0,-0.0535,-0.1072,-0.0838,0.0,-0.2261,-0.3617,0.0,0.0,0.0,0.0,0.0,0.0,0.0,0.0,0.0,0.0,0.0,0.0,0.0,0.0,0.0,0.0,0.0,0.0,0.0,0.0,0.0,0.0,0.0,0.0,0.0,0.0,-1.0346,-1.1088,-1.1846,-1.2713,-1.4017,-1.5096,-1.6111,-1.7014,-1.798,-1.8915,-1.9977,-2.1788,-2.4285,-2.689,-2.8556,-2.9569,-3.0992,-3.1233,-3.0658,-3.1096,-3.0851,-3.0368,-3.0761,-3.1272,-3.1776,-3.2023,-3.2372,-3.2632,0.0,0.0,0.0,0.0,0.0,0.0,0.0,0.0,0.0,0.0,0.0,0.0,0.0,0.0,0.0,0.0,0.0,0.0,0.0,0.0,0.0,0.0,0.0,0.0,0.0,0.0,0.0,0.0,0.0,0.0,0.0,0.0,0.0,0.2404,0.0,0.0,0.0,0.6654,0.827,1.0289,1.1561,1.2025,1.19,1.1766,1.0705,0.9182,0.7933,0.6731,0.5581,0.4589,0.3766,0.0,0.0,0.0,0.1317,0.0885,0.0392,-0.0043,0.0,0.0,-0.2005,0.0,0.0,0.0,0.0,0.0,0.0,0.0,0.0,0.0,0.0,0.0,0.0,0.0,0.0,0.0,0.0,0.0,0.0,0.0,0.0,0.0,0.0,0.0,0.0,0.0,0.0,0.0,-0.9406,-1.011,-1.0921,-1.1802,-1.2866,-1.3799,-1.4844,-1.5889,-1.6916,-1.7825,-1.9932,-2.1562,-2.2802,-2.5265,-2.7442,-2.9338,-3.0559,-3.0723,-3.0133,-3.0575,-3.0437,-2.9946,-3.0546,-3.0986,-3.1421,-3.1817,-3.2109,-3.2314,0.0,0.0,0.0,0.0,0.0,0.0,0.0,0.0,0.0,0.0,0.0,0.0,0.0,0.0,0.0,0.0,0.0,0.0,0.0,0.0,0.0,0.0,0.0306,0.0,0.0,0.0,0.0,0.0,0.0,0.0,0.0,0.2925,0.2993,0.0,0.0,0.0,0.0,0.0,0.9502,1.1376,1.2128,1.2175,1.1855,1.1814,1.0559,0.8763,0.8012,0.7152,0.618,0.5119,0.4252,0.3571,0.2887,0.0,0.0,0.0,0.078,0.0,-0.0092,-0.0596,-0.1184,0.0,0.0,0.0,0.0,0.0,0.0,0.0,0.0,0.0,0.0,0.0,0.0,0.0,0.0,0.0,0.0,0.0,0.0,0.0,0.0,0.0,0.0,0.0,0.0,0.0,0.0,-0.8332,-0.8798,-0.9579,-1.0313,-1.1134,-1.2278,-1.336,-1.4174,-1.5198,-1.6487,-1.8034,-1.9614,-2.0962,-2.2264,-2.4385,-2.6445,-2.8299,-2.9883,-3.0349,-3.005,-3.0217,-3.002,-2.9599,-3.0152,-3.0609,-3.0986,-3.1434,-3.1656,-3.189,0.0,0.0,0.0,0.0,0.0,0.0,0.0,0.0,0.0,0.0,0.0,0.0,0.0,0.0,0.0,0.0,0.0,0.0,0.0,0.0,0.0,0.031,0.0585,0.0674,0.0488,0.0,0.0,0.0,0.0,0.0,0.361,0.3848,0.374,0.0,0.4863,0.0,0.0,0.0,0.0,0.0,1.2022,1.1921,1.1609,0.0,0.0,0.8096,0.7883,0.7261,0.6398,0.5511,0.4757,0.4032,0.3431,0.2816,0.0,0.0,0.0,0.0,0.0,0.0,0.0,0.0,0.0,0.0,0.0,0.0,0.0,0.0,0.0,0.0,0.0,0.0,0.0,0.0,0.0,0.0,0.0,0.0,0.0,0.0,0.0,0.0,0.0,0.0,0.0,0.0,0.0,-0.812,-0.8487,-0.9051,-0.9675,-1.0484,-1.1572,-1.2566,-1.3515,-1.473,-1.6226,-1.799,-1.9137,-2.0395,-2.1831,-2.3772,-2.5446,-2.7074,-2.9049,-2.988,-2.9809,-2.9978,-2.9837,-2.9539,-2.9894,-3.0318,-3.0773,-3.1061,-3.1286,-3.1522,0.0,0.0,0.0,0.0,0.0,0.0,0.0,0.0,0.0,0.0,0.0,0.0,0.0,0.0,0.0,0.2481,0.0,0.0,0.0,0.0,0.0,0.0766,0.0828,0.0,0.0952,0.0,0.0,0.0,0.0,0.0,0.3331,0.4051,0.4104,0.3612,0.4534,0.5299,0.5999,0.0,0.0,0.0,1.0877,1.1019,1.101,0.0,0.0,0.0,0.0,0.6869,0.6115,0.5906,0.5411,0.473,0.4073,0.3566,0.3108,0.0,0.0,0.0,0.0,0.0,0.0,0.0,0.0,0.0,0.0,0.0,0.0,0.0,0.0,0.0,0.0,0.0,0.0,0.0,0.0,0.0,0.0,0.0,0.0,0.0,0.0,0.0,0.0,0.0,0.0,0.0,0.0,-0.8315,-0.8371,-0.8379,-0.8886,-1.0003,-1.0269,-1.1112,-1.2444,-1.4334,-1.5908,-1.719,-1.8483,-1.9718,-2.092,-2.2926,-2.4563,-2.5868,-2.8188,-2.9228,-2.9165,-2.9725,-2.9973,-2.9843,-2.9824,-3.0164,-3.0698,-3.0698,-3.0986,-3.1347,0.0,0.0,0.0,0.0,0.0,0.0,0.0,0.0,0.0,0.0,0.0,0.0,0.0,0.2012,0.1975,0.2,0.1889,0.0,0.0,0.0,0.0,0.0999,0.1239,0.1343,0.1375,0.0,0.0,0.0,0.0,0.3862,0.3961,0.4017,0.4041,0.3976,0.5699,0.6318,0.6307,0.9111,0.0,0.0,1.0764,1.0406,0.9606,0.0,0.0,0.0,0.0,0.0,0.0,0.6413,0.5848,0.5287,0.4493,0.3998,0.3571,0.2641,0.1847,0.0,0.0,0.0,0.0,0.0,0.0,0.0,0.0,0.0,0.0,0.0,0.0,0.0,0.0,0.0,0.0,0.0,0.0,0.0,0.0,0.0,0.0,0.0,0.0,0.0,0.0,0.0,0.0,0.0,0.0,0.0,-0.8685,-0.8484,-0.869,-0.93,-0.9846,-1.097,-1.2788,-1.3496,-1.4846,-1.6829,-1.7556,-1.8894,-2.0683,-2.21,-2.3511,-2.4788,-2.6877,-2.8274,-2.9176,-2.9638,-2.9809,-2.988,-2.9564,-2.9819,-3.0318,-3.0457,-3.0596,-3.0735,0.0,0.0,0.0,0.0,0.0,0.0,0.0,0.0,0.0,0.0,0.0,0.0,0.0,0.0,0.1803,0.1731,0.1752,0.1673,0.1513,0.1381,0.1325,0.133,0.1607,0.1726,0.0,0.0,0.0,0.0,0.0,0.0,0.0,0.3902,0.3792,0.3802,0.5795,0.6406,0.0,0.0,0.0,0.9635,0.0,0.9383,0.8592,0.0,0.0,0.0,0.0,0.0,0.0,0.0,0.0,0.0,0.4718,0.4094,0.3581,0.2734,0.0,0.0,0.1177,0.0,0.0,0.0,0.0,0.0,0.0,0.0,0.0,0.0,0.0,0.0,0.0,0.0,0.0,0.0,0.0,0.0,0.0,0.0,0.0,0.0,0.0,0.0,0.0,0.0,0.0,0.0,0.0,0.0,-0.8858,-0.8488,-0.8482,-0.8885,-0.9648,-1.0768,-1.2481,-1.2826,-1.4014,-1.597,-1.6769,-1.8234,-2.013,-2.1388,-2.2715,-2.412,-2.5932,-2.7513,-2.8907,-2.9297,-2.9666,-2.9882,-2.9376,-2.9496,-3.0036,-3.0265,-3.0292,-3.0318,0.0,0.0,0.0,0.0,0.0,0.0,0.0,0.0,0.0,0.0,0.0,0.0,0.0,0.0,0.0,0.183,0.1822,0.1791,0.1722,0.1477,0.147,0.1775,0.0,0.0,0.0,0.0,0.0,0.0,0.0,0.0,0.0,0.0,0.3435,0.3043,0.4645,0.5311,0.5291,0.0,0.7927,0.8087,0.0,0.7974,0.8065,0.0,0.0,0.0,0.6901,0.7037,0.0,0.6818,0.0,0.0,0.0,0.0,0.0,0.0,0.0,0.0,0.0,0.0,0.0,0.0,0.0,0.0,0.0,0.0,0.0,0.0,0.0,0.0,0.0,0.0,0.0,0.0,0.0,0.0,0.0,0.0,0.0,0.0,0.0,0.0,0.0,0.0,0.0,0.0,0.0,-1.002,-0.8984,-0.836,-0.8189,-0.8656,-0.9555,-1.0453,-1.1421,-1.2481,-1.3583,-1.4741,-1.6239,-1.7762,-1.9316,-2.082,-2.2275,-2.3851,-2.5343,-2.6835,-2.8407,-2.8872,-2.9385,-2.9929,-2.9149,-2.9234,-2.9802,-3.0119,-3.014,-3.0176,0.0,0.0,0.0,0.0,0.0,0.0,0.0,0.0,0.0,0.0,0.0,0.0,0.0,0.0,0.0,0.2072,0.2075,0.2065,0.204,0.1741,0.1676,0.1943,0.2111,0.0,0.0,0.0,0.0,0.0,0.0,0.0,0.0,0.0,0.0,0.0,0.3944,0.4617,0.5042,0.6979,0.0,0.0,0.7436,0.7274,0.0,0.0,0.0,0.0,0.0,0.7868,0.7912,0.0,0.6469,0.6059,0.0,0.0,0.0,0.0,0.0,0.0,0.1362,0.0,0.0,0.0,0.0,0.0,0.0,0.0,0.0,0.0,0.0,0.0,0.0,0.0,0.0,0.0,0.0,0.0,0.0,0.0,0.0,0.0,0.0,0.0,0.0,0.0,0.0,0.0,-1.1896,-1.0969,-0.9828,-0.8612,-0.804,-0.8227,-0.8941,-0.9969,-1.1421,-1.1974,-1.3059,-1.4734,-1.558,-1.6889,-1.8423,-1.9903,-2.141,-2.2791,-2.4579,-2.5955,-2.7083,-2.9074,-2.9748,-2.9484,-2.9395,-2.9504,-2.9868,-2.9957,-2.9995,-3.004,0.0,0.0,0.0,0.0,0.0,0.0,0.0,0.0,0.0,0.0,0.0,0.0,0.0,0.0,0.0,0.213,0.2362,0.2462,0.2376,0.2091,0.2014,0.2259,0.226,0.2346,0.0,0.0,0.0,0.0,0.0,0.0,0.0,0.0,0.0,0.0,0.0,0.0,0.0,0.0,0.0,0.0,0.6867,0.0,0.0,0.6596,0.6915,0.0,0.0,0.0,0.7816,0.6968,0.6273,0.0,0.0,0.0,0.0,0.0,0.0,0.0,0.0,0.0,0.0,0.0,0.0,0.0,-0.0968,-0.1348,0.0,0.0,0.0,0.0,0.0,0.0,0.0,0.0,0.0,0.0,0.0,0.0,0.0,0.0,0.0,0.0,0.0,0.0,0.0,-1.3022,-1.2328,-1.1086,-0.9339,-0.8164,-0.7725,-0.7868,-0.856,-0.9596,-1.1094,-1.1662,-1.2738,-1.423,-1.5235,-1.6329,-1.754,-1.9169,-2.0568,-2.1919,-2.3619,-2.4794,-2.5721,-2.7872,-2.8858,-2.9094,-2.9248,-2.953,-2.9852,-3.0106,-3.0033,-2.9821,0.0,0.0,0.0,0.0,0.0,0.0,0.0,0.0,0.0,0.0,0.0,0.0,0.0,0.0,0.0,0.0,0.2521,0.2811,0.2613,0.2425,0.244,0.2735,0.2493,0.2434,0.2611,0.0,0.0,0.0,0.0,0.0,0.0,0.0,0.0,0.0,0.0,0.0,0.0,0.0,0.0,0.6418,0.6222,0.6212,0.0,0.0,0.6486,0.0,0.6913,0.7082,0.7269,0.6757,0.5829,0.0,0.0,0.0,0.0,0.0,0.1614,0.0,0.0,0.0,0.0,0.0,0.0,0.0,-0.0924,-0.12,-0.1617,0.0,0.0,0.0,0.0,0.0,0.0,0.0,0.0,0.0,0.0,0.0,0.0,0.0,0.0,0.0,0.0,-1.2346,-1.2947,-1.3045,-1.2148,-1.057,-0.8113,-0.745,-0.7293,-0.7522,-0.8342,-0.9354,-1.0573,-1.157,-1.2569,-1.3594,-1.5047,-1.6064,-1.6746,-1.8425,-1.986,-2.1135,-2.2518,-2.3659,-2.4583,-2.5881,-2.7275,-2.8494,-2.8774,-2.9178,-2.9652,-3.024,-3.0145,-2.9762,0.0,0.0,0.0,0.0,0.0,0.0,0.0,0.0,0.0,0.0,0.0,0.0,0.0,0.0,0.0,0.0,0.0,0.2811,0.2666,0.2799,0.2897,0.3089,0.3069,0.3202,0.3363,0.3285,0.0,0.0,0.0,0.0,0.0,0.0,0.0,0.0,0.0,0.0,0.0,0.0,0.0,0.5385,0.5404,0.0,0.561,0.565,0.5978,0.6379,0.6579,0.6926,0.7119,0.0,0.5173,0.4085,0.0,0.0,0.0,0.0,0.0,0.0,0.0,0.0,0.0,0.0,0.0,0.0,-0.0335,-0.066,-0.1169,0.0,0.0,0.0,0.0,0.0,0.0,0.0,0.0,0.0,0.0,0.0,0.0,0.0,0.0,0.0,0.0,-1.2364,-1.3241,-1.3306,-1.1633,-0.9753,-0.7847,-0.7351,-0.7089,-0.7086,-0.8333,-0.9356,-1.01,-1.1573,-1.2724,-1.3714,-1.4856,-1.5899,-1.6746,-1.8086,-1.9203,-1.998,-2.1878,-2.2978,-2.3617,-2.5094,-2.6323,-2.7292,-2.7934,-2.8452,-2.8949,-2.9253,-3.0174,-3.1264,0.0,0.0,0.0,0.0,0.0,0.0,0.0,0.0,0.0,0.0,0.0,0.0,0.0,0.0,0.0,0.0,0.0,0.0,0.0,0.0,0.3133,0.3471,0.3294,0.3209,0.3365,0.323,0.0,0.0,0.0,0.0,0.0,0.0,0.0,0.0,0.0,0.0,0.0,0.0,0.4621,0.5013,0.524,0.0,0.5047,0.5277,0.5403,0.5615,0.5993,0.6214,0.6259,0.5808,0.4779,0.0,0.0,0.23,0.1243,0.0,0.0328,-0.0187,0.0,0.0,0.0,-0.0288,0.0,0.0,0.0,-0.048,-0.0775,0.0,0.0,0.0,0.0,0.0,0.0,0.0,0.0,0.0,0.0,0.0,0.0,0.0,0.0,0.0,0.0,-1.2243,-1.3012,-1.2933,-1.149,-0.979,-0.7817,-0.7322,-0.7078,-0.7015,-0.8333,-0.9412,-1.0266,-1.1702,-1.293,-1.3937,-1.4906,-1.5891,-1.6738,-1.7729,-1.8533,-1.9362,-2.0971,-2.2201,-2.3113,-2.4232,-2.5322,-2.6357,-2.7531,-2.8257,-2.8796,-2.9729,-3.0442,-3.0993,0.0,0.0,0.0,0.0,0.0,0.0,0.0,0.0,0.0,0.0,0.0,0.0,0.0,0.0,0.0,0.0,0.0,0.0,0.0,0.0,0.0,0.3649,0.3317,0.3188,0.3213,0.3149,0.3167,0.0,0.0,0.0,0.0,0.0,0.0,0.0,0.0,0.0,0.0,0.0,0.0,0.4787,0.0,0.4916,0.4683,0.4789,0.4875,0.484,0.5303,0.5464,0.544,0.5241,0.0,0.32,0.3002,0.1853,0.0,0.0,0.0,0.0,0.0,0.0,0.0,0.0,0.0,-0.0576,0.0,0.0,0.0,-0.0821,0.0,0.0,0.0,0.0,0.0,0.0,0.0,0.0,0.0,0.0,0.0,0.0,0.0,0.0,0.0,-1.1977,-1.258,-1.2393,-1.1275,-0.9755,-0.7787,-0.7317,-0.7099,-0.7086,-0.8333,-0.954,-1.0506,-1.1854,-1.3026,-1.3917,-1.4842,-1.5711,-1.6619,-1.7342,-1.8078,-1.9036,-2.0287,-2.1477,-2.2646,-2.3412,-2.4451,-2.5641,-2.7037,-2.79,-2.8517,-2.9881,-3.0083,-2.9939,-0.0729,-0.0561,0.0,0.0,0.0,0.0,0.0,0.0,0.0,0.0,0.0,0.0,0.0,0.0,0.0,0.0,0.0,0.0,0.1827,0.0,0.0,0.0,0.3526,0.367,0.3618,0.3805,0.3862,0.0,0.0,0.0,0.0,0.0,0.0,0.0,0.2937,0.0,0.0,0.0,0.3708,0.0,0.405,0.4232,0.0,0.441,0.4365,0.4425,0.4783,0.5012,0.512,0.0,0.337,0.2545,0.0,0.084,-0.0218,0.0,0.0,0.0,0.0,0.0,0.0,0.0,-0.0933,0.0,0.0,0.0,-0.0478,-0.0482,0.0,0.0,0.0,0.0,0.0,0.0,0.0,0.0,0.0,0.0,0.0,0.0,0.0,0.0,0.0,0.0,-1.2253,-1.2232,-1.0424,-0.8827,-0.7659,-0.7195,-0.7021,-0.7283,-0.8551,-0.962,-1.0257,-1.1591,-1.2537,-1.3222,-1.4236,-1.5204,-1.6293,-1.7057,-1.7951,-1.8834,-1.9903,-2.0757,-2.1479,-2.2746,-2.3991,-2.5049,-2.6014,-2.6662,-2.7084,-2.7742,-2.8314,-2.8847,-0.129,-0.1066,0.0,0.0,0.0,0.0,0.0,0.0,0.0,0.0,0.0,0.0,0.0,0.0,0.0,0.0,0.0,0.0995,0.0,0.0,0.0,0.0,0.0,0.0,0.3216,0.3717,0.3904,0.3788,0.3794,0.0,0.0,0.0,0.0,0.0,0.3039,0.0,0.3177,0.0,0.0,0.0,0.0,0.0,0.0,0.383,0.3965,0.4139,0.4495,0.4708,0.4728,0.0,0.3448,0.0,0.0,0.0,0.0,0.0,0.0,0.0,0.0,0.0,0.0,0.0,0.0,0.0,-0.0132,0.0,-0.0129,0.0,0.0,0.0,0.0,0.0,0.0,0.0,0.0,0.0,0.0,0.0,0.0,0.0,0.0,0.0,0.0,0.0,0.0,0.0,0.0,-0.8972,-0.7708,-0.7275,-0.7133,-0.7364,-0.8596,-0.9633,-1.0381,-1.1841,-1.2752,-1.3293,-1.4201,-1.4952,-1.5605,-1.6644,-1.7488,-1.8204,-1.9259,-2.0339,-2.1471,-2.2038,-2.3227,-2.4705,-2.5217,-2.6008,-2.6903,-2.7208,-2.7708,-2.8298,-0.2107,0.0,0.0,0.0,0.0,0.0,0.0,0.0,0.0,0.0,0.0,0.0,-0.382,-0.294,0.0,0.0,-0.0957,0.0071,0.0,0.0,0.204,0.0,0.0,0.0,0.0,0.0,0.3788,0.3706,0.0,0.0,0.0,0.0,0.0,0.0,0.0,0.319,0.3232,0.0,0.0,0.3367,0.3762,0.3553,0.3094,0.3358,0.3649,0.3979,0.4276,0.4403,0.4444,0.4392,0.3395,0.0,0.2175,0.0,0.0,0.0,0.0,0.0,-0.1952,0.0,0.0,0.0,0.0,0.0,0.0,0.0,0.0,0.0,0.0,0.0,0.0,0.0,0.0,0.0,0.0,0.0,0.0,0.0,0.0,0.0,0.0,0.0,0.0,0.0,0.0,-1.1667,-1.0321,-0.9048,-0.795,-0.7488,-0.7451,-0.7762,-0.8842,-0.9818,-1.0688,-1.1957,-1.2804,-1.3266,-1.4128,-1.4764,-1.5165,-1.6291,-1.713,-1.7814,-1.8801,-1.9963,-2.1233,-2.1491,-2.2543,-2.4076,-2.4596,-2.5518,-2.6628,-2.701,-2.7476,-2.8044,-0.3367,-0.2766,0.0,0.0,0.0,0.0,0.0,0.0,0.0,0.0,0.0,0.0,0.0,0.0,0.0,0.0,0.0,-0.1159,-0.0752,0.0,0.1326,0.0,0.0,0.2682,0.0,0.0,0.0,0.0,0.0,0.0,0.0,0.0,0.0,0.0,0.0,0.352,0.3809,0.3338,0.3387,0.3763,0.3336,0.2959,0.265,0.0,0.3547,0.3805,0.3893,0.0,0.0,0.3308,0.277,0.0,0.0,0.0,0.0,0.0,0.0,0.0,0.0,0.0,0.0,-0.156,0.0,0.0,0.0,0.0,-0.0142,0.0,0.0,0.0,0.0,0.0,0.0,0.0,0.0,0.0,0.0,0.0,0.0,0.0,0.0,0.0,0.0,0.0,0.0,-1.1185,-0.9753,-0.869,-0.8379,-0.8003,-0.8047,-0.8608,-0.9298,-1.0113,-1.1093,-1.1737,-1.2388,-1.3045,-1.3689,-1.4402,-1.5251,-1.611,-1.701,-1.7859,-1.8626,-1.9524,-2.0399,-2.1091,-2.1943,-2.2998,-2.4079,-2.5043,-2.5992,-2.6885,-2.7476,-2.7973,0.0,0.0,0.0,0.0,0.0,0.0,0.0,-0.3623,0.0,0.0,0.0,0.0,0.0,0.0,-0.402,0.0,0.0,-0.1828,-0.0854,-0.0149,0.0,0.0,0.0,0.1666,0.0,0.0,0.0,0.0,0.0,0.0,0.0,0.0,0.0,0.0,0.0,0.4146,0.0,0.0,0.0,0.0,0.0,0.2642,0.2613,0.0,0.0,0.3344,0.3624,0.3802,0.0,0.3404,0.2833,0.2193,0.1429,0.0331,-0.086,-0.1548,-0.2231,0.0,0.0,0.0,-0.2776,-0.2024,0.0,0.0,0.0,0.0,0.0,0.0,0.0,0.0,0.0,0.0,0.0,0.0,0.0,0.0,0.0,0.0,0.0,0.0,0.0,0.0,0.0,0.0,0.0,-1.0854,-0.9838,-0.9069,-0.8791,-0.8482,-0.8536,-0.9143,-0.9576,-1.0205,-1.1002,-1.1895,-1.2509,-1.3016,-1.373,-1.4267,-1.472,-1.565,-1.6305,-1.6924,-1.7965,-1.8935,-1.9918,-2.0488,-2.1467,-2.2637,-2.3174,-2.4246,-2.5555,-2.6464,-2.7138,-2.7743,-0.3414,0.0,0.0,0.0,0.0,0.0,0.0,0.0,0.0,0.0,-0.5437,0.0,-0.5768,0.0,-0.437,0.0,-0.3313,-0.2392,-0.1452,-0.0781,0.0,0.0,0.0567,0.0,0.0,0.0,0.0,0.0,0.0,0.4485,0.0,0.0,0.0,0.0,0.0,0.0,0.0,0.0,0.4522,0.0,0.0,0.2526,0.0,0.0,0.2976,0.3045,0.0,0.3522,0.3612,0.3444,0.2938,0.2344,0.1765,0.0606,-0.0701,-0.1534,-0.2318,-0.2896,-0.2931,-0.2965,0.0,-0.2107,-0.1416,0.0,-0.0504,0.0,0.0,0.0,0.0,0.0,0.0,0.0,0.0,0.0,0.0,0.0,0.0,-0.4037,0.0,0.0,0.0,0.0,0.0,0.0,-1.0689,-1.0412,-0.9999,-0.9627,0.0,0.0,-0.9193,-0.9684,-1.0005,-1.0401,-1.1088,-1.1962,-1.2625,-1.291,-1.3701,-1.4201,-1.4441,-1.5381,-1.6001,-1.6378,-1.7547,-1.862,-1.9402,-2.0033,-2.1006,-2.2066,-2.2551,-2.3567,-2.4956,-2.5954,-2.6827,-2.765,0.0,0.0,0.0,0.0,-0.3497,0.0,0.0,0.0,-0.5579,0.0,-0.5544,-0.5469,-0.5708,-0.5015,-0.4467,-0.4291,-0.3603,0.0,-0.2446,-0.1209,0.0,0.0,0.0148,0.0938,0.1267,0.0,0.0,0.0,0.0,0.0,0.0,0.0,0.0,0.0,0.5222,0.0,0.5751,0.4958,0.4516,0.4263,0.3094,0.2405,0.2182,0.2406,0.2701,0.2956,0.3147,0.3296,0.3398,0.3356,0.3015,0.2457,0.158,0.0502,-0.061,-0.166,-0.2592,-0.331,-0.3363,-0.3193,-0.277,-0.1928,0.0,0.0,0.0,0.0,-0.055,0.0,0.0,0.0,0.0,0.0,0.0,0.0,0.0,0.0,0.0,0.0,0.0,0.0,0.0,0.0,0.0,-0.9886,-1.0367,-0.9886,-1.0209,-1.0223,0.0,0.0,-0.9921,-1.0329,-1.0512,-1.0831,-1.1337,-1.2109,-1.2646,-1.2811,-1.3651,-1.4186,-1.4441,-1.5357,-1.5875,-1.6165,-1.7424,-1.8299,-1.8815,-1.9811,-2.0586,-2.1292,-2.2105,-2.3161,-2.4295,-2.5373,-2.6554,-2.751,-0.4536,-0.4686,-0.4856,0.0,-0.4529,-0.4481,0.0,0.0,0.0,0.0,-0.5951,-0.5901,-0.6151,-0.5429,-0.4716,-0.4297,-0.3778,0.0,0.0,0.0,0.0,-0.096,-0.023,0.0448,0.0966,0.1808,0.0,0.3348,0.0,0.0,0.5648,0.0,0.0,0.0,0.0,0.0,0.591,0.5381,0.4563,0.3614,0.3218,0.2914,0.0,0.0,0.2725,0.2936,0.3101,0.3305,0.3519,0.3095,0.2726,0.233,0.1539,0.0494,-0.0554,-0.1302,-0.2319,-0.3101,-0.283,-0.2803,-0.2718,-0.2209,-0.1458,-0.0895,0.0,0.0,0.0,0.0,0.0,0.0,0.0,0.0,0.0,0.0,0.0,0.0,0.0,0.0,0.0,0.0,0.0,0.0,-0.9236,-0.9813,-1.0185,-1.0458,-1.0073,-0.9918,0.0,0.0,0.0,-1.0998,-1.1249,-1.1492,-1.1721,-1.2411,-1.2821,-1.3013,-1.3623,-1.4026,-1.4433,-1.4889,-1.532,-1.5706,-1.668,-1.751,-1.8313,-1.9231,-2.0062,-2.0809,-2.1456,-2.2854,-2.453,-2.5806,-2.671,-2.7348,-0.5381,0.0,0.0,-0.5935,0.0,0.0,-0.5409,0.0,0.0,-0.616,-0.5896,0.0,-0.5897,-0.5159,-0.4565,-0.4119,-0.3544,0.0,-0.2523,0.0,0.0,-0.0992,-0.0479,0.0235,0.1095,0.1761,0.0,0.3553,0.0,0.0,0.5948,0.0,0.0,0.0,0.0,0.6498,0.0,0.5529,0.4556,0.3569,0.3269,0.0,0.0,0.2614,0.2758,0.3017,0.2959,0.31,0.3208,0.2922,0.26,0.2183,0.1456,0.0534,-0.0372,-0.1226,-0.2075,-0.2744,-0.2582,-0.2413,-0.2267,-0.201,-0.127,-0.0723,-0.1137,-0.126,-0.143,0.0,0.0,0.0,0.0,0.0,0.0,0.0,0.0,0.0,0.0,0.0,0.0,0.0,0.0,0.0,-0.9728,-0.9966,-1.0148,-1.0534,-1.0566,0.0,0.0,0.0,0.0,-1.1575,-1.1817,-1.1931,-1.1878,-1.2531,-1.2791,-1.2851,-1.3315,-1.3793,-1.412,-1.4489,-1.486,-1.5309,-1.6182,-1.6931,-1.7537,-1.865,-1.9531,-2.0313,-2.1396,-2.2699,-2.4041,-2.5355,-2.6349,-2.7115,0.0,0.0,0.0,0.0,0.0,0.0,0.0,-0.6251,0.0,-0.6019,0.0,-0.5467,-0.5221,-0.4694,-0.4208,-0.3849,0.0,-0.2757,-0.2361,-0.1914,-0.1379,-0.0931,-0.0496,0.0245,0.1308,0.1795,0.0,0.0,0.0,0.0,0.0,0.0,0.0,0.0,0.0,0.0,0.0,0.5409,0.4478,0.0,0.322,0.2824,0.2551,0.262,0.2838,0.3052,0.2899,0.2836,0.288,0.2799,0.2517,0.207,0.1369,0.0619,-0.0151,-0.1096,-0.185,-0.2313,-0.2389,-0.2048,-0.1621,-0.1518,-0.095,-0.0477,-0.0749,-0.1123,-0.1546,-0.2033,-0.2407,-0.2766,0.0,0.0,0.0,0.0,0.0,0.0,0.0,0.0,0.0,0.0,0.0,0.0,0.0,-1.0007,-1.0109,-1.0449,0.0,0.0,0.0,0.0,0.0,-1.1935,-1.2193,0.0,-1.199,0.0,-1.2726,-1.2561,-1.3057,-1.3473,-1.3893,-1.4255,-1.4595,-1.4952,-1.5922,-1.6444,-1.6824,-1.8086,-1.9045,-1.9915,-2.148,-2.2521,-2.3356,-2.442,-2.5634,-2.6809,0.0,0.0,0.0,0.0,0.0,-0.6843,-0.6898,-0.6374,-0.6044,-0.6188,-0.5817,-0.5499,-0.5331,-0.4734,-0.4121,-0.3676,-0.3226,0.0,0.0,0.0,0.0,-0.0518,0.0169,0.0753,0.1337,0.2475,0.3266,0.0,0.0,0.0,0.0,0.0,0.0,0.0,0.0,0.0,0.5678,0.4807,0.0,0.3577,0.3263,0.3092,0.3092,0.3076,0.3045,0.3036,0.3127,0.3186,0.315,0.2762,0.2471,0.2158,0.1437,0.0692,-0.005,-0.0653,-0.1296,-0.1742,-0.1445,-0.1345,-0.1263,-0.0863,-0.0661,-0.0672,-0.1097,-0.1576,-0.2038,-0.2597,-0.3016,-0.3251,-0.3243,0.0,0.0,0.0,0.0,0.0,0.0,0.0,0.0,0.0,0.0,0.0,0.0,0.0,0.0,0.0,0.0,0.0,0.0,0.0,0.0,0.0,-1.2272,0.0,0.0,0.0,-1.281,-1.2883,-1.3083,-1.3513,-1.4324,-1.4401,-1.4657,-1.5141,-1.5493,-1.6071,-1.6744,-1.7351,-1.849,-2.0031,-2.1213,-2.2351,-2.3275,-2.4072,-2.5056,-2.6146,0.0,0.0,0.0,0.0,0.0,0.0,0.0,-0.6204,0.0,-0.6048,-0.5339,-0.4788,-0.475,-0.4003,-0.3494,-0.3227,-0.2689,-0.2153,-0.1794,-0.1333,-0.0883,-0.0441,0.0173,0.0,0.1345,0.2275,0.3098,0.3776,0.0,0.0,0.0,0.0,0.0,0.0,0.0,0.6381,0.0,0.0,0.0,0.3957,0.3609,0.3493,0.3487,0.3372,0.3264,0.3195,0.3264,0.3182,0.3083,0.2821,0.2507,0.2159,0.1638,0.0967,0.033,-0.0181,-0.0702,-0.102,-0.0888,-0.0821,-0.0706,-0.0403,-0.0353,-0.0458,-0.0791,-0.133,-0.1916,-0.2391,-0.2853,-0.3211,-0.3233,-0.32,0.0,0.0,0.0,0.0,0.0,0.0,0.0,0.0,0.0,0.0,0.0,0.0,0.0,0.0,0.0,0.0,0.0,0.0,0.0,0.0,0.0,0.0,0.0,0.0,0.0,-1.2806,-1.2877,-1.3373,-1.4125,-1.4117,-1.4409,-1.507,-1.515,-1.5543,-1.6194,-1.7249,-1.834,-1.9469,-2.0635,-2.161,-2.2422,-2.3049,-2.3921,-2.4809,0.0,-0.7977,0.0,0.0,-0.7193,0.0,-0.6659,-0.5914,-0.5464,-0.5717,-0.4767,-0.3996,-0.3928,-0.3194,-0.2689,-0.2689,-0.2062,-0.1525,-0.1256,-0.0987,-0.0628,-0.0179,0.0264,0.0776,0.1439,0.206,0.2832,0.0,0.0,0.0,0.0,0.0,0.0,0.0,0.0,0.0,0.0,0.0,0.4634,0.4231,0.3894,0.3825,0.3813,0.3579,0.3542,0.3557,0.3507,0.3283,0.3021,0.3003,0.266,0.2211,0.1832,0.1322,0.0806,0.0314,0.0,-0.0235,-0.0282,-0.0144,-0.0049,0.005,0.0,-0.0198,-0.0402,-0.1026,-0.1658,-0.2036,-0.2563,-0.3027,-0.3253,-0.3378,0.0,0.0,0.0,0.0,0.0,0.0,0.0,0.0,0.0,0.0,0.0,0.0,0.0,0.0,0.0,0.0,0.0,0.0,0.0,0.0,0.0,-1.2987,-1.2517,0.0,-1.308,0.0,-1.2805,-1.3241,-1.3999,-1.3916,-1.4247,-1.4872,-1.4872,-1.5103,-1.5623,-1.7134,-1.8073,-1.8709,-1.9725,-2.0673,-2.1531,-2.2086,-2.278,-2.3601,0.0,0.0,0.0,0.0,0.0,0.0,0.0,-0.554,-0.4947,-0.5114,-0.4424,-0.3674,-0.3299,-0.2688,-0.2154,-0.1884,-0.1436,-0.1076,-0.0807,-0.0359,0.009,0.0538,0.0966,0.1476,0.1993,0.2578,0.3094,0.0,0.0,0.0,0.0,0.0,0.0,0.0,0.0,0.0,0.0,0.468,0.4246,0.4028,0.3892,0.3825,0.3813,0.3903,0.4042,0.4108,0.4098,0.3849,0.35,0.3399,0.3019,0.249,0.195,0.1669,0.1433,0.094,0.0807,0.0765,0.0765,0.0768,0.0776,0.0664,0.0373,0.0,-0.0546,-0.1034,-0.1466,-0.201,-0.2479,-0.2903,-0.322,-0.2992,-0.2786,0.0,0.0,0.0,0.0,0.0,0.0,0.0,0.0,0.0,0.0,0.0,0.0,0.0,0.0,0.0,0.0,0.0,0.0,-1.23,0.0,-1.2503,-1.2586,-1.2846,-1.3017,-1.3241,-1.2928,-1.3367,-1.4338,-1.4123,-1.4391,-1.4872,-1.4872,-1.515,-1.5547,-1.6259,-1.7081,-1.7977,-1.8452,-1.9631,-2.1041,-2.1521,-2.2361,-2.3244,0.0,0.0,0.0,0.0,0.0,0.0,0.0,-0.4949,-0.4156,-0.3802,-0.3451,-0.3106,-0.2774,-0.2152,-0.1525,-0.1166,-0.0897,-0.0538,-0.0269,0.009,0.0359,0.0538,0.1068,0.1488,0.179,0.2261,0.2899,0.0,0.0,0.0,0.0,0.0,0.0,0.0,0.0,0.5467,0.5078,0.4964,0.4651,0.4164,0.4361,0.4428,0.4414,0.4484,0.454,0.4585,0.4389,0.4188,0.3938,0.3593,0.3164,0.2648,0.2367,0.21,0.1789,0.1609,0.1521,0.1389,0.1254,0.1208,0.1168,0.1005,0.0727,0.0453,0.0187,-0.0189,-0.0571,-0.0906,-0.1722,-0.2509,-0.3042,-0.3025,-0.2958,0.0,0.0,0.0,0.0,0.0,0.0,0.0,0.0,0.0,0.0,0.0,0.0,0.0,0.0,0.0,0.0,0.0,0.0,-1.2341,0.0,-1.2693,-1.2895,-1.3133,-1.3194,-1.3111,-1.3119,-1.3564,-1.4404,-1.4197,-1.4323,-1.4721,-1.4864,-1.5007,-1.5182,-1.59,-1.6422,-1.6841,-1.7849,-1.8742,-1.9478,-2.0312,-2.1006,-2.1716,-0.7836,0.0,-0.6975,0.0,-0.6121,-0.5542,-0.5359,-0.4387,-0.3403,-0.2689,-0.251,-0.233,-0.2151,-0.1442,-0.0813,-0.0538,-0.0269,0.0,0.0179,0.0538,0.0628,0.0628,0.1248,0.0,0.1683,0.2088,0.2591,0.3284,0.3575,0.0,0.0,0.0,0.0,0.0,0.5507,0.5396,0.4962,0.5124,0.495,0.4498,0.4764,0.4894,0.4875,0.4954,0.5064,0.5122,0.4803,0.4604,0.4484,0.4121,0.3755,0.3405,0.3034,0.2658,0.2333,0.2482,0.239,0.2189,0.2005,0.1914,0.1816,0.1481,0.121,0.0988,0.0851,0.055,0.0232,-0.018,-0.1106,-0.201,-0.2542,-0.2769,-0.2809,-0.2615,0.0,0.0,0.0,0.0,0.0,0.0,-0.5188,-0.5906,-0.6686,0.0,0.0,0.0,0.0,0.0,0.0,0.0,0.0,0.0,0.0,0.0,0.0,-1.3261,-1.3288,-1.3164,-1.3172,-1.3626,-1.4338,-1.4279,-1.438,-1.4641,-1.4721,-1.4864,-1.496,-1.5412,-1.5796,-1.6094,-1.7154,-1.7748,-1.8247,-1.9285,-1.9957,-2.05,-0.7229,-0.7175,-0.7049,-0.6492,-0.5983,-0.563,-0.528,-0.403,-0.2868,-0.2063,-0.1436,-0.1076,-0.1076,-0.0457,0.0,0.0,0.0448,0.0718,0.0718,0.1166,0.1256,0.0,0.0,0.2065,0.2019,0.2138,0.241,0.2824,0.0,0.0,0.3851,0.0,0.4889,0.4939,0.515,0.5219,0.5303,0.5161,0.5018,0.4831,0.5024,0.5087,0.5124,0.5341,0.5586,0.5715,0.5426,0.5293,0.5253,0.4971,0.4972,0.4888,0.3956,0.3378,0.3083,0.3532,0.3468,0.3275,0.3275,0.3178,0.2913,0.2256,0.1925,0.1658,0.1208,0.0985,0.0627,-0.0224,-0.0822,-0.1326,-0.1741,-0.1963,-0.2166,-0.2287,0.0,0.0,0.0,0.0,0.0,0.0,-0.5296,-0.5977,-0.6199,0.0,0.0,0.0,0.0,0.0,0.0,0.0,0.0,-1.1813,-1.225,0.0,-1.2724,-1.294,-1.316,-1.3511,-1.3155,-1.3367,-1.4082,-1.4447,-1.4633,-1.4569,-1.4569,-1.4721,-1.4872,-1.4721,-1.5073,-1.5839,-1.606,-1.6612,-1.744,-1.8641,-1.9399,-1.9856,-0.6708,-0.6104,-0.5676,-0.5447,-0.48,-0.4209,-0.3935,-0.2965,-0.1964,-0.1216,-0.0663,-0.019,0.0187,0.0279,0.0464,0.0,0.0924,0.1008,0.0,0.1446,0.1525,0.1345,0.1872,0.2111,0.2066,0.2221,0.2443,0.2635,0.0,0.0,0.0,0.4434,0.4618,0.4517,0.5249,0.5309,0.4896,0.5406,0.5309,0.4831,0.5554,0.5815,0.5789,0.6152,0.6297,0.6271,0.5851,0.5682,0.5614,0.5612,0.5504,0.5457,0.5742,0.4926,0.3935,0.4084,0.3907,0.3651,0.3604,0.3395,0.3041,0.2603,0.2546,0.2502,0.2237,0.1967,0.1474,0.0536,-0.0173,-0.0835,-0.1483,-0.1794,-0.1954,-0.1888,-0.1882,0.0,0.0,0.0,0.0,0.0,0.0,-0.5033,0.0,-0.6372,0.0,0.0,0.0,0.0,0.0,0.0,0.0,0.0,-1.23,0.0,-1.2914,-1.3194,-1.3348,-1.3354,-1.3241,-1.3375,-1.3757,-1.4215,-1.4418,-1.4274,-1.4274,-1.4274,-1.4353,-1.4425,-1.464,-1.4904,-1.5438,-1.592,-1.643,-1.7468,-1.8033,-1.8563,-0.5784,-0.537,-0.4945,-0.4578,-0.3891,-0.3279,-0.2824,-0.2087,-0.1242,-0.0384,0.0,0.0388,0.0868,0.0858,0.0,0.1144,0.1405,0.148,0.1388,0.1815,0.1885,0.1525,0.1974,0.2132,0.2087,0.0,0.0,0.2608,0.2904,0.3233,0.3575,0.413,0.4307,0.4273,0.5086,0.5205,0.483,0.5477,0.556,0.5156,0.5951,0.628,0.6252,0.6522,0.6594,0.6566,0.6125,0.6008,0.6064,0.6232,0.6196,0.6163,0.6681,0.6096,0.514,0.4976,0.4583,0.4197,0.4041,0.377,0.3462,0.3141,0.3167,0.3255,0.3081,0.2724,0.2188,0.1385,0.0613,-0.0128,-0.0783,-0.1249,-0.1516,-0.1494,-0.1648,-0.1876,-0.2137,0.0,0.0,0.0,0.0,0.0,0.0,-0.5768,0.0,0.0,0.0,0.0,0.0,0.0,0.0,-1.1499,-1.2082,0.0,-1.2564,-1.284,-1.305,-1.3092,-1.3255,-1.3306,-1.3294,-1.3775,-1.3986,-1.3882,-1.3882,-1.3882,-1.3961,-1.4155,-1.4204,-1.4205,-1.4904,-1.5258,-1.5547,-1.6538,-1.7222,-1.7768,-0.4804,-0.4882,0.0,0.0,-0.3241,0.0,-0.2038,-0.1446,-0.0673,0.039,0.0483,0.0675,0.1181,0.1477,0.1563,0.1343,0.0,0.0,0.0,0.228,0.2344,0.1893,0.207,0.2138,0.2096,0.2092,0.2328,0.2704,0.287,0.3085,0.318,0.366,0.401,0.4157,0.4774,0.5025,0.4945,0.5587,0.5766,0.5683,0.6218,0.642,0.6449,0.6427,0.6522,0.663,0.636,0.637,0.6514,0.6776,0.6933,0.6933,0.6933,0.6874,0.6661,0.6091,0.5466,0.4869,0.4609,0.4369,0.409,0.3842,0.3895,0.3935,0.3744,0.3388,0.2898,0.2277,0.1515,0.0782,0.024,-0.0392,-0.091,-0.1061,-0.1377,-0.1776,-0.2206,0.0,0.0,0.0,0.0,0.0,0.0,-0.5438,-0.5844,0.0,0.0,0.0,0.0,0.0,-1.0995,-1.1173,-1.1673,-1.184,-1.178,-1.2045,-1.236,-1.268,-1.3099,-1.306,-1.277,-1.317,-1.3369,-1.3484,-1.3507,-1.3499,-1.3507,-1.392,-1.3874,-1.3615,-1.43,-1.4705,-1.5015,-1.5956,-1.6718,-1.7252,0.0,0.0,-0.3046,-0.2665,-0.2122,-0.1757,-0.1371,-0.0693,-0.01,0.0408,0.0806,0.1205,0.184,0.2123,0.2201,0.2092,0.2056,0.2131,0.2226,0.2469,0.2538,0.2164,0.2411,0.2293,0.1916,0.2246,0.2577,0.2831,0.3042,0.3153,0.325,0.3685,0.409,0.4384,0.4929,0.5255,0.5378,0.581,0.5982,0.5888,0.6218,0.6482,0.6666,0.6905,0.7093,0.7163,0.6968,0.6942,0.6992,0.6937,0.709,0.7359,0.7359,0.7456,0.7433,0.6416,0.5724,0.5242,0.5056,0.4983,0.4903,0.4721,0.48,0.4848,0.4569,0.418,0.3649,0.2943,0.2173,0.1421,0.0633,-0.0038,-0.0545,-0.0817,-0.1308,-0.1776,-0.2103,-0.2542,0.0,0.0,-0.3831,-0.4097,-0.4587,-0.5079,-0.563,0.0,0.0,0.0,0.0,-0.9497,-1.0273,-1.0794,-1.1554,-1.1808,-1.1522,-1.1881,-1.2134,-1.2388,-1.2663,-1.2696,-1.2561,-1.2645,-1.2668,-1.2589,-1.2829,-1.2731,-1.2405,-1.3107,-1.3301,-1.3186,-1.3799,-1.4289,-1.4721,-1.508,-1.5631,-1.6217,-0.2896,-0.2625,-0.2152,-0.1664,-0.1284,-0.0898,-0.0503,0.0102,0.0515,0.0943,0.1241,0.1641,0.2175,0.2346,0.2422,0.2522,0.258,0.2552,0.255,0.2792,0.2764,0.2479,0.2527,0.2501,0.213,0.2269,0.2513,0.2694,0.2928,0.3122,0.3275,0.365,0.397,0.4309,0.4776,0.5135,0.5316,0.5692,0.5885,0.5996,0.6382,0.6613,0.6802,0.7099,0.7312,0.7355,0.7111,0.715,0.7295,0.7225,0.7413,0.7681,0.7788,0.7943,0.7883,0.7176,0.6556,0.6067,0.5721,0.5611,0.559,0.5445,0.5467,0.5409,0.5067,0.4666,0.4132,0.3476,0.28,0.2126,0.1385,0.07,0.0074,-0.0387,-0.0977,-0.1486,-0.1947,-0.2365,0.0,-0.3239,-0.3549,-0.3892,-0.4313,-0.4865,-0.5461,-0.6198,0.0,0.0,-0.8174,-0.9021,-0.9729,-1.031,-1.1079,-1.1325,-1.1011,-1.1315,-1.1583,-1.185,-1.2046,-1.2066,-1.1944,-1.2071,-1.2056,-1.1921,-1.2232,-1.2121,-1.1815,-1.2579,-1.2721,-1.2611,-1.3219,-1.3705,-1.4099,-1.4545,-1.4982,-1.5371,-0.1973,-0.1797,-0.1513,-0.0808,-0.0405,0.0,0.0414,0.083,0.1254,0.17,0.1782,0.197,0.2489,0.2557,0.253,0.2826,0.2984,0.3054,0.2759,0.3007,0.298,0.2691,0.2643,0.2612,0.2512,0.2363,0.2334,0.2513,0.2694,0.299,0.3376,0.3533,0.3779,0.4256,0.455,0.4942,0.5193,0.5526,0.5813,0.6195,0.6518,0.6771,0.6859,0.7081,0.7264,0.7394,0.718,0.7265,0.751,0.751,0.774,0.8009,0.8127,0.8221,0.8228,0.8039,0.7676,0.7138,0.6448,0.6222,0.6223,0.6123,0.6032,0.5844,0.5419,0.4951,0.4487,0.3917,0.3388,0.2819,0.2202,0.1502,0.0815,0.0073,-0.0477,-0.1086,-0.178,0.0,-0.2652,-0.2897,-0.3467,-0.3937,-0.4239,-0.4663,-0.5241,-0.605,-0.6507,-0.7063,0.0,-0.8535,-0.9213,-0.9681,-1.0385,-1.0616,-1.036,-1.0607,-1.0867,-1.1175,-1.1346,-1.1367,-1.124,-1.1373,-1.139,-1.1262,-1.1639,-1.1625,-1.1366,-1.2047,-1.2137,-1.1984,-1.2663,-1.3071,-1.3404,-1.4078,-1.4458,-1.4744,-0.161,-0.1109,-0.0606,-0.0202,0.0514,0.104,0.1141,0.1555,0.1983,0.2126,0.2307,0.2489,0.2801,0.2794,0.2875,0.3133,0.3122,0.3217,0.3116,0.3207,0.3102,0.2801,0.2947,0.2799,0.2375,0.2288,0.2334,0.2513,0.2513,0.2925,0.3714,0.3474,0.3892,0.4761,0.4896,0.5166,0.5647,0.5996,0.6266,0.6337,0.6447,0.655,0.6736,0.6911,0.7158,0.751,0.7519,0.7731,0.7968,0.7766,0.8002,0.8349,0.8021,0.8275,0.8692,0.8544,0.8588,0.8444,0.7206,0.6845,0.6862,0.6929,0.6633,0.622,0.5871,0.5242,0.4666,0.4272,0.3877,0.3346,0.2621,0.2038,0.1368,0.0479,-0.0225,-0.0913,-0.1627,0.0,-0.2587,-0.3017,-0.3256,-0.3583,-0.4093,-0.4434,-0.4927,-0.5577,-0.605,-0.652,-0.7041,-0.7718,-0.828,-0.8702,-0.9642,-0.9991,-0.9718,-1.0219,-1.0461,-1.0487,-1.0642,-1.0819,-1.0863,-1.0807,-1.0581,-1.0258,-1.0732,-1.0704,-1.0444,-1.1211,-1.1578,-1.178,-1.2236,-1.2851,-1.3411,-1.3009,-1.3569,-1.4633,-0.0505,-0.0103,0.0415,0.0825,0.1247,0.1578,0.1918,0.2242,0.2471,0.2623,0.2783,0.2842,0.3159,0.3104,0.3159,0.3436,0.3331,0.323,0.3433,0.323,0.313,0.3027,0.3073,0.2904,0.2444,0.258,0.263,0.2513,0.2604,0.2914,0.333,0.3463,0.3792,0.43,0.4643,0.5054,0.553,0.5682,0.6092,0.6527,0.6479,0.6695,0.7015,0.7175,0.7461,0.7757,0.7734,0.8027,0.8343,0.8164,0.8437,0.8865,0.8633,0.8938,0.925,0.9212,0.8858,0.841,0.7991,0.7694,0.7436,0.7275,0.7057,0.6721,0.6256,0.5569,0.4988,0.4819,0.4341,0.3799,0.32,0.26,0.1912,0.1114,0.0281,0.0,0.0,-0.1576,-0.2088,-0.2467,-0.2766,-0.3155,-0.3649,-0.4012,-0.4443,-0.4966,-0.5562,-0.6074,-0.6516,-0.7251,-0.7843,-0.8143,-0.9177,-0.9524,-0.9159,-0.9512,-0.9708,-0.9717,-0.9967,-1.0082,-1.0098,-1.0161,-1.004,-0.9734,-1.0136,-1.0108,-0.9872,-1.0399,-1.0779,-1.1073,-1.1394,-1.1911,-1.2403,-1.247,-1.2899,-1.3563,0.0707,0.104,0.1492,0.2023,0.2129,0.2249,0.2613,0.2742,0.2869,0.3116,0.3149,0.3194,0.3391,0.341,0.3448,0.3635,0.3533,0.3432,0.3635,0.3533,0.3331,0.323,0.3158,0.2974,0.2687,0.2854,0.2825,0.2513,0.2771,0.298,0.3222,0.3435,0.3763,0.411,0.4477,0.4932,0.5392,0.5524,0.5986,0.6604,0.6702,0.6982,0.7344,0.7597,0.7839,0.8103,0.8127,0.8343,0.8635,0.8626,0.8889,0.9231,0.9279,0.944,0.9699,0.9766,0.9112,0.8369,0.8527,0.8263,0.7853,0.754,0.7326,0.7013,0.6591,0.5884,0.5301,0.5264,0.4791,0.4222,0.3751,0.3167,0.2504,0.1759,0.0,0.0,0.0,-0.0994,-0.1578,-0.192,-0.2258,-0.2673,-0.3208,-0.3527,-0.3965,-0.4439,-0.5069,-0.5554,-0.6008,-0.6755,-0.7308,-0.7635,-0.8664,-0.8995,-0.8586,-0.8867,-0.8978,-0.9026,-0.9253,-0.9339,-0.9332,-0.946,-0.939,-0.921,-0.9545,-0.9551,-0.9374,-0.97,-1.0068,-1.0393,-1.067,-1.0767,-1.0848,-1.1913,-1.2298,-1.2389,0.162,0.2079,0.2691,0.3329,0.3458,0.3325,0.2935,0.3201,0.3561,0.351,0.345,0.3495,0.3641,0.3626,0.3699,0.3939,0.3932,0.3932,0.3934,0.3932,0.3732,0.323,0.3313,0.3215,0.2961,0.2903,0.2784,0.2513,0.264,0.3045,0.3725,0.3571,0.398,0.4854,0.4747,0.5012,0.5637,0.6015,0.6388,0.6626,0.6974,0.7372,0.7778,0.7972,0.8117,0.8353,0.8679,0.8805,0.8832,0.9007,0.9236,0.9388,0.9479,0.957,0.974,0.9833,0.9517,0.9054,0.8689,0.8263,0.7842,0.7706,0.7321,0.6974,0.681,0.6171,0.5522,0.5394,0.5144,0.4788,0.4242,0.3774,0.3164,0.2284,0.0,0.0,-0.0252,-0.0737,-0.1158,-0.1739,-0.2004,-0.2317,-0.2729,-0.304,-0.348,-0.4089,-0.4521,-0.495,-0.5453,-0.5918,-0.6462,-0.695,-0.7931,-0.8309,-0.7978,-0.8361,-0.8531,-0.8575,-0.8647,-0.8714,-0.8835,-0.8641,-0.8506,-0.8301,-0.8522,-0.8717,-0.8969,-0.9315,-0.9604,-0.9904,-1.0245,-0.9705,-0.893,-1.0946,-1.1655,-1.1629,0.2714,0.3008,0.3314,0.3579,0.426,0.4472,0.3769,0.3904,0.4013,0.3944,0.3984,0.3915,0.3946,0.3899,0.3962,0.4239,0.4135,0.4034,0.4236,0.4135,0.3912,0.3668,0.3713,0.3536,0.3238,0.3119,0.2998,0.2784,0.2726,0.2937,0.332,0.3301,0.3628,0.4209,0.4403,0.4854,0.5401,0.5715,0.63,0.6999,0.7119,0.7625,0.8196,0.8284,0.8443,0.8721,0.8923,0.9036,0.9134,0.9295,0.9517,0.975,0.9829,1.0043,1.0214,0.9964,0.9609,0.9144,0.8695,0.8421,0.8109,0.7777,0.7582,0.7402,0.7167,0.6509,0.5969,0.5897,0.5522,0.4946,0.4285,0.3867,0.3322,0.2393,0.0,0.0889,0.035,-0.0266,-0.0807,-0.1208,-0.1477,-0.1791,-0.2241,-0.2415,-0.2724,-0.3214,-0.3741,-0.4215,-0.4598,-0.5349,-0.5869,-0.6109,-0.6534,-0.6966,-0.7402,-0.7802,-0.7932,-0.7736,-0.8064,-0.8163,-0.8122,-0.8187,-0.8117,-0.8112,-0.8182,-0.8234,-0.8377,-0.8564,-0.8887,-0.9253,-0.9441,-0.9325,-0.9221,-0.9983,-1.0301,-1.0364,0.372,0.3835,0.4035,0.4148,0.4821,0.5144,0.4443,0.4327,0.4304,0.4239,0.4273,0.4205,0.4257,0.418,0.4236,0.4537,0.4334,0.4334,0.4537,0.4312,0.4162,0.3985,0.3959,0.3791,0.3484,0.3481,0.3367,0.3142,0.3054,0.3159,0.3194,0.3428,0.3667,0.3997,0.4384,0.4851,0.5401,0.5789,0.6409,0.7092,0.7354,0.7904,0.8481,0.8636,0.8943,0.9353,0.9269,0.9539,0.9843,0.9829,0.9993,1.0245,1.0309,1.0443,1.0521,1.0135,0.9806,0.9454,0.8941,0.8656,0.8422,0.7907,0.7783,0.7676,0.7419,0.6855,0.6413,0.6288,0.5842,0.5222,0.4473,0.405,0.3541,0.2626,0.1869,0.1226,0.0762,0.0227,-0.0319,-0.0763,-0.0951,-0.1233,-0.1737,-0.1801,-0.2044,-0.2465,-0.3107,-0.3643,-0.4045,-0.4724,-0.5124,-0.5175,-0.534,-0.5719,-0.6426,-0.7021,-0.7244,-0.7081,-0.7443,-0.7593,-0.7531,-0.7596,-0.7661,-0.7661,-0.7661,-0.7661,-0.7792,-0.7982,-0.8312,-0.8776,-0.8958,-0.9087,-0.9157,-0.9157,-0.9291,-0.9548,0.435,0.4597,0.4929,0.538,0.538,0.5228,0.4673,0.4656,0.4529,0.4266,0.4194,0.425,0.4459,0.4489,0.4537,0.4734,0.4834,0.4834,0.4832,0.4753,0.4568,0.4191,0.4107,0.3935,0.386,0.3859,0.3767,0.3587,0.3694,0.3699,0.3693,0.401,0.4233,0.4384,0.4849,0.524,0.5637,0.6331,0.6714,0.6942,0.7791,0.8327,0.878,0.9165,0.9707,1.0275,0.9873,1.0281,1.0949,1.0642,1.0599,1.0725,1.0923,1.0788,1.0561,1.0364,1.0223,0.9987,0.9388,0.8991,0.8663,0.8075,0.7901,0.7848,0.7574,0.7198,0.6825,0.6495,0.6064,0.5621,0.5004,0.4477,0.3824,0.3008,0.247,0.1781,0.0856,0.065,0.0281,-0.0587,-0.0511,-0.0619,-0.1238,-0.1283,-0.1512,-0.2064,-0.26,-0.3233,-0.3959,-0.3965,-0.4073,-0.4177,-0.4405,-0.4625,-0.4897,-0.591,-0.6455,-0.6602,-0.6798,-0.6994,-0.7195,-0.7007,-0.6876,-0.6881,-0.6881,-0.7007,-0.7204,-0.7531,-0.7992,-0.8517,-0.8894,-0.8765,-0.8517,-0.8517,-0.8899,-0.9478,0.5449,0.5624,0.578,0.5735,0.5728,0.5696,0.5714,0.57,0.5579,0.5328,0.5298,0.5255,0.4989,0.5155,0.5135,0.4834,0.4937,0.5012,0.4749,0.462,0.4526,0.4384,0.4264,0.412,0.395,0.3859,0.3767,0.3587,0.3577,0.367,0.3948,0.3914,0.422,0.4621,0.4849,0.5315,0.5867,0.6257,0.6791,0.7553,0.7949,0.8408,0.8941,0.9544,0.9851,0.9997,1.0133,1.0349,1.0465,1.038,1.0423,1.0494,1.069,1.0628,1.0521,1.0128,1.001,0.9873,0.9395,0.9118,0.8731,0.7955,0.7783,0.7676,0.73,0.7036,0.6825,0.6495,0.6064,0.5571,0.4906,0.4462,0.3971,0.304,0.2426,0.1806,0.1128,0.071,0.0282,-0.0136,-0.014,-0.0286,-0.0714,-0.0739,-0.0907,-0.1209,-0.177,-0.2372,-0.3072,-0.3074,-0.3183,-0.3405,-0.3633,-0.3744,-0.3855,-0.5061,-0.5694,-0.576,-0.6113,-0.6227,-0.6162,-0.6352,-0.6425,-0.6421,-0.6489,-0.669,-0.6872,-0.7073,-0.7339,-0.7661,-0.8112,-0.8182,-0.7997,-0.7857,-0.8117,-0.8646,0.639,0.6469,0.6422,0.6238,0.6039,0.5924,0.5945,0.593,0.5909,0.5741,0.5732,0.5606,0.5247,0.5338,0.5238,0.4834,0.5037,0.5083,0.4756,0.4849,0.4754,0.4656,0.4563,0.4359,0.4036,0.4125,0.4125,0.4034,0.3913,0.4,0.4283,0.4308,0.4525,0.4851,0.5162,0.5628,0.6099,0.6409,0.6945,0.771,0.8025,0.8484,0.9089,0.9544,0.9905,1.0132,1.0327,1.0539,1.0694,1.0732,1.0717,1.0775,1.0757,1.0719,1.0521,1.0285,1.0177,1.0111,0.9748,0.9493,0.915,0.8355,0.8069,0.7889,0.7456,0.7246,0.7036,0.6657,0.6282,0.5783,0.5011,0.4662,0.4137,0.319,0.2649,0.2132,0.1371,0.1039,0.069,0.0237,0.0244,0.015,-0.0149,-0.0206,-0.0369,-0.079,-0.1181,-0.1589,-0.2128,-0.2238,-0.2347,-0.2516,-0.2796,-0.2965,-0.3023,-0.3925,-0.4619,-0.4977,-0.5306,-0.5449,-0.5453,-0.5578,-0.5636,-0.567,-0.5732,-0.5853,-0.6069,-0.6264,-0.6479,-0.6815,-0.7335,-0.74,-0.7274,-0.7269,-0.7531,-0.7977,0.7134,0.6964,0.6882,0.6684,0.6315,0.601,0.5901,0.5884,0.5848,0.5749,0.5737,0.5536,0.534,0.534,0.5238,0.4935,0.5037,0.5163,0.4984,0.5142,0.5232,0.5032,0.4842,0.4659,0.43,0.4569,0.4656,0.4648,0.4464,0.4453,0.4684,0.4885,0.5012,0.5082,0.5628,0.6022,0.6335,0.6791,0.7173,0.7561,0.8025,0.8479,0.9079,0.9468,0.9997,1.0484,1.0408,1.0839,1.1366,1.1316,1.132,1.1308,1.1089,1.0795,1.0624,1.0624,1.0624,1.0564,1.0227,1.0019,0.9747,0.9016,0.8664,0.8293,0.7836,0.7568,0.7359,0.6987,0.6657,0.6161,0.5291,0.4947,0.4428,0.3419,0.3133,0.2634,0.1629,0.1514,0.1314,0.0658,0.0625,0.0586,0.0373,0.0275,0.0,-0.0561,-0.0729,-0.0898,-0.1234,-0.14,-0.151,-0.1511,-0.1903,-0.2184,-0.241,-0.2685,-0.3288,-0.4198,-0.4436,-0.4679,-0.4867,-0.475,-0.4702,-0.4712,-0.4712,-0.484,-0.4965,-0.5268,-0.5642,-0.6067,-0.6609,-0.6605,-0.6384,-0.6702,-0.7084,-0.744,0.7596,0.7506,0.7401,0.7073,0.6861,0.683,0.6603,0.6377,0.6366,0.6545,0.6337,0.6137,0.5842,0.6039,0.5937,0.5436,0.5135,0.512,0.5674,0.5274,0.5122,0.5139,0.5238,0.5015,0.4659,0.4661,0.4623,0.4544,0.4674,0.4741,0.4824,0.5012,0.5097,0.524,0.5705,0.6173,0.6563,0.6949,0.7488,0.8025,0.8399,0.8708,0.9094,0.962,0.9916,1.0062,1.053,1.0914,1.1218,1.1461,1.139,1.1171,1.1016,1.0918,1.0744,1.0744,1.0744,1.073,1.0662,1.0294,0.9799,0.9447,0.9021,0.8526,0.7878,0.7515,0.7311,0.709,0.6707,0.6258,0.572,0.5283,0.4732,0.3938,0.3411,0.2841,0.2272,0.201,0.168,0.1165,0.1303,0.1279,0.0799,0.0769,0.0561,0.0056,0.0056,-0.0168,-0.0785,-0.0617,-0.0672,-0.1065,-0.1233,-0.1402,-0.157,-0.1959,-0.2581,-0.3388,-0.3444,-0.3572,-0.3769,-0.3823,-0.3932,-0.403,-0.4148,-0.4326,-0.4604,-0.4601,-0.4989,-0.5646,-0.6017,-0.6108,-0.6191,-0.61,-0.6309,-0.6651,0.8216,0.8069,0.792,0.7576,0.7351,0.7122,0.7051,0.6739,0.6639,0.6745,0.6539,0.6339,0.6042,0.6239,0.6213,0.5765,0.5563,0.5522,0.5714,0.5657,0.5537,0.5463,0.5402,0.5282,0.5015,0.5015,0.49,0.4754,0.4746,0.4898,0.5194,0.5319,0.5463,0.5631,0.6018,0.6405,0.6791,0.7103,0.7565,0.8102,0.8403,0.8784,0.917,0.9695,0.9992,1.0218,1.0738,1.1186,1.1539,1.176,1.1571,1.1286,1.1485,1.1315,1.1019,1.1148,1.1141,1.1113,1.0841,1.0566,1.0261,0.9847,0.9538,0.9106,0.8172,0.7842,0.7634,0.7252,0.6982,0.6652,0.5996,0.5618,0.5069,0.4353,0.3796,0.3222,0.273,0.2452,0.2167,0.1756,0.178,0.1692,0.1257,0.1222,0.1066,0.0673,0.0673,0.0561,0.0112,0.0168,0.0056,-0.028,-0.0561,-0.0729,-0.0842,-0.1289,-0.1624,-0.1959,-0.2462,-0.2742,-0.2854,-0.2907,-0.2932,-0.2926,-0.3099,-0.336,-0.3648,-0.3643,-0.4127,-0.4918,-0.5053,-0.5265,-0.554,-0.5605,-0.5848,-0.6075,0.887,0.8607,0.835,0.8203,0.7775,0.7466,0.7341,0.7138,0.6942,0.6945,0.6639,0.6437,0.6142,0.6339,0.6289,0.5971,0.6066,0.5976,0.5657,0.6004,0.6139,0.5858,0.5652,0.5549,0.546,0.546,0.5272,0.5073,0.4896,0.5139,0.5705,0.5728,0.578,0.609,0.6485,0.6794,0.7021,0.7235,0.761,0.8069,0.8417,0.8789,0.9322,0.9695,1.0067,1.0513,1.0887,1.1409,1.1929,1.2077,1.1872,1.1612,1.2079,1.1916,1.1459,1.1535,1.1579,1.1451,1.108,1.087,1.0669,1.0248,0.9999,0.9622,0.8637,0.8359,0.8142,0.7712,0.7514,0.7155,0.6385,0.5968,0.5454,0.468,0.4239,0.3741,0.3128,0.2965,0.2745,0.2464,0.2238,0.2071,0.1796,0.174,0.1626,0.1289,0.1233,0.1178,0.101,0.0898,0.0729,0.0505,0.0168,-0.0056,-0.0224,-0.0505,-0.0617,-0.0505,-0.1344,-0.1847,-0.1961,-0.2017,-0.1961,-0.1903,-0.2015,-0.2296,-0.2577,-0.2685,-0.3253,-0.3995,-0.3969,-0.4276,-0.478,-0.5199,-0.5432,-0.5574,0.9201,0.919,0.9035,0.867,0.854,0.8393,0.7959,0.7633,0.7537,0.7447,0.7138,0.6836,0.6742,0.6539,0.6377,0.6133,0.6052,0.608,0.625,0.6107,0.6079,0.643,0.6317,0.6074,0.563,0.563,0.5494,0.5137,0.536,0.5466,0.5707,0.5909,0.622,0.6641,0.6884,0.7118,0.7341,0.7772,0.7944,0.7994,0.8625,0.9099,0.9322,0.9549,0.9916,1.0293,1.0513,1.1111,1.1855,1.2305,1.2301,1.21,1.236,1.2346,1.2133,1.1985,1.184,1.1711,1.1522,1.1059,1.0551,1.0377,1.012,0.9786,0.9427,0.899,0.8753,0.8747,0.8273,0.7672,0.7228,0.6673,0.6,0.5007,0.4684,0.4356,0.3741,0.3685,0.3522,0.3246,0.2963,0.274,0.2579,0.2465,0.224,0.1903,0.1903,0.1793,0.1515,0.1515,0.1347,0.101,0.0842,0.0673,0.0561,0.0336,0.0224,0.0224,0.0112,-0.0336,-0.1065,-0.1178,-0.129,-0.1402,-0.1624,-0.179,-0.1958,-0.2069,-0.2525,-0.3156,-0.3137,-0.354,-0.4188,-0.4745,-0.496,-0.4957,0.9278,0.9259,0.9236,0.906,0.884,0.8714,0.8443,0.8134,0.7836,0.7842,0.7437,0.7135,0.7039,0.6877,0.6775,0.6724,0.6567,0.6464,0.6382,0.6355,0.6433,0.652,0.6554,0.6432,0.6074,0.6074,0.6048,0.5906,0.5662,0.5778,0.6404,0.6402,0.6695,0.7112,0.7349,0.7546,0.7608,0.7911,0.8065,0.8203,0.8655,0.9008,0.9322,0.9771,1.0143,1.0443,1.0962,1.1484,1.1929,1.2305,1.2328,1.2226,1.2367,1.2367,1.2258,1.2065,1.1971,1.184,1.1515,1.1185,1.0843,1.0643,1.0485,1.021,1.0023,0.9685,0.9345,0.9063,0.8585,0.8066,0.7728,0.697,0.6218,0.5719,0.5175,0.4684,0.4353,0.4135,0.391,0.3633,0.3355,0.3132,0.2965,0.2796,0.2685,0.2516,0.2408,0.2352,0.2352,0.2242,0.213,0.1905,0.1624,0.1456,0.1343,0.1065,0.0953,0.1064,0.0953,0.0505,-0.0168,-0.0336,-0.0393,-0.0449,-0.0728,-0.0952,-0.1176,-0.1345,-0.1847,-0.2516,-0.2625,-0.335,-0.4298,-0.457,-0.4469,-0.4246]}]]